GFSMW_500_spd_000.txt.gz
Wind_Speed
30 28 26 27 30 28 26 23 19 25 25 21 20 21 25 27 29 31 30 31 29 32 35 38 40 42 42 43 44 43 42 41 40 39 41 44 45 47 50 53 55 58 61
30 28 27 26 28 28 26 24 22 24 26 23 22 24 27 28 29 29 28 29 31 35 38 41 43 43 44 44 41 37 38 41 42 43 44 45 48 51 55 57 60 63 64
29 27 28 28 27 29 28 26 24 24 26 26 26 28 29 28 27 26 28 32 36 39 42 42 42 43 39 36 37 39 40 43 47 49 51 53 54 55 56 59 62 65 66
26 27 28 29 28 29 30 29 27 25 27 28 29 30 29 28 28 29 33 37 39 40 41 42 41 37 37 38 40 43 44 46 49 53 58 63 66 68 67 64 64 66 67
27 27 27 28 27 28 29 29 29 28 29 31 32 31 28 29 31 33 38 40 40 41 41 40 38 39 39 42 44 46 49 52 55 57 60 64 67 71 74 73 71 66 64
26 26 26 26 27 28 28 28 28 30 30 33 32 29 30 32 34 38 40 40 40 40 39 38 40 41 42 44 46 49 52 55 59 61 65 68 69 69 70 70 71 74 76
26 26 26 27 28 29 30 29 28 30 31 31 31 31 33 35 37 39 37 37 38 37 39 40 41 42 44 47 50 53 57 60 63 67 68 69 69 69 70 72 75 77 78
28 27 27 28 30 30 30 28 28 30 31 31 32 34 36 38 38 37 37 36 36 39 40 41 42 45 48 51 55 57 61 65 68 68 68 66 66 68 72 77 83 84 85
24 25 28 29 30 29 29 29 28 29 30 32 34 36 38 36 37 37 37 37 38 40 40 43 46 49 52 55 58 61 66 68 68 66 65 66 68 73 79 84 91 97 97
26 25 26 30 30 29 28 28 27 30 31 33 35 37 34 34 36 36 36 39 41 42 44 46 49 53 55 59 63 67 68 68 66 66 67 70 75 80 87 92 96 103 108
26 27 28 27 28 29 29 28 28 30 32 34 34 32 33 34 34 35 39 41 43 45 47 49 53 56 59 64 68 69 68 65 66 68 72 77 83 87 92 97 103 108 114
26 26 26 26 25 26 28 28 30 32 33 31 30 32 32 32 34 39 41 43 45 48 50 53 57 60 64 69 69 68 65 66 69 73 79 84 88 93 99 104 109 115 120
22 21 21 21 23 25 26 27 28 29 30 30 31 31 31 34 38 41 43 45 49 50 54 57 61 66 69 69 67 65 66 69 75 80 85 90 96 101 107 113 118 121 120
19 19 20 21 23 24 24 26 28 30 30 30 30 31 34 37 41 43 46 49 49 53 56 61 66 69 70 67 65 66 69 75 80 87 93 100 105 110 115 118 121 118 101
14 16 19 21 22 22 24 26 27 28 28 29 31 34 37 40 44 46 48 49 54 56 60 65 69 70 67 65 66 70 75 80 86 94 100 106 110 115 119 120 110 94 86
11 13 15 17 19 21 23 24 25 27 28 31 33 36 39 43 45 47 50 52 54 60 64 69 68 66 65 66 71 76 80 86 93 99 107 112 115 118 113 98 91 90 89
11 13 15 16 17 20 22 25 26 27 30 33 36 39 42 46 47 48 50 53 59 62 69 67 64 64 66 71 76 81 87 94 100 108 113 114 115 105 93 88 88 83 77
17 18 18 18 20 23 24 24 26 29 32 36 39 43 46 46 46 48 53 57 62 66 66 62 63 66 72 77 80 86 93 101 106 110 114 111 98 88 88 84 78 72 65
15 16 18 21 22 23 24 26 28 32 35 40 43 45 43 43 48 52 57 61 64 64 60 61 66 71 76 80 86 92 99 103 108 112 107 93 86 86 78 74 70 60 47
16 18 20 21 21 22 25 28 31 33 36 36 38 41 45 47 52 56 59 62 58 57 60 65 70 74 80 87 93 97 102 107 111 104 85 83 82 74 70 63 54 38 30
19 18 18 20 22 25 27 29 32 35 36 39 42 44 48 51 54 58 59 54 55 59 63 67 72 80 86 92 97 102 107 109 103 85 80 76 70 67 58 47 39 33 25
17 17 19 21 24 28 32 34 35 37 39 41 44 47 50 53 56 53 52 54 58 62 65 70 77 83 89 96 101 106 108 100 84 79 71 67 63 54 39 35 29 22 24
18 20 24 28 26 28 31 34 37 39 41 44 46 48 52 52 50 50 53 58 61 64 69 74 81 88 94 99 104 106 96 80 78 69 62 55 47 38 30 24 22 24 20
23 23 23 26 29 31 33 36 39 40 41 43 47 49 48 48 50 53 56 59 63 69 75 81 88 93 99 102 105 96 79 75 67 59 50 44 41 32 21 25 25 19 17
19 22 25 28 30 33 34 35 36 38 42 45 45 45 46 48 51 54 57 62 70 76 81 87 93 97 101 102 94 78 74 66 57 48 43 39 28 21 29 28 19 19 18
20 22 25 28 30 31 32 35 38 41 41 42 44 45 47 49 52 56 62 70 76 82 87 92 96 99 100 90 76 73 64 56 46 40 33 20 23 27 24 18 19 18 18

GFSMW_500_spd_003.txt.gz
Wind_Speed
36 37 31 29 28 28 30 27 27 25 24 25 26 24 21 21 23 25 28 31 31 27 27 29 32 37 40 42 43 47 46 39 34 35 38 41 42 44 46 49 53 56 57
36 36 33 31 31 29 29 30 28 28 25 25 27 26 24 25 26 28 29 29 26 26 29 33 37 39 41 43 46 44 37 37 38 39 40 41 44 48 51 53 56 60 61
39 35 35 33 32 30 27 31 30 28 26 24 28 29 28 28 29 31 31 30 30 30 34 38 39 41 43 46 42 38 39 41 44 44 46 47 48 50 52 56 59 62 64
41 36 35 32 32 32 29 30 32 30 27 26 26 29 31 32 33 34 32 34 33 35 39 40 41 43 45 43 40 41 42 44 46 50 53 56 60 60 58 56 60 62 62
42 36 34 36 34 33 32 31 32 32 30 29 29 30 32 34 35 35 36 36 37 40 41 42 42 43 43 41 42 43 45 48 50 53 56 59 62 67 67 64 62 58 57
41 36 36 35 32 32 32 29 29 30 30 32 33 34 34 36 37 38 38 39 41 42 41 41 42 41 41 42 44 46 50 52 56 59 61 64 65 66 69 69 69 69 66
42 38 36 32 33 30 31 30 29 29 30 32 33 34 35 36 37 39 41 41 42 40 41 41 40 41 42 44 47 51 54 58 60 63 66 68 70 70 69 69 70 71 71
42 40 35 34 34 31 30 29 29 29 29 31 33 35 36 36 38 41 41 42 39 40 41 40 41 43 45 48 51 55 58 60 64 67 69 70 71 69 70 72 74 76 76
41 39 35 35 32 30 30 30 29 28 28 30 32 34 36 38 39 39 40 38 39 40 40 41 43 45 48 52 55 58 61 65 67 70 72 71 69 70 71 75 81 85 87
42 39 38 35 33 31 31 30 29 29 29 31 33 34 37 38 37 37 38 39 40 40 42 44 46 49 52 54 58 62 66 68 72 74 72 70 70 72 76 81 86 93 98
35 37 35 33 34 32 31 30 30 30 31 32 34 35 36 36 35 37 39 38 40 42 44 46 49 51 54 58 63 66 69 73 75 73 71 72 73 77 82 88 95 102 109
40 38 36 34 31 29 30 30 31 33 34 34 35 36 35 34 36 37 37 39 42 44 47 50 52 55 58 62 65 69 75 76 72 71 72 75 80 83 88 95 102 108 115
38 37 37 36 31 27 26 28 30 32 33 33 34 34 32 34 35 36 39 41 44 48 50 53 55 59 60 65 69 75 75 71 72 73 77 81 85 90 96 103 109 116 122
32 29 29 27 27 26 26 27 29 30 30 31 32 32 32 33 35 38 41 44 47 50 53 56 58 60 63 69 74 74 70 71 73 78 82 87 92 99 104 110 118 124 122
26 25 25 25 24 23 24 25 25 27 29 30 31 32 32 34 36 40 44 47 50 53 57 58 59 63 69 73 73 70 70 73 77 81 87 93 100 106 112 119 122 114 99
20 21 21 20 21 21 22 23 24 26 28 29 30 30 32 36 40 44 47 51 55 59 54 57 62 68 72 73 69 70 73 76 81 87 92 100 106 112 118 116 104 91 86
15 15 16 16 18 18 19 21 22 25 26 27 29 32 36 39 43 48 51 50 48 54 58 62 67 72 69 67 69 72 75 82 88 95 102 106 112 116 110 95 86 79 74
11 11 11 12 13 16 17 19 22 24 25 28 31 35 39 43 46 45 46 51 54 58 61 66 70 64 65 68 71 75 81 88 97 102 107 111 113 106 90 84 76 70 57
10 10 11 12 14 17 19 21 23 24 27 31 35 38 41 42 45 49 51 53 57 61 65 66 63 64 67 69 75 80 87 93 99 105 110 110 100 84 80 71 62 51 43
9 9 12 16 18 19 19 21 24 28 31 34 36 39 42 45 48 49 53 55 59 64 60 61 63 65 68 74 81 86 93 98 103 107 103 90 81 76 68 56 52 41 33
15 17 18 17 16 18 21 24 26 30 33 37 39 41 44 46 48 51 54 59 60 58 59 61 63 67 75 81 87 93 98 103 104 101 85 77 72 65 53 48 39 33 34
15 15 15 16 18 20 23 27 29 31 34 37 41 42 44 46 49 53 57 55 55 56 59 61 67 74 81 87 92 96 102 104 99 84 76 69 61 51 46 34 31 36 28
14 16 17 18 21 25 26 27 30 33 36 38 40 41 44 48 52 52 52 53 55 57 60 65 71 79 86 91 96 100 102 94 81 75 67 58 49 44 29 28 35 26 24
15 17 19 21 21 24 27 29 32 34 36 37 39 43 47 48 48 50 51 52 56 60 65 72 77 83 89 94 99 101 93 81 73 65 56 45 41 29 28 34 30 26 25
15 16 18 21 24 27 29 31 33 34 35 39 42 43 44 46 47 49 51 55 61 66 71 76 82 88 93 97 102 96 81 71 64 57 42 37 28 34 35 32 26 26 28
16 18 21 24 27 29 30 31 32 35 38 39 41 43 44 44 47 50 55 60 65 72 77 83 88 92 96 100 94 77 69 62 56 42 35 26 31 30 27 28 29 29 30

GFSMW_500_spd_006.txt.gz
Wind_Speed
39 38 35 37 38 35 34 32 31 30 28 29 29 29 30 27 23 23 23 23 25 28 30 30 28 29 31 35 38 38 39 41 41 35 37 37 40 41 42 44 46 50 52
40 38 35 34 38 36 35 33 31 32 30 29 28 28 27 27 26 24 26 26 28 30 31 32 32 33 36 39 39 39 42 43 39 37 37 39 43 46 47 49 51 54 55
43 38 37 35 38 38 35 36 32 34 34 30 28 26 27 30 28 27 29 30 31 33 34 35 37 38 40 42 41 42 44 43 41 40 41 43 44 45 46 51 55 57 61
43 39 38 37 36 39 36 37 35 34 36 32 28 29 28 29 31 31 33 34 35 36 38 40 41 42 44 42 42 44 42 41 42 44 48 50 53 54 54 52 56 58 59
45 42 38 40 39 39 37 38 38 36 33 33 31 32 31 30 31 32 35 37 38 40 41 43 44 45 43 43 44 43 41 43 45 48 51 54 58 62 63 62 57 60 61
46 43 39 41 40 40 38 38 38 38 35 32 34 35 34 33 34 35 37 38 41 43 44 45 46 45 43 44 43 43 44 46 50 53 57 60 63 65 65 63 64 64 64
49 43 40 42 40 40 38 38 38 37 35 32 34 35 34 34 36 37 39 40 42 45 46 46 45 43 44 42 43 45 47 51 54 57 61 66 69 67 70 71 70 68 68
51 42 39 42 41 41 38 39 37 36 35 34 34 34 34 35 36 38 40 42 44 45 45 44 43 43 42 43 46 48 52 55 58 61 66 68 70 74 75 74 73 72 72
48 42 42 43 41 38 38 37 36 36 35 33 33 32 32 34 36 39 41 43 42 43 42 43 43 42 43 46 48 52 55 58 62 66 67 71 76 76 74 73 76 79 80
45 42 41 43 41 39 37 35 36 36 35 32 32 31 32 34 36 39 40 39 40 41 42 43 42 43 46 49 52 55 57 62 66 66 71 76 77 74 74 77 80 83 87
43 37 38 41 42 39 37 35 35 34 34 33 34 34 34 35 36 37 37 38 40 41 41 42 44 47 50 53 56 58 63 65 66 71 76 77 75 75 78 80 83 89 96
38 38 40 42 42 40 36 36 36 36 35 35 35 36 36 35 36 36 36 38 40 40 42 44 47 51 55 57 60 64 62 66 71 75 78 74 76 78 79 84 91 99 105
37 36 43 42 41 37 35 35 37 37 37 37 37 37 36 35 35 35 37 39 40 41 44 48 51 55 58 60 59 60 66 72 76 76 73 76 77 80 85 91 99 106 111
37 37 41 41 38 35 35 36 35 35 36 36 36 35 32 32 33 35 37 38 40 44 48 52 55 57 55 57 62 67 72 76 73 73 75 76 81 87 93 98 107 113 115
37 38 37 35 34 35 34 34 34 34 35 33 30 30 30 31 34 34 36 39 44 48 52 54 52 55 58 63 67 72 75 70 72 73 76 82 87 94 99 106 112 115 109
32 30 30 31 33 34 33 32 33 32 29 28 27 27 30 31 32 34 38 43 46 50 50 53 56 59 63 67 71 72 69 71 72 76 82 89 94 100 105 111 112 103 91
31 28 27 30 30 29 28 28 27 26 24 23 25 27 27 29 33 37 41 45 49 51 55 57 59 62 66 71 68 69 70 71 77 83 89 94 101 105 111 109 98 83 75
23 23 24 23 21 20 20 20 20 21 21 21 22 25 29 33 37 41 44 47 51 54 56 59 61 66 69 66 67 69 72 77 83 89 95 100 105 111 107 95 80 69 57
15 15 13 12 13 14 14 15 15 16 18 22 25 29 32 36 40 43 46 50 52 55 57 60 65 64 64 66 68 71 77 83 87 94 101 105 111 105 92 78 67 52 44
12 12 12 12 12 11 11 13 15 18 22 25 28 31 36 39 41 46 49 51 53 55 60 62 61 62 63 67 71 77 82 88 93 98 104 109 103 86 74 65 51 39 31
6 8 9 9 10 12 14 16 18 21 24 28 32 34 37 41 44 47 49 50 55 58 58 59 59 62 66 70 76 82 88 93 97 103 106 97 79 71 63 50 39 29 35
11 12 12 12 13 15 16 18 20 25 28 30 33 36 39 42 44 46 50 53 54 55 55 56 60 65 71 76 81 86 91 96 101 104 89 75 66 60 47 39 31 36 34
10 11 12 13 15 16 18 22 25 26 29 32 35 37 40 42 45 49 50 51 52 52 55 59 62 69 75 80 85 90 95 100 101 82 71 65 56 45 36 32 35 31 27
13 14 13 14 17 18 20 23 26 29 32 34 37 38 40 44 45 47 49 49 51 54 57 62 68 73 79 84 89 93 98 100 81 69 62 52 44 33 31 32 30 31 30
14 14 14 14 16 18 23 26 29 32 33 34 36 39 41 43 45 46 47 50 53 56 61 67 72 78 83 88 93 100 100 81 69 61 50 40 30 33 32 33 34 32 33
13 12 14 15 18 23 27 29 30 31 33 36 38 39 42 44 44 46 49 52 56 62 67 73 79 83 88 92 99 96 77 69 62 49 37 29 32 30 31 30 31 31 32

GFSMW_500_spd_009.txt.gz
Wind_Speed
41 40 40 42 36 33 40 42 38 35 36 38 38 35 33 29 28 28 27 28 27 27 26 27 28 30 31 31 32 34 36 38 38 40 42 40 38 38 39 42 44 47 49
40 42 41 42 38 36 37 43 41 38 38 39 39 33 32 30 27 27 31 30 29 29 29 29 30 32 33 35 37 39 41 40 39 40 39 40 40 41 42 45 48 50 53
44 42 42 44 39 38 37 40 42 39 40 39 37 32 31 30 28 29 32 32 31 32 33 33 34 35 37 39 41 44 45 43 42 42 42 40 39 41 44 47 52 55 57
45 41 44 45 39 38 38 38 43 40 40 38 34 33 33 32 31 29 32 35 35 36 37 38 38 39 40 43 45 47 46 45 45 44 42 44 45 47 47 47 50 54 60
48 43 42 45 39 40 40 38 42 43 40 37 34 33 36 33 32 32 34 35 37 38 39 39 40 42 44 46 49 49 47 47 45 44 46 48 51 54 56 55 56 59 59
50 47 44 44 39 41 42 40 39 42 40 37 35 35 36 36 35 35 37 38 37 38 40 40 42 43 46 50 50 49 48 46 45 47 49 52 54 57 61 63 64 62 63
48 48 46 45 40 41 43 40 40 42 41 37 37 37 36 37 37 37 40 41 40 40 41 42 43 46 48 50 49 48 47 47 48 51 54 56 58 62 66 67 66 67 70
48 48 46 43 40 42 45 43 41 41 40 39 37 37 37 36 36 37 39 41 42 41 41 42 44 46 48 47 47 48 48 49 52 55 57 60 64 68 68 69 73 73 71
50 50 47 42 38 41 46 43 41 41 40 39 38 37 37 37 37 37 38 40 42 41 40 41 44 45 46 46 48 49 50 53 56 59 61 64 65 66 71 74 76 75 75
49 50 48 44 38 41 45 45 42 41 40 38 37 37 36 37 38 37 37 37 39 38 39 41 43 44 47 48 48 50 53 56 59 62 63 62 68 72 75 75 74 77 76
42 48 45 44 39 41 45 45 40 41 38 35 35 35 36 38 39 38 36 37 38 38 39 41 43 46 47 48 50 54 57 60 61 59 64 69 72 75 73 75 77 78 82
45 42 40 38 37 41 46 44 41 38 35 34 33 34 36 39 39 38 37 38 38 39 40 42 44 46 48 51 54 57 58 57 62 65 68 72 73 72 76 78 80 84 89
45 40 37 35 38 42 45 44 40 37 35 34 34 35 37 38 40 39 39 38 37 39 41 42 44 47 50 54 55 56 59 62 66 69 72 71 73 75 77 81 86 91 97
42 39 36 37 40 43 43 41 39 37 35 36 36 36 37 38 39 39 36 35 38 40 40 43 46 49 52 54 57 60 63 66 69 71 70 73 75 77 82 87 92 98 103
40 38 38 38 40 41 40 38 36 35 35 35 34 34 34 36 37 34 35 37 38 40 42 46 49 52 54 58 61 63 65 68 68 70 72 74 78 83 88 92 97 105 110
38 38 34 34 37 37 34 32 32 33 34 33 33 33 33 32 33 34 34 36 39 41 45 48 52 54 58 60 63 65 68 67 70 70 74 78 84 88 92 98 106 112 111
32 32 31 30 31 33 32 31 31 32 32 32 31 27 28 30 31 32 35 37 41 45 48 50 54 57 59 61 65 66 67 68 70 73 78 83 87 94 99 104 111 101 87
30 30 30 28 27 26 27 29 30 29 26 24 24 25 26 28 31 33 36 40 44 47 50 54 56 58 61 64 64 66 66 70 73 78 83 88 94 100 105 109 94 80 72
21 22 22 24 25 24 23 22 22 21 19 20 22 24 25 29 32 36 40 43 46 50 52 54 57 61 62 63 64 65 68 73 78 83 88 94 99 105 105 91 77 67 55
15 15 15 17 17 16 15 16 17 17 18 19 20 23 27 31 36 38 42 45 48 49 52 57 59 60 62 62 65 68 72 76 82 87 93 99 104 99 84 74 64 50 40
14 14 14 14 13 12 13 14 14 14 16 19 22 27 32 34 38 41 43 45 47 51 54 56 59 59 61 63 66 72 77 82 87 93 99 104 95 79 70 61 47 35 31
11 8 5 7 10 12 11 11 13 16 19 23 28 30 33 36 38 40 43 46 49 51 54 56 57 59 62 66 71 77 82 88 93 99 103 91 75 66 56 43 32 34 32
12 12 12 13 11 11 13 15 17 21 23 26 29 32 34 36 38 41 45 47 49 51 53 54 56 59 64 70 75 80 86 92 99 99 86 74 63 51 37 32 34 31 34
12 11 11 12 13 14 16 17 18 21 24 27 30 32 34 37 41 43 45 48 50 51 52 54 58 64 69 73 79 84 91 98 97 83 71 60 45 32 33 33 34 32 31
13 11 12 13 16 13 15 17 21 25 27 29 30 33 36 39 41 44 46 47 49 50 53 58 63 68 72 78 84 92 98 97 81 69 54 38 32 34 33 33 32 33 33
12 13 14 11 12 15 19 22 26 28 29 30 32 35 36 39 42 44 45 46 49 54 59 64 68 73 78 84 91 96 89 75 65 48 34 31 32 30 29 30 30 30 30

GFSMW_500_spd_012.txt.gz
Wind_Speed
49 46 43 40 42 44 41 39 46 44 44 40 38 38 38 38 36 34 34 34 32 34 35 33 31 31 32 32 33 34 35 36 38 41 42 44 43 43 44 44 44 45 46
53 52 48 44 44 46 45 40 40 47 47 42 43 40 40 38 35 34 34 34 33 36 36 35 34 34 34 35 36 36 38 40 42 43 47 48 46 46 46 46 47 49 50
51 52 50 45 43 47 48 43 42 45 49 46 44 42 42 38 35 35 35 34 34 35 38 37 36 37 38 39 40 41 42 43 45 46 48 48 47 47 47 47 50 53 55
50 52 52 48 44 45 48 43 43 46 45 47 45 41 41 37 36 35 35 36 34 34 37 39 39 40 41 43 43 44 45 47 48 49 51 50 50 49 47 47 51 54 57
49 51 52 51 46 46 45 42 44 46 45 46 45 42 39 36 35 37 37 36 36 35 37 39 41 42 43 45 46 47 47 49 50 52 52 51 50 51 51 52 54 57 59
51 50 52 53 51 47 44 42 44 45 45 44 43 41 38 37 36 36 38 39 37 37 39 40 41 44 45 47 48 49 49 51 53 53 52 52 52 53 56 58 59 60 61
52 50 52 52 52 46 41 40 43 43 43 42 41 41 40 37 37 36 37 40 41 42 42 42 44 46 48 48 49 49 51 52 52 53 53 52 54 57 60 62 64 66 65
51 50 50 53 52 48 43 40 42 42 43 43 40 41 41 38 36 37 38 40 42 43 42 43 44 46 47 48 49 51 51 51 52 52 53 55 59 61 63 65 66 67 71
50 47 48 52 50 47 43 42 42 41 42 42 40 40 42 40 36 37 39 40 41 41 41 41 41 43 45 47 49 51 51 52 52 53 57 60 62 63 63 66 71 75 74
49 46 48 49 50 46 44 43 43 42 43 43 41 40 42 39 36 37 38 40 40 39 39 39 41 42 45 48 49 50 51 52 54 57 61 62 61 64 67 72 74 74 75
44 44 47 48 47 45 43 43 42 40 42 43 40 40 40 38 37 37 38 39 38 39 40 41 43 43 46 48 49 50 51 54 57 60 61 62 65 70 72 73 73 75 76
43 44 42 47 46 42 43 42 41 42 43 43 39 40 39 39 38 38 39 38 38 40 42 43 43 45 46 48 50 52 54 57 59 61 64 67 69 71 72 74 75 76 80
43 44 43 39 43 42 43 42 42 43 43 40 38 38 38 38 38 38 38 38 39 41 42 42 44 45 47 49 52 55 57 59 62 65 67 68 71 72 74 75 77 80 84
42 43 43 35 39 40 40 42 42 43 42 38 38 37 37 37 38 38 39 39 39 39 39 42 45 46 48 51 54 57 60 62 65 67 69 71 72 74 75 78 82 86 91
42 41 42 37 36 37 39 41 41 41 38 37 36 36 35 36 38 39 39 39 38 37 40 44 45 48 50 54 57 60 62 64 66 69 70 72 72 75 78 82 88 93 99
38 39 38 35 36 37 38 37 36 36 35 35 34 33 30 39 38 38 36 36 36 39 41 44 47 50 53 56 59 62 63 66 68 70 70 72 74 77 83 88 94 101 107
34 35 33 34 35 35 33 32 33 33 30 29 28 32 38 36 36 33 35 36 36 40 43 46 49 52 55 58 61 63 65 67 69 69 71 74 79 84 89 95 101 107 105
28 30 32 32 32 29 28 27 25 25 26 28 32 33 32 31 32 33 33 35 39 41 45 48 51 54 57 59 62 63 66 66 68 70 75 80 84 91 96 102 106 102 86
28 29 27 25 24 23 22 22 25 28 27 27 27 28 30 30 29 31 34 37 41 43 46 50 53 55 57 60 62 64 65 66 70 74 80 85 91 97 103 108 98 80 68
28 30 28 25 25 24 24 25 25 23 22 24 25 24 25 27 29 32 37 39 41 45 48 50 53 55 57 61 62 63 65 69 74 78 84 90 97 104 104 91 77 62 48
21 24 20 20 19 17 16 16 17 18 19 21 22 23 25 29 33 35 38 41 43 45 49 52 54 57 58 59 60 64 69 74 78 84 89 96 102 99 84 72 54 40 36
12 11 14 16 16 15 12 12 14 16 17 19 22 25 28 31 34 37 39 40 43 47 49 52 54 55 57 60 65 69 73 79 83 89 96 101 92 77 61 44 38 40 38
9 8 8 9 10 12 14 15 15 16 18 21 23 26 30 33 35 36 38 42 44 47 50 51 52 54 59 64 68 73 78 82 88 95 98 84 71 53 40 40 39 36 35
7 9 10 10 10 10 10 11 13 16 17 21 25 29 31 33 34 37 40 42 45 47 48 49 53 58 63 67 72 76 80 86 94 93 78 65 50 39 40 37 35 34 33
8 8 9 8 10 10 12 13 14 18 22 26 29 30 31 33 35 38 41 43 44 45 48 52 56 60 65 70 74 78 86 93 91 77 61 47 39 38 36 35 32 31 29
7 7 8 10 13 10 11 15 20 23 26 28 29 30 32 34 38 40 41 41 43 47 51 54 59 66 70 73 78 87 93 89 76 58 44 36 36 34 31 28 28 28 30

GFSMW_500_spd_015.txt.gz
Wind_Speed
37 39 45 44 43 42 39 41 39 40 42 45 43 43 42 39 39 38 37 36 36 38 40 38 37 39 39 39 37 37 37 38 37 38 38 41 43 43 45 45 47 47 48
42 43 42 46 49 48 45 44 45 43 43 41 47 48 47 43 40 39 38 37 36 37 39 39 39 39 40 40 40 40 40 41 42 42 42 44 46 47 49 50 51 51 51
44 46 47 46 48 52 48 47 45 48 45 42 47 48 50 45 43 39 41 39 38 38 38 38 39 40 40 42 42 43 43 44 46 45 46 46 48 49 50 51 52 53 53
48 48 48 47 49 50 51 51 48 51 49 42 47 47 47 48 44 42 40 40 39 38 37 38 39 40 41 43 45 47 47 47 47 47 48 49 50 51 51 51 53 53 54
57 54 51 50 48 51 53 51 50 49 49 42 46 49 48 43 41 41 41 40 39 40 38 38 41 42 42 43 45 47 47 48 49 50 50 50 51 53 54 52 53 55 56
67 62 57 53 53 51 52 52 51 48 46 44 46 49 46 41 42 41 42 40 40 39 40 40 42 44 45 46 47 49 49 49 50 51 51 52 53 54 56 57 55 56 58
72 70 65 57 52 53 52 52 50 50 46 44 47 46 44 44 41 41 40 40 38 37 39 42 44 46 48 49 49 49 48 48 49 50 51 52 53 55 57 59 60 62 63
68 68 68 64 57 53 53 50 49 49 45 45 46 43 43 44 42 40 39 37 37 38 40 42 44 46 47 48 47 47 47 47 48 50 51 53 54 56 58 61 66 68 67
54 67 66 65 57 54 52 50 49 46 44 45 44 42 42 42 42 40 39 36 38 40 41 43 44 45 45 45 45 46 47 48 50 51 52 53 55 58 61 66 69 71 72
49 61 64 58 55 53 51 50 49 48 46 44 42 43 43 42 42 40 39 37 39 40 41 42 41 41 42 44 46 47 49 51 51 51 53 56 58 62 66 68 70 72 73
40 46 46 50 52 51 49 49 49 47 44 42 42 43 42 41 41 39 39 39 39 40 41 41 41 42 44 46 47 48 50 51 51 53 56 59 63 66 68 70 70 72 75
41 46 47 46 47 49 46 46 46 46 43 44 44 43 42 41 39 39 39 39 39 40 41 42 43 45 46 46 46 49 51 51 53 57 60 63 65 67 68 70 72 75 76
42 40 44 44 45 46 44 43 43 43 43 44 43 43 41 39 38 38 38 38 38 39 41 44 44 45 45 44 49 51 51 53 56 60 63 66 67 68 70 73 74 75 77
36 36 41 42 43 45 43 40 42 42 42 42 41 42 40 37 37 36 36 36 37 40 42 43 45 46 43 49 52 51 54 57 60 63 64 66 68 69 71 73 75 78 82
35 34 37 41 36 41 41 39 40 40 39 39 39 39 36 36 35 35 35 36 37 41 43 46 46 44 46 51 51 54 57 59 61 63 65 67 69 70 71 75 79 83 87
31 32 35 38 30 34 40 41 39 37 36 36 35 32 34 34 35 34 36 49 35 44 45 44 46 45 50 52 55 57 59 60 62 63 66 68 69 72 76 80 84 90 95
27 29 32 33 29 31 36 37 35 34 32 29 33 39 30 34 33 36 40 38 41 44 43 42 44 48 51 54 56 58 59 61 63 65 66 68 73 77 80 85 89 94 103
23 27 28 29 27 28 30 30 29 29 29 28 30 31 32 33 36 40 39 35 39 40 40 43 48 51 51 55 56 58 60 62 63 64 68 73 77 81 85 88 95 103 101
23 25 26 24 24 24 22 20 20 31 29 28 33 31 35 37 35 40 37 37 36 39 43 46 48 50 52 54 56 58 60 61 63 67 72 76 81 84 89 97 102 98 82
23 22 21 21 21 19 18 20 23 26 23 33 30 32 35 38 32 32 35 35 38 42 44 46 47 50 53 55 57 58 58 62 67 72 76 81 84 89 97 100 93 74 56
21 23 23 27 33 22 24 28 30 31 32 35 38 36 31 29 28 30 34 37 39 42 43 45 49 51 53 54 55 57 62 66 70 76 79 83 90 97 99 87 69 53 48
19 21 23 24 24 26 27 28 29 28 26 22 18 20 22 25 29 31 34 37 39 40 44 48 50 51 51 52 56 61 65 70 75 78 83 90 96 96 81 64 49 46 44
10 7 11 18 18 15 13 11 10 11 14 16 18 20 23 26 29 32 34 36 39 43 45 47 48 49 52 56 60 64 70 73 77 85 91 94 90 73 57 44 43 41 37
5 4 3 3 3 5 7 9 11 13 14 16 18 21 25 28 31 33 35 38 40 43 44 45 47 51 55 59 64 68 72 77 86 92 92 82 65 50 40 40 39 34 33
2 3 5 5 5 4 5 9 13 12 15 18 22 26 29 31 32 34 37 39 42 43 43 46 51 54 58 63 67 72 75 84 91 90 76 59 43 36 36 34 31 29 31
1 1 1 3 5 7 7 9 12 16 19 23 27 29 30 32 34 35 38 40 39 41 46 50 54 58 62 67 71 76 84 91 87 72 54 38 32 30 29 29 29 31 34

GFSMW_500_spd_018.txt.gz
Wind_Speed
38 35 34 34 41 42 43 43 39 33 33 32 36 37 41 43 42 38 35 36 37 36 35 35 38 39 38 39 38 39 39 39 38 39 40 41 43 44 42 41 41 42 44
42 42 39 37 37 41 46 46 46 42 37 37 36 39 40 40 41 41 41 37 37 37 37 36 39 39 39 40 40 40 40 40 41 42 44 43 44 46 46 46 44 45 45
46 46 46 44 40 41 42 47 50 48 48 44 40 38 39 40 41 40 42 42 41 39 39 38 39 40 39 40 40 39 40 42 44 46 47 48 49 47 47 48 48 47 48
51 51 51 50 48 44 45 47 48 52 53 50 44 42 40 41 45 43 41 40 41 38 39 39 40 41 40 40 41 42 42 43 44 47 49 50 50 50 48 49 48 49 50
59 60 58 57 54 52 49 47 48 48 52 52 48 46 43 42 45 46 42 39 39 37 38 39 40 40 41 42 42 42 44 46 47 49 50 52 51 50 49 47 49 50 53
70 69 67 64 61 57 55 51 49 47 48 48 49 49 47 43 47 44 44 40 41 38 37 39 41 40 40 41 43 44 46 49 50 51 51 50 50 49 49 49 49 51 52
67 69 70 69 66 62 61 58 54 49 46 47 47 49 47 45 46 45 45 41 40 39 38 38 41 40 41 42 43 45 46 48 49 48 48 48 48 50 52 54 55 55 52
62 69 70 72 71 66 61 64 61 54 48 47 46 47 49 44 44 45 44 41 41 39 38 39 40 41 42 43 45 45 46 46 45 47 49 50 51 53 54 56 57 56 57
64 66 65 66 67 66 63 58 65 57 49 47 48 49 48 45 45 44 42 41 41 38 40 40 40 41 42 43 44 45 45 45 47 49 50 51 53 54 55 56 58 63 65
55 53 51 56 54 55 55 56 59 63 53 48 49 48 43 46 45 42 41 41 39 39 39 39 39 40 41 42 43 44 46 49 51 51 51 53 54 55 56 59 63 65 68
48 47 40 44 52 53 50 52 61 65 57 47 47 46 45 44 42 41 40 38 39 39 37 37 38 40 41 42 43 44 47 50 51 51 55 54 55 58 61 63 66 66 68
44 43 40 41 51 53 52 60 64 61 54 46 45 48 44 43 41 40 39 37 38 38 36 38 38 38 40 41 43 45 50 49 50 55 55 56 59 62 64 65 65 67 68
44 43 38 43 46 54 54 55 59 55 47 45 44 46 44 42 39 38 37 37 37 37 37 38 38 39 39 40 43 48 53 50 54 55 57 60 62 64 65 66 66 67 68
32 32 31 29 33 45 51 51 47 41 39 42 44 44 42 40 38 37 37 36 37 37 38 38 39 38 39 40 48 51 53 54 56 59 61 63 64 65 65 65 66 69 73
27 26 20 26 27 32 38 40 37 36 39 40 41 40 39 37 35 35 34 34 35 37 38 40 45 46 43 48 47 50 53 56 59 60 62 63 64 64 64 66 70 73 77
11 15 17 20 26 26 35 36 37 35 34 36 36 34 32 32 34 32 30 32 32 35 39 41 42 45 44 46 46 51 57 59 59 60 62 62 63 64 67 71 74 80 84
8 12 19 17 22 24 34 35 33 30 30 28 29 29 31 31 35 28 29 29 33 34 39 40 43 43 43 46 51 56 56 58 59 60 60 61 63 67 70 74 78 83 90
12 14 16 23 19 27 31 29 27 27 26 26 26 28 32 35 29 23 34 32 32 39 43 37 37 41 46 51 52 54 56 58 58 59 60 63 66 70 74 77 83 91 97
17 20 23 21 18 20 21 23 24 25 26 26 31 30 29 25 30 23 35 39 39 38 37 39 41 46 48 51 52 54 55 56 57 60 63 66 71 75 80 85 92 98 101
18 19 20 18 17 17 15 13 16 19 23 31 27 28 39 25 25 32 36 30 32 32 37 41 44 47 49 50 51 53 54 54 59 63 67 72 77 81 86 93 97 97 80
13 16 17 17 16 13 12 12 14 15 18 26 32 29 35 31 30 26 27 28 32 37 39 42 45 47 49 51 51 51 55 58 61 66 71 76 80 86 95 97 91 70 53
7 10 11 18 21 18 24 24 25 23 18 22 21 21 24 23 23 24 28 31 35 39 42 43 45 46 47 47 50 54 58 61 65 69 75 79 86 94 94 81 61 45 43
5 4 7 4 6 4 9 12 7 12 17 14 15 16 16 19 22 26 32 36 39 40 41 43 44 45 46 50 53 57 61 64 68 74 81 88 92 90 72 53 39 38 37
8 9 9 5 1 2 2 4 8 8 11 12 13 15 18 23 29 33 35 37 38 39 40 42 42 45 49 52 56 60 64 68 73 80 90 89 84 65 44 34 33 34 34
6 4 3 3 1 1 1 3 5 10 10 11 14 20 25 29 31 33 34 36 38 40 40 41 44 47 51 55 59 61 67 73 80 89 89 80 59 38 29 30 31 30 32
1 3 0 4 1 2 4 4 5 8 12 17 21 25 27 29 31 33 35 37 38 38 40 44 47 51 55 58 62 69 76 81 88 91 75 53 31 24 25 26 28 30 34

GFSMW_500_spd_021.txt.gz
Wind_Speed
39 38 37 37 37 37 41 43 42 39 35 32 34 33 34 34 32 30 33 35 35 31 32 33 33 35 34 34 35 36 37 36 36 37 36 37 39 41 42 42 43 44 44
43 43 42 42 41 40 40 42 44 42 38 37 35 40 37 37 34 32 33 33 35 35 36 36 36 36 38 37 37 38 38 38 38 38 37 38 41 43 45 45 47 47 47
45 45 46 45 44 43 43 42 44 45 42 41 43 44 42 37 36 33 37 38 37 34 33 34 37 38 40 38 38 38 39 39 40 41 40 41 41 43 46 48 50 50 50
44 44 46 47 49 48 46 46 46 46 44 41 45 46 46 44 42 39 40 41 40 36 35 36 34 36 37 38 38 38 39 41 41 41 42 43 45 46 47 50 51 50 49
49 51 52 53 53 53 52 50 50 50 49 45 44 47 48 49 48 44 43 41 43 37 37 38 35 35 35 38 37 38 40 41 42 43 44 45 46 48 47 47 47 47 48
57 59 60 60 61 61 60 60 57 55 53 50 47 48 45 46 48 48 49 43 45 39 38 38 36 36 36 38 38 40 41 42 43 43 44 45 47 48 47 46 46 46 48
51 53 54 55 58 62 64 66 65 62 61 56 51 48 44 46 47 50 51 46 46 41 38 38 39 38 37 39 38 40 41 42 43 44 44 45 47 48 50 52 52 51 49
58 57 56 54 55 60 63 60 65 64 63 62 57 50 46 46 47 48 48 46 45 42 39 40 41 41 39 38 37 40 41 42 42 43 44 46 49 51 53 54 55 54 53
57 60 55 50 50 51 60 57 61 64 64 61 61 55 49 49 47 46 47 46 43 42 40 41 42 42 40 37 37 40 42 43 43 43 46 48 51 53 54 56 57 57 55
58 57 53 46 41 45 50 55 61 60 60 61 58 57 52 51 47 46 47 45 43 42 41 41 41 41 38 37 38 41 42 43 43 45 48 50 53 54 56 58 56 59 61
56 59 55 41 35 40 48 53 58 57 54 56 58 55 55 50 48 47 47 41 44 43 40 39 40 38 37 37 38 41 43 43 44 46 49 54 56 56 58 57 61 63 65
58 52 42 32 31 37 41 41 54 58 56 54 53 53 54 50 47 48 42 41 42 40 39 38 38 37 37 37 39 41 43 42 45 50 54 57 59 57 58 62 63 64 65
48 39 31 32 35 36 40 38 39 51 53 51 51 52 51 48 46 44 41 41 39 37 36 39 37 37 36 38 40 42 43 44 50 55 56 58 59 61 62 63 64 65 66
39 38 35 32 31 27 30 33 29 43 48 44 45 48 49 45 45 41 39 38 37 35 36 35 35 35 37 38 41 44 49 51 56 55 55 59 63 63 63 63 64 64 65
20 19 19 15 18 20 20 25 27 37 39 39 42 47 47 43 40 37 36 35 34 34 34 33 33 34 38 41 44 46 49 52 52 55 58 61 61 63 63 64 64 66 69
10 8 12 12 11 12 18 16 31 28 33 36 42 41 37 37 32 33 34 27 36 32 32 31 33 36 38 43 44 48 48 51 55 58 58 60 62 62 63 64 67 70 75
16 12 9 4 4 7 2 8 26 26 27 30 32 32 29 28 30 30 31 40 37 32 31 31 31 38 46 47 45 46 50 53 56 56 58 60 61 61 64 66 70 74 79
13 15 14 12 15 19 16 16 26 26 28 27 26 27 26 26 32 29 32 39 41 36 41 33 38 42 42 41 44 48 52 54 55 57 59 59 61 64 66 69 73 78 85
13 12 13 13 18 13 14 21 23 24 21 20 21 19 20 24 31 31 30 27 32 40 35 40 39 36 41 45 47 49 52 54 56 58 58 61 63 66 69 73 78 85 94
12 11 12 15 14 13 14 16 22 16 21 14 15 20 23 15 20 26 32 29 28 30 27 30 34 38 43 46 48 51 53 55 54 57 60 63 66 70 75 80 86 93 97
11 9 11 17 15 16 17 17 13 12 12 16 18 26 18 16 18 21 28 28 24 25 29 33 38 42 46 49 51 52 51 52 55 58 63 66 70 76 83 88 94 93 73
13 9 8 8 8 6 7 11 17 13 11 13 9 15 29 20 16 16 17 20 25 30 35 40 43 46 48 48 48 48 51 55 58 62 67 72 77 82 89 95 87 62 39
9 6 4 2 5 1 4 13 3 7 2 7 6 6 8 10 12 17 23 28 33 36 40 42 44 44 45 45 48 52 55 59 62 66 72 77 82 89 94 78 50 31 32
8 11 14 10 4 8 6 4 4 1 1 2 4 5 7 11 17 24 29 32 35 37 39 40 42 43 45 49 52 55 59 62 66 72 78 84 89 90 65 37 28 28 29
4 6 9 7 6 5 3 2 1 2 4 5 9 12 16 21 26 30 32 33 35 36 39 40 41 44 49 52 55 59 61 65 71 77 82 88 84 57 29 24 25 26 28
2 3 6 2 3 2 2 2 4 7 9 10 14 19 23 26 28 30 32 34 36 37 38 41 45 48 52 55 59 62 67 71 75 80 84 77 45 20 21 22 25 25 28

GFSMW_500_spd_024.txt.gz
Wind_Speed
38 39 39 38 39 40 41 40 39 37 37 38 37 37 36 34 32 31 29 27 30 31 33 34 35 34 34 34 35 36 36 37 37 37 37 37 37 38 37 37 39 41 43
42 43 42 42 42 43 43 44 44 42 40 41 41 41 43 40 38 34 32 30 31 32 31 32 32 31 33 36 38 38 37 37 38 38 37 37 38 39 40 40 40 41 44
44 44 44 44 44 44 44 45 45 45 46 44 43 45 45 45 40 36 33 33 37 38 35 33 33 31 31 34 36 36 37 38 37 37 38 39 40 40 40 42 43 46 47
41 41 43 45 45 45 46 46 46 48 49 49 47 44 46 46 46 45 42 42 40 38 37 36 36 35 34 34 35 34 35 37 38 37 38 39 40 41 41 43 45 46 47
40 41 42 44 46 48 48 47 47 48 50 51 51 48 45 44 47 49 48 47 48 44 42 39 37 37 38 36 34 35 35 37 38 39 39 40 40 42 43 44 45 45 46
45 47 48 50 52 54 56 57 57 55 54 54 54 54 51 47 44 47 51 51 51 50 45 45 41 40 40 39 36 36 37 38 39 40 41 41 42 43 44 44 45 46 48
49 52 54 55 56 58 60 62 62 64 63 61 59 59 57 54 48 46 48 51 50 49 47 47 46 42 41 41 40 39 39 38 39 40 41 43 44 45 46 46 48 48 49
48 49 50 52 55 57 58 58 60 61 62 61 65 66 63 61 55 51 50 50 49 48 49 47 46 44 42 43 42 41 41 40 41 42 43 44 45 46 47 49 50 51 52
44 48 51 53 53 54 57 61 63 66 67 65 62 63 68 67 63 55 54 53 50 48 48 46 45 45 42 43 43 43 41 40 42 43 44 45 46 48 49 52 54 56 57
43 51 57 60 60 60 60 58 59 63 63 65 60 60 61 66 63 60 57 55 51 47 49 44 44 44 42 42 43 43 41 41 42 43 45 46 48 51 53 55 58 60 61
54 60 56 55 53 55 54 52 56 60 62 61 59 57 57 62 60 63 61 57 53 48 47 43 44 44 40 42 44 42 41 42 42 44 45 48 51 54 56 60 64 62 62
54 51 51 49 46 45 39 42 47 52 57 59 55 52 57 59 63 60 61 56 50 48 44 43 43 43 40 39 42 37 48 43 42 41 45 49 53 60 63 64 62 64 67
47 49 43 46 44 33 26 31 38 43 47 49 52 54 60 60 62 61 57 52 49 46 43 41 41 41 39 38 40 43 43 43 44 48 50 54 59 61 63 60 63 67 67
46 35 33 30 29 27 32 35 37 38 41 47 50 50 54 59 61 56 52 50 46 44 40 39 41 33 40 41 41 40 42 44 48 51 54 56 58 59 61 64 66 67 68
35 29 20 13 11 20 27 30 31 30 33 36 36 41 48 51 55 50 47 42 40 40 40 39 45 39 39 47 43 42 44 46 50 57 55 54 58 61 63 64 65 66 66
26 24 18 8 5 10 18 21 22 25 30 31 33 37 39 40 41 42 39 37 38 38 35 35 40 37 40 41 46 45 45 53 56 51 52 57 60 61 63 64 65 66 70
21 21 18 13 8 3 4 6 9 17 27 29 25 28 34 33 38 38 35 36 32 35 41 46 43 36 37 38 44 50 51 53 48 52 56 58 59 61 61 62 66 69 73
19 20 13 15 16 13 7 9 7 9 27 23 19 23 28 33 34 33 34 36 28 37 36 37 39 40 44 45 46 46 46 49 51 54 56 57 57 58 62 66 68 72 76
18 22 12 16 13 14 13 18 15 14 16 21 21 22 23 24 26 26 30 30 28 28 38 38 40 41 42 41 40 44 47 50 52 54 54 55 58 63 65 68 71 76 82
18 17 16 16 16 16 14 14 14 15 20 18 14 16 14 16 20 25 23 25 28 33 30 30 32 30 33 38 44 46 49 50 51 54 55 59 62 64 69 73 76 82 88
14 14 14 18 13 10 12 11 10 5 10 16 4 14 10 20 9 8 21 20 22 20 22 24 27 33 38 41 44 46 48 51 52 54 58 61 65 68 73 78 82 86 91
11 11 11 10 9 9 8 5 2 7 7 9 8 5 9 14 17 14 16 20 16 20 24 30 33 36 39 43 46 48 49 50 53 56 60 64 68 72 78 81 85 87 70
14 13 7 7 9 12 7 10 8 11 9 7 1 1 3 4 4 7 11 15 21 26 29 33 35 39 42 45 45 48 51 54 57 60 64 68 72 76 80 84 81 59 32
7 7 9 9 9 9 10 10 9 8 6 4 2 1 3 5 9 15 20 24 27 30 33 37 39 41 42 44 47 50 54 58 62 65 69 73 75 79 83 73 47 27 28
5 3 3 3 3 4 4 5 4 2 3 3 4 7 9 13 18 22 25 27 30 33 35 37 37 40 43 47 51 55 58 62 66 70 74 77 80 81 64 36 24 24 27
5 5 1 1 4 4 4 3 5 7 7 9 12 15 18 20 22 24 26 29 31 33 34 36 40 43 47 51 56 61 65 69 72 75 78 81 77 53 26 23 22 25 27

GFSMW_500_spd_027.txt.gz
Wind_Speed
39 41 43 41 39 39 40 42 44 43 41 40 39 40 38 36 38 37 34 32 30 30 31 33 35 36 35 35 35 36 37 37 38 38 38 37 37 37 37 36 35 36 37
41 41 44 45 43 42 42 43 45 47 46 43 41 41 41 43 42 40 38 34 33 34 35 35 36 35 33 32 33 34 35 34 34 36 37 37 37 38 37 37 37 38 40
39 41 43 45 46 44 44 44 46 49 50 49 46 45 45 44 44 43 40 37 37 40 42 39 38 37 35 34 35 37 36 35 35 35 35 36 36 37 38 39 39 40 40
38 39 41 43 44 47 48 48 47 49 51 53 53 50 47 46 43 43 47 46 43 44 43 42 39 37 37 37 36 38 38 37 37 37 37 38 38 38 40 40 41 43 43
39 39 41 42 44 46 48 49 49 49 49 52 53 53 51 49 48 46 43 49 49 48 47 47 45 43 41 42 38 39 40 40 39 39 39 39 39 39 41 43 44 45 44
38 40 41 43 45 47 49 51 51 52 52 51 52 54 55 53 51 48 45 46 48 50 51 50 49 49 47 47 46 41 41 41 42 41 41 41 41 40 42 43 46 47 47
41 43 46 49 51 53 56 57 58 59 59 60 59 59 59 57 55 54 51 48 48 49 48 49 49 49 48 46 49 46 43 44 43 42 42 43 44 43 44 45 47 48 48
44 47 50 52 54 56 59 62 63 65 66 66 66 67 66 65 63 62 58 54 51 48 49 49 48 48 48 48 48 47 45 45 45 43 44 44 44 44 46 47 49 50 51
43 46 48 51 54 57 58 60 62 65 67 68 68 68 69 70 71 70 68 62 57 55 50 50 49 49 48 49 47 47 46 45 46 45 44 44 44 46 47 49 50 52 54
41 43 46 49 53 56 60 63 65 66 68 69 70 70 68 67 69 69 70 69 63 56 54 53 50 49 48 48 47 47 45 45 47 44 45 42 44 47 48 49 52 55 58
38 44 46 51 53 55 59 61 62 60 63 70 70 68 69 69 70 68 65 64 63 58 58 57 52 50 49 47 47 47 45 47 43 52 54 43 46 49 50 54 57 61 65
41 44 45 47 49 56 60 59 57 53 54 60 64 67 64 67 70 71 68 64 60 60 58 58 57 53 49 49 48 47 46 45 51 46 42 49 48 51 54 57 62 62 62
38 37 42 47 56 51 50 48 45 48 49 50 60 62 61 63 63 62 62 61 59 59 58 56 58 56 49 48 49 47 43 49 48 45 48 51 51 54 56 59 64 65 62
31 32 36 36 43 37 37 35 36 37 40 45 48 53 54 58 58 59 60 59 58 59 54 54 53 49 48 48 47 48 49 49 50 50 45 49 55 55 58 64 64 64 66
25 28 28 26 29 31 22 23 24 32 35 35 36 36 39 41 49 54 53 52 56 56 51 51 48 48 45 47 47 49 33 40 55 51 51 55 58 62 62 61 64 66 67
19 24 21 26 30 29 22 22 22 25 27 26 28 38 36 38 42 48 51 51 55 53 47 46 46 45 44 47 42 44 38 45 50 50 52 59 60 62 61 62 65 66 67
19 23 21 26 30 25 21 23 21 17 19 22 19 24 28 33 35 40 43 47 49 45 42 42 46 43 46 42 41 51 56 53 53 53 57 55 57 59 62 64 64 64 67
20 22 20 22 23 22 21 21 16 5 7 10 13 15 17 19 16 23 30 37 38 33 40 41 41 40 39 38 47 49 49 52 46 47 49 53 56 59 60 61 63 66 69
18 19 22 18 18 17 18 17 16 9 9 14 13 14 14 16 20 26 24 35 37 37 32 33 38 31 37 45 40 41 44 45 48 51 53 54 56 57 59 62 63 67 71
13 12 20 19 17 15 13 14 16 17 15 14 14 15 10 16 7 10 17 22 20 19 27 24 28 36 37 33 34 38 41 45 49 51 52 54 56 59 61 64 67 71 75
18 12 13 11 18 11 14 19 15 13 11 11 14 12 9 8 8 12 15 26 19 21 19 20 18 21 26 31 37 41 44 47 49 51 54 57 59 62 65 69 73 76 79
17 16 11 11 13 12 13 13 18 10 13 13 14 6 1 5 3 1 1 5 7 11 13 18 21 26 31 36 39 42 43 45 48 52 56 59 62 66 70 74 76 79 83
14 14 14 11 12 11 10 10 14 13 13 10 8 7 6 1 3 4 5 7 10 15 21 25 28 31 35 38 39 42 45 48 51 56 61 65 69 73 76 79 81 83 72
10 11 11 10 9 9 10 11 12 11 11 8 8 7 5 4 6 9 13 15 18 21 24 27 30 33 34 36 39 43 48 53 58 64 69 74 78 80 83 83 78 58 33
7 8 10 5 7 9 9 9 8 7 7 6 6 7 9 11 13 15 17 19 22 25 27 29 29 31 35 39 44 49 54 60 67 73 79 84 87 84 75 62 37 22 25
9 7 4 6 9 8 6 6 7 8 10 12 13 14 15 17 18 19 21 23 25 26 26 27 30 33 38 43 49 55 63 70 77 85 89 87 74 61 40 19 17 21 24

GFSMW_500_spd_030.txt.gz
Wind_Speed
43 44 44 44 43 42 42 41 42 42 42 42 42 42 41 39 38 38 40 37 35 35 35 33 32 33 33 34 34 35 33 34 34 33 33 33 33 33 33 33 33 34 35
44 43 45 47 46 45 45 44 44 46 47 44 43 43 45 44 43 43 43 41 37 38 37 37 37 37 37 34 34 33 32 34 35 35 35 35 34 33 33 33 34 35 35
45 46 47 48 49 48 46 47 47 48 50 49 47 47 46 45 45 44 42 41 42 42 42 41 42 43 41 38 36 36 37 37 38 38 37 37 35 35 35 35 36 37 38
42 43 45 47 47 47 48 49 49 48 50 52 51 48 47 47 47 47 46 46 46 46 47 45 47 45 44 41 39 40 37 38 39 39 40 39 38 38 37 39 38 38 39
41 42 43 45 47 46 46 46 50 52 51 53 54 54 52 48 48 48 48 47 48 47 47 47 50 48 47 46 43 43 44 42 43 42 41 42 42 42 41 40 40 40 40
41 42 43 43 44 45 45 47 48 50 54 55 57 59 60 59 57 52 50 49 49 50 49 47 50 50 50 49 48 47 48 48 46 44 46 44 45 45 44 43 43 42 43
39 40 41 43 44 46 49 50 52 53 55 57 58 59 60 60 60 59 57 54 52 51 51 49 49 48 49 50 49 48 47 46 46 46 48 44 45 48 47 45 45 45 44
37 40 42 44 46 49 52 55 58 60 63 64 65 66 67 65 63 62 61 59 55 53 53 52 51 49 47 48 48 46 46 45 45 47 56 40 43 49 49 46 47 45 48
37 39 43 46 47 50 53 55 58 62 66 68 70 72 72 73 73 71 69 67 65 58 56 56 54 53 52 48 48 47 46 47 46 46 53 44 47 49 50 46 47 46 50
31 34 38 41 44 46 48 51 54 57 61 66 69 72 74 75 75 75 75 74 71 67 60 58 57 56 47 56 51 49 47 47 47 48 49 53 50 53 46 51 54 50 53
30 32 33 38 41 41 42 46 50 53 60 65 67 71 73 74 75 75 75 74 72 69 67 63 60 57 55 58 56 52 48 47 48 50 49 54 47 51 52 53 52 51 52
37 37 37 34 33 36 38 41 45 50 59 63 68 70 68 70 73 75 75 74 73 69 66 64 65 60 57 58 57 55 52 48 48 52 52 53 57 53 51 52 53 60 59
29 31 31 31 30 33 35 43 49 51 54 48 50 54 60 61 63 67 70 70 70 69 67 63 61 60 59 58 58 56 53 51 52 52 52 59 58 53 59 58 55 58 60
26 25 26 29 26 35 39 45 48 48 46 42 37 40 38 47 51 59 58 59 64 64 63 62 59 55 56 57 56 54 51 44 57 52 58 57 57 49 49 50 56 62 64
25 24 25 27 27 32 34 39 45 42 39 33 31 34 39 43 53 53 54 49 51 53 51 52 56 54 54 52 51 49 49 53 54 60 45 55 53 53 60 60 62 65 67
21 21 25 22 26 27 34 35 38 40 35 26 24 28 24 21 21 19 26 35 45 44 47 46 49 51 48 47 45 48 51 54 55 53 50 56 57 59 60 60 61 65 66
18 19 22 20 23 25 28 29 31 29 28 21 14 17 20 24 24 22 22 20 26 35 36 37 40 42 42 44 42 50 53 53 49 49 59 59 57 57 56 56 59 63 65
19 16 21 23 23 22 25 26 25 21 20 18 12 2 12 19 24 21 20 21 25 31 35 36 37 40 38 39 50 46 52 44 43 53 57 50 51 52 56 59 61 61 64
20 19 18 18 20 19 24 29 18 22 20 14 13 13 10 9 14 14 12 17 21 29 25 30 42 39 40 40 36 50 53 50 44 43 44 47 50 55 59 60 61 63 67
17 19 20 15 20 17 21 21 11 19 16 19 12 14 11 7 6 3 10 13 10 15 20 22 25 26 34 35 32 27 32 35 39 41 44 48 51 54 57 60 64 67 72
19 16 19 16 13 17 11 23 13 17 15 19 15 15 12 14 13 7 3 4 9 13 17 20 16 18 22 20 25 31 34 36 39 42 46 50 53 58 63 67 72 76 80
18 16 17 17 15 14 10 16 12 16 13 15 16 15 15 11 11 12 9 4 8 6 5 7 11 15 19 24 28 31 34 37 40 44 48 53 58 65 71 76 81 86 87
14 15 13 14 12 12 11 12 11 13 14 13 13 14 13 12 12 11 8 4 5 8 10 14 17 20 24 28 31 33 35 38 42 47 53 60 67 73 78 82 81 77 68
13 14 12 11 8 8 9 9 10 10 11 11 11 11 10 10 10 10 11 12 13 14 17 19 22 24 26 27 30 33 37 42 47 55 61 68 74 78 76 76 69 53 34
13 10 10 8 9 9 6 6 7 8 9 10 11 11 11 11 12 12 13 15 17 19 20 21 22 24 26 28 32 36 42 48 55 63 68 73 72 67 69 55 36 18 17
13 12 11 11 12 10 6 4 5 8 9 12 13 13 15 16 16 16 17 19 20 19 19 20 22 25 29 33 37 43 49 55 62 66 68 62 59 58 40 23 17 18 20

GFSMW_500_spd_033.txt.gz
Wind_Speed
42 42 41 41 41 41 40 42 42 41 43 44 46 45 45 45 46 43 42 44 42 40 39 37 37 34 34 35 35 33 35 33 32 31 31 31 31 31 32 31 30 29 29
44 44 44 44 44 44 43 43 45 45 44 45 45 46 47 47 48 48 46 45 44 42 41 41 40 39 38 38 38 37 35 33 34 33 34 32 33 34 34 35 34 33 32
45 45 45 45 45 46 46 44 44 46 48 48 48 47 47 48 49 49 47 48 47 47 46 45 43 43 43 42 43 41 39 38 37 37 37 35 35 37 37 38 38 37 36
43 44 44 45 46 46 46 46 46 46 47 50 51 51 51 49 48 49 50 50 50 50 50 49 47 47 47 46 46 45 42 41 41 40 38 38 37 38 39 39 40 40 39
41 42 43 44 45 45 46 45 45 46 49 51 51 52 52 53 53 51 52 53 55 54 53 53 51 49 51 51 49 49 46 45 48 46 43 42 44 44 44 44 43 42 42
39 40 40 40 42 44 44 45 46 46 48 50 52 53 53 53 54 55 57 56 57 59 57 56 54 52 51 52 50 51 51 49 49 46 45 44 47 47 47 48 47 44 43
37 37 38 39 39 41 43 44 45 47 48 49 51 52 54 56 56 56 57 59 58 59 59 58 57 55 53 54 52 52 52 51 50 49 46 46 45 46 48 48 46 42 44
33 35 37 38 38 39 41 44 46 49 52 55 57 59 60 62 62 63 63 62 62 60 60 61 61 60 57 56 55 54 52 51 49 46 46 45 45 45 48 47 47 46 49
31 31 34 36 38 40 42 44 46 49 52 54 56 58 61 64 66 68 70 71 69 66 64 62 62 61 59 58 57 55 53 52 52 49 46 46 46 47 49 49 49 53 50
31 30 31 32 33 35 36 39 43 46 49 51 52 54 59 63 65 67 69 71 74 74 72 68 64 61 60 58 57 56 54 52 59 52 48 46 47 48 49 51 54 54 53
26 29 33 34 37 41 42 41 41 40 41 45 49 55 58 61 65 69 70 71 75 74 75 73 71 67 61 60 60 59 57 52 48 48 51 50 50 50 54 53 50 56 55
27 31 31 29 29 32 34 37 34 37 41 45 49 54 55 64 68 67 69 73 75 76 73 73 72 68 68 66 63 59 59 57 63 59 54 53 54 54 63 54 51 56 50
25 26 26 30 33 30 33 34 36 43 43 47 56 56 61 58 57 54 55 59 60 64 67 70 67 64 65 62 60 60 61 61 60 59 55 52 53 59 59 59 54 60 61
21 24 26 24 24 28 29 32 36 35 42 41 53 58 55 51 42 42 45 46 46 44 50 58 60 61 59 59 56 56 55 56 56 53 54 54 55 57 67 60 58 60 58
21 22 18 20 23 20 23 24 24 32 36 39 45 53 36 25 25 25 37 38 36 38 36 40 46 52 52 52 53 52 51 48 46 49 51 53 60 60 62 62 62 62 68
15 14 14 16 14 14 19 20 28 28 27 29 34 42 16 12 17 17 23 25 31 35 32 29 35 39 41 43 44 47 52 45 45 48 51 52 61 62 61 64 60 64 62
14 17 15 17 13 14 17 19 21 24 22 25 26 33 17 9 12 13 10 9 9 18 25 23 28 28 29 32 37 43 36 34 43 48 48 58 56 54 60 63 50 54 58
14 16 15 16 15 15 14 21 17 21 21 22 22 22 19 5 12 13 10 7 3 6 19 21 18 15 18 22 34 36 38 39 42 47 40 54 46 49 45 48 51 54 55
15 16 18 17 15 15 13 17 14 13 15 17 21 19 16 20 6 2 9 13 8 9 4 6 14 19 26 27 28 29 31 35 45 37 42 40 44 45 47 48 50 53 58
17 17 18 19 14 13 16 14 11 6 15 18 16 20 24 22 12 11 10 8 7 9 2 5 10 16 16 22 34 36 34 29 30 33 37 40 42 44 46 50 54 59 65
19 18 15 16 15 12 10 11 7 4 13 15 15 15 15 18 16 12 8 12 5 3 6 9 6 6 11 16 19 20 23 27 31 32 34 37 41 46 51 57 62 67 73
18 17 14 15 13 12 9 7 7 8 9 12 15 17 17 17 17 16 15 10 6 3 7 6 6 7 11 14 16 20 23 26 29 32 37 42 47 53 58 62 66 72 72
18 16 14 13 12 10 7 6 7 7 9 10 13 15 15 14 13 11 9 7 7 6 7 9 10 12 14 16 19 21 23 26 31 36 41 46 50 55 60 62 63 60 60
16 13 11 12 9 9 8 6 6 7 9 11 13 13 12 12 12 12 12 11 11 11 12 13 14 15 16 18 21 23 27 30 34 39 44 50 55 61 62 58 51 47 37
14 13 13 13 11 12 12 9 8 8 9 11 12 12 13 14 14 13 13 13 14 14 14 14 15 17 19 20 23 27 32 35 40 45 51 55 59 57 49 43 36 28 28
13 11 11 14 14 14 13 11 9 9 9 11 12 13 14 14 15 15 16 16 17 16 15 16 18 20 23 26 29 34 37 39 43 49 54 57 54 45 38 32 29 28 31

GFSMW_500_spd_036.txt.gz
Wind_Speed
40 39 38 38 37 37 38 38 38 38 39 41 42 44 45 45 46 46 46 49 47 46 45 43 43 43 43 42 41 39 39 37 37 37 35 34 31 31 31 31 31 31 32
42 41 40 40 39 40 39 40 41 41 41 41 43 45 47 49 48 48 48 49 50 50 50 48 48 48 46 45 44 42 42 40 40 38 38 35 34 33 35 35 34 34 35
43 42 42 43 42 42 43 43 44 44 43 43 43 45 48 49 49 49 49 50 52 52 52 53 53 52 51 48 47 46 46 45 44 42 42 40 39 38 37 37 36 36 37
43 44 44 44 44 44 44 44 44 45 44 44 45 45 46 48 50 51 52 53 55 56 55 54 56 56 54 52 49 49 49 49 48 46 44 46 44 41 40 38 38 39 41
42 42 42 42 43 43 43 44 43 42 42 43 45 46 47 48 50 52 53 54 56 58 59 57 56 58 56 55 52 52 53 53 53 50 49 50 48 46 48 44 42 42 44
40 40 39 38 39 40 41 41 41 41 41 42 44 45 46 48 49 51 52 53 53 56 61 63 61 60 61 59 57 56 56 55 55 51 49 48 46 46 45 45 43 44 45
33 33 34 35 37 38 40 41 42 42 42 42 44 46 48 49 51 51 52 54 55 56 56 60 65 66 65 64 64 61 59 58 56 54 54 54 55 52 52 48 46 47 48
29 31 33 34 35 37 39 39 40 41 42 44 46 49 52 54 56 57 59 60 61 62 63 63 62 63 67 70 67 65 63 62 60 59 58 57 55 53 51 49 47 49 47
29 30 31 32 32 33 34 37 39 41 42 44 46 48 50 52 55 57 59 61 63 64 66 67 67 67 65 65 68 67 65 63 62 61 60 57 55 54 51 50 48 49 52
27 29 29 29 32 33 34 36 40 42 45 49 50 51 52 52 52 54 57 60 64 66 67 67 67 67 68 67 66 66 66 64 63 61 58 58 57 56 58 55 46 52 52
26 28 30 31 32 35 37 37 39 43 44 45 47 49 48 50 54 57 63 66 69 71 72 70 70 68 67 67 67 66 66 64 63 61 57 54 56 48 51 46 48 57 60
24 26 28 32 33 33 33 35 35 36 38 42 44 46 49 51 52 58 63 66 71 72 74 72 70 69 68 66 63 65 63 63 62 62 60 59 59 59 68 59 59 62 59
23 26 25 25 27 28 28 29 31 35 37 40 42 42 45 49 56 67 68 61 66 62 61 59 59 57 59 65 60 59 62 64 63 62 62 62 59 57 60 56 60 61 61
23 23 23 23 24 27 27 28 28 28 27 28 31 33 38 46 55 56 40 37 44 41 42 47 50 53 49 51 53 52 53 56 58 59 62 62 59 56 61 58 60 62 64
16 18 18 21 19 21 19 18 17 21 21 22 24 27 32 34 41 34 25 25 25 27 32 33 33 38 40 39 42 42 43 43 46 50 53 50 52 48 51 50 59 62 63
16 18 19 20 18 18 18 20 18 21 20 16 19 21 25 27 31 23 26 27 23 25 27 26 33 31 35 29 26 28 30 35 39 40 44 49 48 48 52 58 59 60 66
16 16 16 16 18 17 18 18 19 19 16 17 19 19 21 20 24 23 22 26 20 17 15 19 17 16 15 15 18 22 28 31 31 36 35 39 43 46 50 50 56 62 52
12 12 16 18 17 19 23 20 15 14 15 17 15 16 20 19 19 19 16 18 16 14 7 9 16 15 14 13 14 15 22 25 26 33 40 38 45 46 49 44 48 50 49
13 15 16 18 20 20 17 16 20 14 12 15 18 15 15 18 15 17 14 10 9 7 12 2 6 9 17 13 16 25 21 20 29 32 36 37 43 42 45 43 44 46 50
11 14 16 18 19 19 17 16 15 16 17 15 13 14 14 17 13 13 13 9 12 12 8 5 3 13 13 12 14 20 21 23 29 31 31 33 35 37 41 42 45 50 54
11 13 15 15 17 16 14 16 15 11 11 11 12 11 14 16 17 19 16 11 10 15 8 7 6 4 3 4 7 11 17 19 20 23 27 31 31 35 40 44 49 54 59
11 13 15 14 14 15 14 13 12 10 9 9 10 12 15 17 17 16 14 13 12 13 11 10 8 7 7 8 10 13 16 19 21 23 27 31 35 40 45 49 53 57 60
12 13 13 12 13 14 13 13 13 11 9 8 11 13 15 16 16 16 14 12 11 12 11 11 11 11 11 11 12 15 18 21 24 28 32 36 40 44 49 54 56 61 60
14 13 13 12 12 12 13 12 12 11 9 10 12 14 15 15 16 16 15 15 15 15 14 13 13 13 14 16 18 20 22 26 30 34 37 39 43 48 53 55 60 56 47
15 15 14 12 12 14 14 15 13 12 12 12 14 15 16 16 16 16 15 16 16 16 15 15 15 17 18 20 23 25 27 32 36 38 40 43 46 52 56 62 54 43 38
17 16 17 14 12 13 14 15 15 14 14 14 16 16 17 17 17 16 16 17 16 15 15 17 18 20 22 25 27 30 33 36 39 41 45 46 50 55 61 55 39 34 34

GFSMW_500_spd_039.txt.gz
Wind_Speed
43 40 39 39 38 38 38 37 37 37 37 39 40 37 40 42 43 44 45 46 44 45 44 44 46 47 47 46 46 46 46 45 45 43 41 40 38 37 35 36 35 34 33
43 42 42 39 38 38 38 38 38 39 39 40 40 42 41 43 44 45 47 48 47 46 48 47 47 48 50 50 50 51 51 48 48 47 45 43 42 38 38 38 37 37 37
40 40 40 38 39 39 38 38 39 40 41 42 43 45 44 44 45 46 47 50 52 52 51 52 51 52 51 52 54 54 54 54 52 50 49 48 44 43 43 42 42 42 42
36 37 38 39 39 39 39 40 40 41 42 43 44 45 46 45 45 47 49 52 54 55 54 54 54 54 54 53 55 56 54 54 51 52 52 51 50 47 45 46 47 49 47
36 38 39 40 41 41 41 41 41 41 42 42 42 43 44 44 46 47 49 50 53 55 56 57 57 55 56 56 57 57 58 57 57 56 55 56 54 52 50 49 52 53 50
38 39 39 39 39 39 40 40 40 40 40 40 41 42 43 44 46 47 48 50 51 52 53 55 58 59 60 61 60 61 61 61 61 60 58 55 55 55 53 51 49 49 44
37 37 37 37 38 38 37 37 38 40 40 41 41 41 41 43 45 46 48 50 52 54 55 57 58 59 61 63 64 64 64 63 64 62 61 62 60 56 55 59 54 52 53
35 35 36 36 34 34 35 37 38 39 39 38 38 40 42 45 47 49 51 53 55 57 59 61 64 65 65 66 66 64 64 65 65 64 63 62 62 61 60 59 48 59 59
32 32 33 32 33 34 35 36 37 37 36 38 40 42 44 46 49 52 53 55 57 59 60 62 63 65 66 68 69 69 68 64 64 64 62 61 63 61 61 63 65 64 61
31 31 31 32 33 34 34 33 33 35 37 39 42 44 46 49 50 50 54 56 55 57 62 65 66 67 67 66 67 67 67 68 67 65 63 61 59 59 60 56 63 58 61
30 30 30 29 29 30 31 32 34 36 38 40 41 42 43 45 46 48 50 52 58 63 65 68 71 74 75 69 63 64 66 63 63 66 66 63 62 59 58 59 59 56 50
27 26 25 26 27 29 30 33 35 35 35 35 36 38 41 42 42 44 46 47 51 59 60 58 62 75 72 68 57 58 62 63 62 62 64 65 62 60 56 58 57 58 55
24 25 25 25 27 29 30 30 31 32 32 32 34 31 31 33 34 35 36 42 47 51 57 53 50 51 57 52 54 54 53 56 57 57 59 60 60 59 58 58 61 56 61
22 23 24 25 26 28 26 26 28 29 28 26 24 25 23 26 29 29 33 35 38 39 45 44 41 31 39 44 45 46 41 45 47 50 54 57 57 57 58 59 60 61 62
21 21 21 22 22 21 23 25 26 22 22 23 25 23 25 26 27 28 31 30 33 34 40 38 34 31 32 25 28 33 39 39 44 42 46 50 50 52 53 47 57 55 52
18 15 17 19 20 22 24 24 24 25 25 25 25 24 25 25 26 27 30 28 27 28 34 34 29 24 24 23 29 27 28 27 37 37 40 40 44 38 36 46 51 50 56
14 16 15 20 20 21 22 23 25 26 26 28 23 22 24 25 23 24 25 27 25 25 29 27 27 21 21 20 22 22 26 31 28 28 32 29 33 40 36 40 43 45 46
15 13 15 16 15 17 20 23 25 26 27 27 21 21 22 23 23 24 22 21 20 20 22 23 18 15 15 14 14 13 15 16 16 18 20 25 20 26 31 40 42 46 53
13 16 18 21 19 20 23 22 22 24 27 29 24 22 22 22 23 20 20 19 18 21 19 16 15 10 15 15 10 11 12 19 12 13 17 22 28 31 35 40 45 47 43
14 16 16 15 17 18 21 22 20 20 21 20 19 18 19 18 16 17 19 17 15 18 18 15 15 14 16 16 15 15 13 9 12 16 23 29 31 29 30 31 33 38 44
15 18 15 13 14 17 18 19 19 18 17 16 15 17 14 15 18 19 20 19 18 18 18 16 16 16 15 14 12 10 8 10 12 15 17 19 22 26 30 35 38 43 48
16 17 15 13 13 15 17 17 18 19 18 16 15 14 14 17 19 20 21 22 21 20 19 18 17 16 16 15 14 14 15 16 18 19 22 25 29 33 36 39 43 47 52
16 16 15 14 13 15 17 17 17 18 18 16 14 14 16 18 19 21 21 21 20 19 19 18 17 16 15 16 17 17 18 19 21 24 28 32 36 40 42 44 48 52 55
18 17 15 16 16 17 18 17 18 18 17 16 15 15 18 19 19 21 21 19 19 19 18 17 17 18 19 20 21 23 25 27 29 31 34 37 40 42 45 48 51 54 60
18 18 16 18 17 17 18 18 18 18 17 17 17 17 17 18 20 20 19 19 18 18 17 17 18 20 22 23 25 26 27 29 32 35 38 41 43 46 48 49 53 58 64
19 19 19 19 20 19 19 19 18 18 18 19 18 18 17 18 19 20 19 19 18 19 20 21 22 23 25 26 28 30 32 34 36 38 41 44 45 48 51 53 57 63 57

GFSMW_500_spd_042.txt.gz
Wind_Speed
41 43 42 37 36 37 37 37 36 36 35 35 36 36 33 37 38 39 41 41 41 39 42 42 43 43 43 41 43 43 44 46 47 47 46 46 44 42 40 40 39 38 37
41 42 38 38 39 39 37 38 38 39 38 38 37 39 37 35 39 41 41 44 46 46 45 44 45 45 45 47 46 47 48 49 50 51 51 50 48 45 45 43 42 42 40
39 39 37 38 39 39 38 38 38 39 38 39 38 39 41 40 38 42 45 46 48 49 48 49 47 48 48 49 49 49 49 48 50 51 52 53 50 49 48 47 46 45 44
35 34 35 36 36 36 36 38 38 38 38 38 39 40 42 43 42 40 44 47 49 51 52 52 52 51 50 52 50 50 52 53 53 55 53 53 53 49 49 49 49 49 48
32 32 32 32 31 32 34 35 36 37 37 39 40 41 42 42 43 43 44 46 48 49 51 53 54 55 55 53 54 56 55 54 56 56 55 56 55 54 54 54 52 53 51
33 32 31 32 33 33 35 35 36 36 37 39 39 39 40 42 43 44 46 47 48 49 48 49 53 54 56 58 58 59 59 59 57 57 57 57 58 57 56 56 56 55 53
38 38 36 36 36 37 37 37 37 38 38 38 38 40 41 42 44 44 45 45 46 47 49 52 53 55 58 60 62 64 64 65 63 61 61 61 60 59 58 59 57 56 57
33 35 36 37 37 37 37 37 37 37 37 38 39 40 41 40 41 42 44 45 46 48 51 53 56 58 60 61 63 65 66 69 69 68 65 62 62 62 60 58 59 60 57
33 34 36 37 37 37 36 36 36 36 37 38 40 39 39 39 40 42 44 46 47 49 48 50 53 54 57 59 63 66 67 69 69 68 69 66 63 63 61 59 57 56 56
34 35 36 37 36 35 35 35 35 37 38 37 36 37 39 39 40 42 41 41 43 43 45 47 49 52 57 61 66 68 68 69 70 68 67 67 64 62 62 61 58 55 54
34 33 34 34 33 33 34 35 35 34 34 34 36 37 38 39 37 37 40 40 38 40 43 43 48 54 58 61 63 62 59 61 65 65 65 62 60 58 59 59 59 59 57
32 32 32 32 32 33 33 31 30 31 33 34 36 37 33 32 33 35 34 34 32 36 36 43 45 52 58 61 59 52 52 50 56 56 61 57 55 57 60 59 59 59 60
30 30 30 31 31 30 28 27 28 30 32 33 31 29 30 32 29 29 30 32 36 37 39 39 39 44 52 50 46 42 40 44 44 46 48 53 53 52 54 54 55 57 57
28 27 26 26 26 25 26 27 29 30 27 26 27 28 29 29 29 31 31 32 33 36 36 32 36 39 41 38 34 36 34 34 34 37 40 40 48 48 47 50 49 53 55
24 24 24 22 22 24 26 27 24 23 23 26 27 27 29 31 30 31 30 28 30 35 33 30 34 33 33 34 34 34 34 34 32 30 31 35 43 46 45 43 45 46 47
22 21 21 19 19 19 20 20 20 23 25 26 26 26 28 31 29 28 28 30 33 32 28 29 28 30 30 30 31 33 33 31 29 25 23 31 34 34 38 43 39 39 40
20 21 19 19 18 16 17 19 21 23 25 27 29 31 31 30 28 25 26 29 29 30 28 28 24 24 23 24 24 24 26 24 23 21 24 25 21 24 27 33 36 35 39
19 16 18 18 18 17 18 19 21 23 25 27 27 27 29 30 28 26 26 27 25 23 24 25 21 24 23 25 24 22 21 20 20 19 14 15 12 16 19 24 21 24 29
16 15 16 17 18 20 22 18 19 23 22 23 24 23 24 24 22 22 21 21 22 24 25 24 24 22 22 22 22 21 17 18 14 11 10 10 11 17 21 24 28 28 29
16 15 15 14 18 19 16 15 17 19 21 21 20 20 19 19 18 18 19 21 23 25 24 23 22 22 21 22 20 18 18 17 16 14 16 21 19 19 20 23 25 29 32
14 17 15 15 16 17 14 13 17 19 21 21 20 19 20 18 17 19 20 21 23 24 22 21 20 20 19 18 18 18 17 17 18 19 19 21 21 23 26 29 32 35 38
14 17 15 13 15 15 13 14 16 18 20 20 20 19 20 18 18 19 20 22 23 21 20 19 19 18 17 18 19 20 20 20 21 21 22 23 26 29 32 35 38 40 42
17 17 15 12 14 15 15 15 16 18 19 20 19 20 19 19 19 19 20 22 22 20 18 18 18 18 19 20 21 22 23 24 25 27 28 30 33 35 37 40 42 44 47
18 18 17 15 16 15 17 16 16 18 20 22 21 20 20 20 20 19 20 21 20 20 19 18 19 20 21 22 24 26 28 29 31 32 33 35 37 39 41 43 44 47 49
19 19 18 17 17 17 17 17 17 18 19 20 21 22 22 21 21 20 20 21 21 20 19 20 21 22 23 25 26 28 30 31 31 33 35 38 41 42 42 44 48 50 54
22 22 21 18 18 19 18 18 19 20 21 20 20 22 23 22 22 22 22 22 22 21 20 22 23 24 25 27 29 31 32 33 34 37 39 41 42 42 44 47 49 53 59

GFSMW_500_spd_045.txt.gz
Wind_Speed
40 41 40 42 43 42 38 36 38 36 34 34 36 36 35 35 36 35 35 35 36 36 37 39 41 42 41 41 42 43 42 43 46 47 47 47 47 46 45 43 42 39 39
42 40 40 40 38 38 39 40 39 39 38 38 38 37 36 34 35 36 37 41 42 40 41 41 42 44 43 43 44 45 46 47 47 48 49 49 49 46 47 46 44 45 43
42 42 41 38 38 41 42 40 40 41 41 40 39 38 38 36 35 35 37 42 45 47 45 44 44 45 45 46 46 47 47 49 49 49 51 51 50 51 50 48 47 46 45
39 40 37 36 39 42 41 41 41 41 41 40 39 39 38 38 38 37 38 41 45 47 49 48 46 48 49 51 52 52 50 52 50 52 52 55 56 55 53 50 48 48 49
33 35 34 36 36 39 39 39 38 37 37 37 38 38 38 39 40 41 40 41 43 46 48 50 51 50 51 51 52 54 53 53 54 55 56 58 56 58 57 55 52 51 51
38 33 33 33 34 34 34 34 33 34 33 34 35 37 39 40 41 42 41 41 44 46 46 47 48 49 50 51 52 53 55 56 58 59 61 62 62 61 60 58 57 54 54
39 37 35 35 33 32 32 33 35 36 37 36 37 38 39 40 40 41 42 44 45 46 45 43 44 46 48 51 54 54 55 58 61 63 63 65 66 66 65 64 62 62 60
40 42 40 39 39 38 39 39 40 40 39 39 39 39 39 39 39 42 43 43 44 43 43 44 46 46 48 49 50 52 52 54 59 63 66 68 68 68 69 67 67 66 63
35 37 35 36 36 36 37 39 39 39 38 38 39 38 37 39 42 42 40 41 41 42 43 43 43 44 45 47 48 50 53 57 62 68 71 72 71 72 70 68 67 65 64
31 33 34 35 35 37 37 37 37 37 37 37 37 38 40 42 40 39 39 39 40 39 40 41 39 40 42 41 44 47 52 57 60 66 65 64 67 66 67 64 64 66 65
31 32 34 35 37 37 37 36 35 35 35 35 37 40 39 38 37 38 38 36 36 37 37 37 37 37 39 42 44 44 50 51 54 49 46 52 57 59 56 59 53 55 60
33 33 34 35 35 35 34 34 33 33 35 37 37 36 35 35 35 34 33 34 33 35 33 33 34 37 40 39 41 45 44 45 49 46 45 47 50 48 47 51 58 54 55
34 34 33 32 32 32 32 32 32 34 33 33 33 34 33 32 31 31 32 32 31 33 34 34 33 38 39 37 37 38 37 40 44 46 43 44 42 40 40 40 39 46 47
33 33 30 29 29 29 30 31 30 30 31 32 32 29 27 27 27 28 30 32 32 33 34 34 36 35 35 35 35 33 33 34 38 42 39 36 37 36 34 34 31 34 36
29 28 28 27 26 26 26 26 27 28 29 28 25 24 25 26 28 28 28 30 31 32 31 34 33 33 35 31 31 30 31 30 33 33 34 31 28 26 26 27 29 31 34
23 24 25 24 23 22 22 22 24 23 21 21 22 23 26 29 29 29 30 29 30 29 31 32 32 32 30 30 30 31 30 29 31 32 30 29 23 21 19 13 24 29 37
21 21 22 20 18 19 20 18 16 16 18 20 22 25 28 31 29 26 26 28 29 28 30 28 27 28 29 30 29 29 28 25 24 24 26 23 20 18 15 18 16 16 21
19 18 19 20 18 19 18 18 17 19 21 20 18 20 23 23 23 24 26 26 25 27 26 26 27 28 29 28 27 25 23 22 20 21 22 25 21 20 20 19 19 14 15
18 18 19 19 16 17 18 18 17 16 14 14 15 17 17 19 19 19 20 22 23 23 24 25 26 27 26 25 22 21 20 19 20 19 19 19 20 20 20 19 20 20 22
19 20 19 17 15 16 15 13 12 12 14 13 15 17 18 19 20 21 21 20 21 22 24 25 24 22 21 19 18 17 17 17 18 18 19 20 21 22 23 24 25 27 29
22 21 20 17 16 15 14 12 13 14 14 14 16 18 20 20 20 21 20 20 22 23 24 23 21 19 18 17 18 18 18 19 20 21 23 24 24 25 26 28 29 31 33
21 21 19 17 17 16 14 12 14 14 14 15 16 19 19 19 20 21 21 22 22 23 22 20 18 17 18 19 20 22 23 23 24 25 25 26 28 29 32 34 36 37 38
21 21 20 17 16 16 15 13 14 16 15 15 17 19 20 19 20 21 22 22 23 23 22 20 19 19 20 21 23 25 26 26 28 28 29 30 32 34 36 37 39 39 40
24 23 22 20 17 17 16 14 15 17 17 17 17 19 19 20 21 22 23 23 23 24 23 22 21 22 23 24 25 26 27 29 31 32 32 33 35 37 38 40 41 42 44
25 23 22 21 20 20 19 17 16 17 18 18 18 19 18 19 20 22 24 24 25 25 24 23 23 23 23 24 25 28 30 31 32 33 34 36 38 39 40 41 43 45 46
29 28 25 23 23 21 20 19 18 19 20 20 21 21 21 21 20 22 24 26 27 27 27 26 24 24 25 26 27 30 32 34 35 35 36 38 39 39 39 42 44 49 48

GFSMW_500_spd_048.txt.gz
Wind_Speed
44 43 44 44 44 43 40 37 35 35 36 36 34 33 34 35 34 35 34 35 35 36 37 37 37 38 40 42 43 43 43 43 44 46 45 46 47 47 47 47 46 45 45
47 44 44 44 43 40 39 38 40 42 41 39 37 36 37 37 38 39 39 38 38 38 39 39 39 41 43 44 45 45 45 45 46 46 48 47 48 47 50 52 51 48 48
44 45 44 44 44 44 44 45 46 44 43 43 42 39 39 39 39 41 42 42 41 41 42 43 43 43 44 43 46 47 48 48 48 49 51 51 51 53 53 54 55 54 54
46 45 45 44 43 43 44 45 45 44 44 43 42 41 41 41 41 40 40 40 42 45 46 48 48 47 44 46 48 49 48 49 48 50 51 52 52 53 55 56 58 58 58
46 47 45 42 42 42 44 44 44 44 44 44 43 42 42 41 40 39 38 40 43 45 46 48 49 49 49 49 49 49 48 49 50 51 51 46 56 57 58 58 60 63 62
47 47 43 43 39 40 41 41 41 41 41 42 41 40 39 38 38 39 40 42 43 44 45 46 48 49 50 50 49 49 49 50 51 53 52 53 55 56 59 61 62 69 66
47 48 42 38 40 39 39 39 39 39 39 38 36 36 37 37 39 41 42 43 43 43 44 46 45 44 45 47 48 49 50 50 50 52 51 54 56 59 62 66 68 69 57
44 47 42 43 41 38 37 36 36 35 35 35 37 39 41 44 44 43 43 43 42 44 46 46 44 44 45 47 47 47 48 47 46 47 50 52 57 61 60 65 69 71 73
36 51 48 40 40 43 45 42 43 42 42 41 42 43 44 44 43 43 42 42 45 46 46 45 45 46 45 45 45 42 42 42 44 46 48 53 53 55 60 61 57 59 64
34 38 46 46 44 45 46 48 47 45 44 47 47 45 43 42 41 41 42 44 44 44 44 44 44 42 41 38 38 37 40 41 42 46 46 46 49 52 53 52 53 55 61
31 33 35 39 42 43 43 43 44 45 44 43 42 41 39 38 39 41 42 41 42 42 42 41 39 38 34 34 35 37 39 42 43 44 43 45 47 49 50 46 50 54 53
36 32 31 32 34 36 37 38 39 40 39 38 36 35 36 37 38 38 39 39 39 38 37 36 33 33 33 36 39 37 38 41 43 41 41 43 44 43 44 45 48 41 40
31 39 36 32 33 35 35 35 36 36 34 33 33 34 34 35 35 36 35 34 34 34 33 33 32 33 34 35 37 37 40 41 39 40 39 39 41 41 45 44 40 36 32
32 32 34 36 36 35 33 32 30 30 30 30 31 32 33 34 33 30 30 29 30 31 32 33 34 34 33 36 37 38 39 37 39 40 38 36 37 36 36 34 32 28 22
32 33 33 32 33 31 28 27 27 27 27 28 29 30 31 30 29 28 26 28 31 32 32 31 31 33 34 35 35 35 35 36 37 37 36 33 32 31 30 28 29 28 20
27 30 30 29 28 27 26 25 24 24 24 25 26 27 25 24 25 27 29 32 34 34 30 29 30 32 34 32 32 33 34 33 33 33 31 30 30 28 28 26 26 26 22
22 25 26 26 25 24 23 22 20 20 21 21 20 20 21 23 24 27 29 31 32 30 29 31 31 32 31 31 31 32 32 32 29 27 25 25 26 25 25 24 24 23 21
21 22 23 22 22 22 21 20 19 22 22 20 19 19 18 17 18 21 23 25 27 27 27 28 29 29 30 30 29 29 28 26 25 22 22 22 22 23 23 23 23 23 23
21 21 21 22 21 20 20 19 21 22 22 17 14 16 15 14 16 19 20 22 24 25 26 27 27 28 29 27 25 24 23 23 22 22 21 22 24 25 25 26 26 27 28
20 22 21 21 22 20 19 19 20 21 18 13 13 14 14 14 17 19 21 22 23 24 24 25 27 28 27 24 23 22 22 21 21 23 24 25 25 26 27 29 30 32 33
22 20 21 21 23 21 19 19 19 19 15 14 13 13 14 16 18 18 20 21 22 23 25 26 27 26 24 22 21 21 22 22 23 24 26 27 29 30 30 31 33 35 36
24 24 24 24 25 22 19 18 18 17 16 14 13 14 15 17 18 18 20 20 22 23 24 25 26 25 23 22 21 22 23 23 24 25 26 28 29 30 31 34 36 37 38
23 23 23 23 23 23 20 18 18 19 17 15 15 16 17 18 18 20 22 21 22 23 24 25 25 25 25 24 24 24 24 24 25 26 28 30 32 33 34 36 38 39 39
26 26 23 22 23 23 21 20 20 20 20 18 17 18 19 18 19 21 22 22 23 24 25 26 26 26 26 26 25 24 25 26 28 30 31 32 33 35 37 38 39 39 39
19 30 28 26 25 26 25 23 23 22 22 22 21 20 21 21 21 22 22 21 23 25 27 28 28 28 27 27 26 27 28 30 32 32 32 33 35 37 38 39 41 40 42
21 19 30 28 27 28 28 26 25 25 25 25 24 23 23 24 25 26 28 29 29 29 30 32 32 31 29 29 29 30 31 32 32 33 34 35 37 38 40 40 41 42 44

GFSMW_500_spd_051.txt.gz
Wind_Speed
47 48 50 49 46 43 42 43 43 41 41 41 39 38 37 35 34 33 33 34 35 36 36 36 38 39 38 39 41 43 44 45 45 45 43 43 45 45 47 49 50 50 50
41 45 48 48 47 44 42 42 42 41 42 42 40 38 37 35 35 35 36 37 38 38 39 39 39 40 41 42 44 46 47 47 47 47 49 47 47 46 48 50 52 52 52
36 41 46 47 47 46 44 44 44 43 43 43 41 39 39 39 40 40 40 41 40 41 40 40 41 41 43 45 46 47 47 48 48 49 50 50 49 48 48 50 50 53 50
37 37 39 44 47 46 46 46 45 43 43 43 45 45 45 43 41 41 42 44 45 44 42 41 42 45 47 49 48 47 47 49 49 49 48 49 50 50 49 49 51 51 51
45 42 43 44 45 47 46 46 49 50 50 48 47 45 45 45 44 44 45 45 46 45 44 45 47 49 51 51 49 48 50 49 48 48 50 51 52 51 51 47 48 52 54
44 42 44 44 45 45 46 47 48 48 47 47 46 46 47 46 45 45 45 45 44 43 45 47 48 50 51 49 49 51 52 51 49 51 51 50 49 47 48 50 51 54 57
46 44 42 44 46 45 46 44 44 45 46 46 45 44 44 44 44 43 40 40 41 44 46 48 49 49 48 48 50 51 50 50 51 51 49 46 46 47 49 51 52 53 54
48 49 50 46 46 46 44 44 45 43 45 45 45 46 44 42 39 38 40 43 45 47 48 48 46 46 46 47 47 48 48 49 47 43 41 42 44 43 48 50 49 52 55
42 43 48 48 47 47 44 42 43 44 44 44 42 39 38 37 40 42 44 47 47 48 47 46 45 46 46 45 47 47 45 43 38 37 41 39 42 45 46 45 48 51 51
38 40 44 49 46 48 45 47 46 45 42 42 42 42 43 45 45 47 49 49 47 45 44 44 45 45 45 46 45 43 38 36 37 39 41 40 43 45 43 44 46 46 49
34 38 40 45 43 46 49 45 46 48 49 50 50 51 49 49 51 52 48 45 43 42 42 42 43 44 44 42 40 35 35 38 40 41 41 42 42 44 43 42 45 43 45
38 38 35 33 37 40 44 50 49 44 47 48 50 50 51 49 47 44 41 40 39 40 40 40 41 41 40 38 35 34 36 37 39 40 41 42 42 44 42 41 42 40 42
32 40 44 35 31 34 36 39 42 45 45 45 45 44 43 41 38 38 37 37 38 37 37 37 36 36 35 35 36 37 36 39 40 39 40 40 41 43 40 41 40 37 40
30 29 26 44 36 34 32 31 33 36 37 38 38 37 37 35 34 34 35 35 35 35 34 34 34 33 34 34 34 35 37 39 39 37 38 39 39 38 37 37 35 34 34
31 31 31 30 34 44 44 38 33 32 34 34 33 32 31 30 30 31 31 32 32 32 32 33 35 37 36 34 33 35 38 38 37 38 38 38 37 34 32 31 29 28 28
34 35 34 34 34 35 35 36 36 31 29 29 29 28 27 27 28 28 28 28 29 31 32 33 35 35 34 35 34 36 36 37 38 37 34 31 29 27 24 23 25 26 27
33 32 34 36 36 32 30 29 29 27 26 26 25 24 23 23 24 25 27 27 26 27 29 30 31 32 32 31 33 34 35 36 35 29 27 26 25 24 25 25 27 27 28
27 26 26 27 29 30 29 28 27 25 23 22 22 22 21 21 22 22 21 20 21 24 26 27 28 29 30 30 32 34 34 33 28 26 25 25 25 25 27 28 29 29 30
24 24 24 23 25 25 26 25 25 24 23 22 23 21 21 18 18 18 18 19 21 22 24 26 28 28 29 31 33 33 31 29 26 24 24 25 26 27 28 29 29 30 31
20 21 23 23 23 24 24 24 24 23 22 22 22 23 19 16 16 16 17 19 20 21 22 23 24 26 28 30 31 31 29 26 25 25 25 26 27 26 27 29 29 31 33
23 21 23 24 23 23 23 23 23 23 21 23 23 23 17 15 15 15 17 18 19 20 21 23 24 25 27 29 29 28 27 26 26 26 26 26 26 27 29 30 31 32 35
24 24 23 22 24 22 23 23 23 22 22 23 23 22 18 16 16 16 17 18 20 21 22 24 25 26 27 27 27 27 27 28 28 27 26 27 28 30 32 33 33 35 36
21 23 25 26 25 23 23 25 25 25 23 23 24 22 19 17 17 16 17 18 21 22 22 26 28 28 29 29 28 27 27 27 27 27 28 29 31 32 33 34 35 37 38
14 17 22 25 25 23 24 27 27 26 24 23 24 23 21 20 20 19 18 21 23 22 22 25 28 29 30 32 32 31 29 28 28 29 31 32 33 33 34 36 37 39 40
19 21 26 26 27 24 25 26 27 26 26 24 24 25 24 24 24 23 23 24 26 27 29 32 33 32 32 34 36 36 34 31 30 31 31 32 33 35 36 37 40 41 42
22 20 15 20 25 28 29 25 26 27 26 27 27 27 27 27 27 27 28 28 30 30 32 33 34 34 34 35 36 35 33 33 32 32 33 34 35 37 38 40 41 43 43

GFSMW_500_spd_054.txt.gz
Wind_Speed
47 47 51 50 55 58 51 49 47 44 42 41 40 40 39 39 38 36 36 36 36 35 34 35 36 38 37 39 39 38 40 41 44 46 45 46 45 44 42 43 44 46 47
49 45 46 49 53 55 53 48 47 46 44 44 43 43 42 41 39 38 38 37 36 38 38 39 39 41 41 40 41 42 42 44 46 48 49 46 44 44 45 45 45 45 46
47 46 45 47 48 49 50 51 48 47 46 46 46 45 44 42 40 41 40 39 40 41 41 40 43 44 43 43 43 44 45 47 47 48 49 49 48 48 45 45 45 46 47
37 38 41 44 45 45 46 47 48 46 44 44 44 43 43 41 41 42 42 44 45 45 43 45 45 45 45 43 43 47 49 50 48 47 48 49 50 48 46 47 46 43 43
35 35 38 41 44 46 46 46 47 46 46 45 44 42 42 42 43 44 46 46 45 46 47 48 47 47 44 43 46 50 51 49 48 47 47 47 47 46 47 45 41 41 41
39 42 42 40 37 38 42 46 46 46 47 47 48 49 48 48 48 48 47 47 47 48 48 49 48 46 45 47 50 51 50 48 48 49 48 48 48 46 44 40 39 38 40
41 43 45 45 43 43 43 44 46 47 49 49 49 49 49 48 47 47 47 47 47 48 48 45 42 44 48 50 51 50 48 47 48 48 48 49 47 43 40 40 40 41 42
44 45 45 47 47 47 45 45 45 46 47 48 50 50 48 45 44 44 44 46 46 43 41 42 43 47 50 50 48 47 46 46 46 47 46 44 38 39 40 41 42 42 42
49 50 51 49 48 51 49 45 47 46 46 47 50 50 47 45 45 46 45 42 41 41 42 44 48 50 48 46 44 44 44 45 44 43 40 36 39 41 42 41 42 43 41
42 45 46 47 48 51 53 53 49 47 47 46 45 45 45 46 45 44 43 43 44 46 48 50 51 47 44 42 42 43 43 42 40 37 36 37 39 41 42 43 42 43 43
43 40 44 43 48 49 50 52 51 51 50 47 46 45 44 44 45 45 47 49 49 50 52 49 46 42 41 41 41 41 41 39 37 36 37 38 41 42 43 43 41 43 42
46 43 41 44 42 43 45 47 49 49 50 50 52 53 52 53 51 52 50 51 51 50 46 43 40 40 39 39 39 38 37 36 37 38 38 39 42 42 42 43 42 41 40
38 38 42 43 44 46 41 39 41 43 45 53 50 50 49 49 48 47 48 47 46 43 40 39 38 37 37 36 36 35 35 36 38 38 38 40 41 40 42 42 40 40 35
32 36 37 36 39 46 43 39 34 36 39 42 46 49 48 46 45 44 43 42 40 38 37 36 35 35 35 35 36 37 38 38 38 38 39 39 39 41 41 39 37 33 30
36 35 37 36 34 38 42 46 40 36 32 31 34 37 39 39 39 39 38 37 36 35 33 33 34 34 34 36 37 37 37 37 38 38 37 37 39 39 35 32 30 26 26
34 35 34 32 32 28 26 46 48 42 42 37 33 32 33 36 35 35 34 33 33 31 30 29 31 32 33 34 35 34 35 34 34 34 36 38 37 32 29 27 26 27 28
35 38 37 36 36 35 33 33 34 36 41 44 45 38 37 34 33 32 30 28 28 27 27 27 27 29 31 31 30 31 31 32 33 35 37 35 32 28 27 27 27 29 30
37 37 37 37 38 39 40 37 34 31 32 31 31 32 31 29 27 26 25 25 24 22 21 23 25 25 26 27 28 29 30 33 34 35 34 31 28 28 28 28 29 30 31
29 29 31 31 29 32 34 36 39 36 30 30 28 28 27 25 25 25 23 21 21 21 22 21 20 22 23 23 25 28 30 32 33 32 30 28 28 29 30 30 29 30 31
23 24 26 28 27 27 27 27 26 26 26 28 27 27 25 25 25 23 21 21 21 21 19 19 19 20 20 22 23 26 29 31 31 30 29 29 29 30 31 30 31 32 34
22 20 21 24 23 24 24 27 28 25 25 26 26 25 24 24 27 24 22 20 20 19 18 18 19 20 21 24 26 28 30 30 30 30 31 31 31 31 30 31 33 35 35
19 20 23 25 21 22 23 24 23 23 23 23 23 23 24 27 25 26 23 20 20 19 18 19 19 20 22 25 28 30 31 32 32 31 31 31 31 31 32 34 35 36 36
23 24 24 25 24 24 24 30 25 23 24 24 24 26 25 26 26 26 24 22 21 20 20 20 20 22 24 27 29 32 34 35 36 36 34 33 32 33 35 35 35 36 37
21 22 21 23 25 27 26 26 22 26 23 25 26 26 25 26 27 28 26 24 23 23 22 23 23 26 29 30 31 32 35 37 39 40 37 36 36 36 36 36 36 38 39
20 20 18 21 22 24 25 26 25 23 24 25 25 25 26 27 28 29 28 27 27 27 27 27 28 30 31 32 33 35 34 35 36 33 33 35 38 38 39 39 39 40 40
21 22 23 18 23 24 25 28 26 25 25 24 26 26 27 28 28 29 29 30 29 30 30 31 32 33 33 34 35 36 35 35 35 34 35 37 39 40 42 42 41 40 41

GFSMW_500_spd_057.txt.gz
Wind_Speed
48 47 52 54 49 46 44 46 47 46 44 44 43 41 41 41 39 39 38 37 36 34 33 33 34 35 35 37 37 39 41 41 42 41 40 42 45 44 44 43 42 41 42
44 46 48 50 53 56 54 51 43 47 49 49 47 46 45 42 41 41 40 39 39 38 37 37 35 36 38 40 39 45 45 44 43 42 43 43 44 45 44 44 44 42 42
48 43 45 45 47 46 49 49 50 52 50 50 50 48 46 44 44 43 42 43 42 41 41 40 39 40 44 42 46 48 47 45 43 44 47 49 47 45 43 43 42 42 43
53 55 53 52 53 50 47 48 52 51 51 49 49 49 47 47 46 45 46 45 44 43 42 43 44 47 46 45 46 48 48 45 43 45 49 49 47 44 43 43 42 41 40
48 54 54 50 50 47 45 42 44 44 47 49 50 49 48 48 48 47 47 46 45 44 46 46 46 46 46 47 47 47 44 42 45 48 48 47 45 44 44 42 41 37 34
35 42 40 43 44 43 43 43 43 43 44 45 47 47 48 48 48 46 45 45 45 46 47 47 47 47 48 49 46 42 43 46 49 49 47 45 44 44 42 40 34 32 34
49 36 32 36 38 39 37 39 43 46 47 46 46 46 47 46 46 46 48 48 48 48 47 47 47 47 46 44 42 44 46 48 50 48 45 44 44 43 39 36 33 35 36
37 45 49 38 38 41 41 41 40 40 42 45 48 50 50 50 49 49 48 47 47 46 45 45 47 46 42 42 44 46 48 50 48 45 44 44 43 40 37 34 35 35 35
37 35 33 33 40 44 44 45 48 47 45 45 46 47 48 49 48 49 48 46 46 47 46 44 42 41 41 44 47 49 49 46 43 44 44 42 39 37 34 34 36 37 39
37 41 41 40 45 48 49 50 49 50 50 48 46 47 48 49 48 48 49 47 46 45 44 43 44 44 46 49 49 47 43 42 42 42 40 37 35 35 36 38 38 40 40
35 38 44 44 47 53 54 54 54 54 53 53 51 47 46 48 48 47 46 46 46 46 45 48 48 49 50 48 45 42 41 41 39 37 35 35 36 38 39 38 40 40 39
36 37 39 44 47 46 51 53 55 55 55 58 56 53 54 51 50 49 48 49 48 49 50 50 51 49 46 44 41 40 39 38 35 34 35 36 38 38 39 40 40 39 40
36 37 39 40 44 48 47 50 51 48 53 54 56 55 52 52 51 51 52 53 53 53 50 47 45 44 43 40 39 38 36 36 36 37 38 39 40 39 40 41 40 40 39
37 37 38 39 38 44 45 44 45 48 47 49 51 48 47 47 50 50 49 50 48 46 44 43 42 40 39 38 37 36 36 37 38 37 37 39 39 39 39 39 39 38 34
36 37 37 37 40 39 40 42 45 45 44 41 42 44 42 41 41 41 43 44 43 44 42 40 39 37 35 34 33 35 36 35 34 34 34 32 33 35 36 37 35 32 29
35 36 37 37 39 40 42 43 40 40 45 47 48 43 38 30 30 35 36 38 37 35 37 36 35 32 31 32 32 31 32 32 31 31 31 32 35 36 35 33 30 28 28
33 37 39 41 40 40 41 38 34 34 33 44 47 46 46 41 36 32 32 33 34 36 35 31 30 30 31 28 28 30 32 29 28 28 30 32 34 34 31 29 27 28 29
31 35 35 39 40 38 39 37 35 35 33 32 35 38 39 41 44 43 39 37 33 30 29 29 28 26 25 25 26 26 23 22 23 25 28 30 30 30 28 28 29 30 30
23 27 36 37 39 39 38 40 41 41 40 40 34 32 32 32 33 30 32 30 28 26 27 25 24 23 24 23 21 21 20 21 24 26 27 28 29 30 31 31 31 32 32
29 28 25 26 32 33 31 29 29 31 32 35 40 31 32 32 28 27 26 26 27 25 24 24 23 23 21 20 20 20 21 22 25 26 28 30 31 31 33 33 33 33 32
28 27 24 23 24 25 29 28 28 29 28 25 26 26 25 25 26 25 25 25 26 28 26 23 23 22 21 20 20 21 21 23 25 27 29 31 33 34 35 35 34 34 35
21 21 21 21 22 25 26 24 21 23 27 28 23 22 23 25 27 26 23 27 29 27 27 24 23 23 24 22 22 22 24 25 27 29 31 33 34 38 38 36 35 36 38
19 20 22 21 21 23 21 23 24 26 26 23 24 25 23 22 23 25 27 29 28 28 27 25 24 24 24 24 25 25 27 28 29 31 32 33 35 35 33 34 36 38 39
20 21 21 21 23 24 26 26 22 21 31 28 26 25 24 23 24 27 28 29 28 28 28 26 24 26 26 27 28 28 29 31 32 33 33 34 36 35 33 34 36 38 39
20 21 22 23 21 21 23 23 23 26 25 26 28 24 23 23 25 27 28 28 27 29 30 28 28 28 29 30 29 29 30 32 34 34 34 34 36 36 36 37 38 40 41
18 20 23 21 20 17 21 25 23 25 25 22 23 23 23 23 23 24 26 27 28 29 30 30 30 31 31 31 29 30 32 33 35 35 35 36 37 39 40 40 40 40 40

GFSMW_500_spd_060.txt.gz
Wind_Speed
51 54 51 47 47 47 46 44 43 44 47 50 42 40 40 40 40 40 40 38 37 36 36 35 35 36 36 36 35 35 36 38 40 46 44 44 43 41 43 45 46 44 42
49 51 53 55 51 49 49 48 45 42 43 41 42 43 44 45 44 43 43 43 41 40 39 37 37 38 38 38 38 40 42 44 45 46 47 45 43 41 43 47 47 45 44
50 50 50 49 51 55 54 51 48 47 48 46 45 45 46 48 48 48 47 45 44 43 42 41 40 40 40 40 41 44 46 47 47 48 49 47 42 42 45 46 45 43 42
56 55 55 51 50 51 51 51 54 54 54 53 53 53 52 51 49 49 48 46 46 45 44 43 43 43 43 43 46 47 47 47 48 48 47 44 43 47 48 45 43 42 42
56 61 54 52 50 44 44 48 49 50 47 50 53 52 53 55 54 51 49 48 47 47 47 46 45 45 45 47 48 48 48 48 47 45 41 43 47 47 48 43 44 44 41
40 49 48 55 56 53 50 49 50 52 52 49 49 52 54 53 54 50 49 49 50 49 48 48 47 47 48 49 48 48 47 46 43 40 42 45 48 46 45 44 44 43 39
41 35 42 55 55 54 56 55 52 52 50 49 48 46 46 47 48 50 51 52 52 52 51 50 49 48 47 47 47 46 47 44 42 42 45 48 48 46 45 45 43 39 35
43 46 44 34 37 47 50 51 49 50 48 48 48 46 46 46 46 47 48 48 49 49 49 49 48 47 46 46 47 44 43 42 45 48 50 48 47 46 46 44 41 37 35
35 40 47 53 45 42 35 39 45 46 46 44 41 42 43 45 47 49 50 51 51 50 50 49 48 47 46 46 44 44 45 46 48 51 49 47 46 46 45 42 39 38 38
33 37 40 40 35 42 37 40 43 42 45 46 46 48 48 47 48 49 51 51 51 50 48 47 48 47 45 45 46 47 49 50 48 46 45 45 45 43 41 39 39 40 41
28 29 36 42 40 38 40 43 44 46 46 48 51 53 53 51 51 50 50 51 50 50 48 47 46 46 45 46 48 49 51 49 45 43 43 42 41 39 38 39 40 42 42
31 32 33 35 37 44 46 46 50 51 54 56 55 56 57 55 54 54 54 52 49 50 49 47 47 47 47 49 49 50 46 43 42 42 40 39 38 39 40 41 41 41 42
37 37 36 38 40 40 43 47 48 50 52 54 55 57 58 59 57 56 57 58 57 55 53 50 49 51 52 48 46 45 42 41 42 39 38 39 39 40 40 39 38 38 39
33 35 37 39 39 41 43 44 45 45 46 47 49 50 51 53 54 53 52 54 54 55 54 52 50 50 48 45 43 42 41 41 39 38 38 38 39 36 34 35 35 37 38
32 33 36 38 39 40 41 42 42 42 44 44 43 43 43 45 45 47 45 46 46 47 47 47 48 49 45 42 41 38 38 37 36 38 37 35 33 33 33 33 33 35 33
26 30 31 33 35 38 40 40 41 41 43 43 43 45 47 45 45 42 43 45 39 40 41 39 40 37 35 35 35 37 36 35 34 33 32 30 28 26 28 30 31 30 29
20 25 27 29 32 35 36 37 40 43 45 46 47 44 43 44 50 48 43 40 37 31 30 31 31 33 33 34 37 34 33 30 30 29 23 23 25 27 29 29 28 28 28
27 26 22 25 29 33 36 38 41 43 45 46 44 40 37 35 36 46 46 47 47 43 40 43 38 36 35 35 33 30 28 27 26 22 21 23 25 26 26 26 25 28 30
29 30 29 24 25 31 34 38 40 40 41 41 41 39 36 36 34 34 36 37 35 41 38 33 32 31 32 30 28 27 25 24 22 21 23 23 24 26 26 28 28 28 30
29 30 30 30 27 26 31 35 37 38 39 38 34 34 41 40 40 36 27 28 28 26 28 32 32 31 28 27 26 25 24 23 22 23 25 25 25 27 29 30 31 31 33
27 28 28 28 27 27 27 28 29 32 33 28 28 30 29 29 36 32 33 31 28 26 25 26 27 25 28 28 26 25 24 24 24 25 26 26 27 29 31 31 33 34 34
22 21 22 23 24 25 27 27 26 26 31 29 26 28 26 27 28 28 25 25 25 26 25 25 27 30 29 29 26 25 26 26 27 27 27 28 29 30 32 33 33 33 32
22 22 22 23 24 24 22 25 24 25 28 22 28 32 29 27 24 25 25 25 24 26 28 25 29 29 29 29 27 26 27 28 28 29 30 30 31 32 33 34 35 35 34
23 18 20 22 22 23 25 26 27 27 26 28 29 27 28 26 26 25 23 23 25 26 26 28 28 28 28 29 27 27 29 29 30 31 31 31 32 35 36 36 37 37 37
21 21 21 22 23 25 24 24 26 27 26 22 23 27 30 28 27 27 25 23 25 27 28 29 29 28 28 29 31 31 31 32 31 30 32 33 35 37 38 38 39 40 39
25 23 23 24 24 21 20 26 19 26 26 26 28 24 25 26 27 26 25 23 24 26 27 28 28 29 30 31 32 32 33 32 32 32 34 38 39 39 39 39 39 39 40

GFSMW_500_spd_063.txt.gz
Wind_Speed
51 37 44 54 45 46 46 45 44 44 44 41 41 46 48 44 42 39 38 37 36 36 35 35 36 36 35 34 34 35 36 36 37 39 41 43 44 43 45 45 44 41 43
47 50 41 49 57 49 44 44 45 44 41 41 41 41 40 52 43 39 40 39 39 40 39 39 39 40 38 37 37 37 38 39 40 42 45 46 44 46 46 41 42 44 46
55 53 52 47 48 54 54 48 48 47 45 43 43 42 41 39 39 43 45 46 44 43 44 43 43 42 41 40 39 41 41 42 42 45 47 48 47 46 43 38 41 46 47
56 60 60 56 52 52 54 57 52 50 48 47 46 46 47 45 46 45 46 47 48 48 47 46 45 44 44 43 42 44 44 45 45 46 47 47 47 45 42 41 45 48 47
50 62 54 52 52 51 50 49 55 55 55 53 49 51 52 52 55 54 54 54 54 53 51 50 49 47 45 45 45 45 45 46 48 47 46 44 44 43 44 46 47 49 47
48 38 52 60 52 51 50 48 47 47 51 56 55 51 51 52 51 53 55 55 54 53 51 49 48 48 48 47 47 46 47 47 46 46 44 46 41 44 46 49 50 48 46
44 46 40 41 55 58 52 50 50 51 48 50 50 56 54 52 54 52 54 56 58 56 54 53 52 52 51 50 49 48 46 46 45 46 46 44 45 48 51 52 49 46 45
42 41 44 45 41 48 54 54 56 57 53 52 52 54 53 55 54 51 51 50 49 50 51 52 53 53 51 49 49 48 47 46 46 46 45 46 48 50 52 51 47 46 45
37 40 36 41 45 38 39 41 50 56 55 57 59 59 55 53 52 52 51 49 49 50 51 51 51 51 51 50 50 47 44 44 45 46 46 49 51 51 48 46 47 45 43
34 35 32 35 39 49 43 45 45 45 53 58 60 58 55 53 52 49 47 47 48 49 50 51 51 51 51 49 48 48 48 46 45 47 47 50 51 48 45 46 44 41 41
24 27 32 38 43 42 41 40 44 41 41 40 45 42 44 48 49 50 50 50 50 50 49 49 49 49 50 49 47 45 46 47 46 49 50 49 46 45 45 42 41 41 43
32 31 30 29 31 36 41 42 40 38 39 40 41 43 48 51 52 54 54 54 54 53 53 52 50 48 49 49 48 46 47 48 49 50 48 47 44 42 41 40 41 42 43
36 36 35 34 33 35 38 42 44 46 43 44 51 54 53 52 55 55 57 56 56 54 54 53 53 53 53 52 51 49 51 51 51 46 45 43 42 39 40 40 41 40 37
33 36 37 35 34 36 37 40 44 45 48 51 52 52 52 49 50 50 50 50 50 50 49 48 50 49 47 48 49 50 50 49 50 45 41 39 38 37 37 38 37 35 32
27 31 35 36 38 40 40 41 42 43 45 46 47 49 49 48 47 48 48 47 46 44 43 44 43 43 44 46 46 46 46 46 44 40 37 35 34 35 34 35 29 28 29
29 28 31 31 33 34 36 39 39 40 43 45 46 45 45 44 44 44 46 48 46 44 42 42 41 43 42 43 44 41 40 37 36 35 34 34 34 31 30 27 26 28 29
29 32 30 30 27 31 31 30 32 34 36 38 40 40 41 42 44 45 46 46 48 50 45 42 41 32 30 32 34 33 33 32 32 33 35 32 29 28 26 26 25 26 26
31 31 32 31 29 27 25 26 27 28 31 34 38 40 43 46 49 48 45 43 44 45 51 51 47 43 43 38 38 36 36 34 34 31 29 29 27 25 26 25 27 27 27
35 34 33 34 32 29 26 27 28 31 35 38 41 45 45 41 40 43 43 42 38 35 33 35 37 38 41 37 37 36 35 31 29 28 28 27 26 26 25 28 28 27 29
33 34 35 35 33 31 29 28 29 32 34 39 40 41 41 39 40 39 43 43 40 34 30 31 29 26 34 29 29 30 33 30 28 28 27 28 27 26 27 28 28 28 29
29 30 32 33 33 31 31 30 30 30 32 30 34 36 37 35 31 28 30 31 35 36 33 25 24 23 25 27 28 29 28 28 28 29 28 28 26 26 28 29 30 30 31
27 25 27 28 26 27 28 28 29 30 32 32 29 30 30 30 27 26 25 29 28 33 27 28 23 22 23 24 26 28 28 30 30 29 29 28 28 30 31 30 30 32 33
27 26 26 27 26 26 27 27 27 28 30 30 29 29 28 31 26 27 30 28 28 26 24 23 24 26 29 27 24 27 28 30 30 31 29 29 30 31 31 31 33 35 36
28 26 27 27 29 29 26 25 28 30 29 29 28 26 25 30 25 26 29 27 25 26 27 28 28 29 25 24 27 28 29 30 30 31 31 31 31 31 31 33 37 39 39
29 30 28 28 27 28 28 27 28 28 30 32 30 27 23 22 26 28 27 27 28 27 26 25 25 25 27 27 28 29 30 30 31 32 33 33 33 33 34 37 40 40 41
32 31 31 29 28 27 28 27 23 26 29 28 28 27 28 26 25 28 28 26 26 27 27 25 25 27 28 29 30 31 31 32 33 33 33 34 33 35 39 41 41 42 42

GFSMW_500_spd_066.txt.gz
Wind_Speed
54 51 44 43 54 50 47 46 45 44 43 42 41 40 38 35 38 39 40 40 39 37 35 34 33 34 33 33 33 34 33 33 34 34 34 35 37 39 40 39 40 42 43
40 47 50 37 38 54 44 45 44 45 43 43 42 42 42 39 37 34 45 49 41 39 38 36 37 38 37 37 38 38 37 36 36 37 38 37 37 40 43 41 38 39 41
39 45 45 42 40 36 41 53 45 45 44 42 43 41 39 39 38 36 36 35 38 51 45 43 43 43 43 43 42 41 42 40 38 40 41 41 41 41 40 39 37 38 39
49 48 51 45 41 44 45 37 50 54 47 45 44 42 42 41 41 41 40 39 40 42 42 45 48 47 48 49 46 45 45 43 43 42 42 43 44 43 41 40 42 41 42
48 47 53 48 45 46 47 48 48 46 51 56 49 46 45 44 45 46 46 47 44 46 50 51 52 53 53 51 51 49 46 45 44 44 44 44 44 42 42 42 40 43 44
41 43 43 48 50 50 53 57 58 50 50 52 58 49 49 49 49 50 49 49 49 51 52 52 53 54 53 51 49 48 48 47 46 47 46 45 44 41 41 42 41 45 46
38 41 40 44 38 39 51 55 53 54 53 52 49 51 53 55 55 53 52 52 51 53 51 53 54 55 56 56 54 51 50 49 48 46 47 45 45 44 41 43 44 46 47
30 35 38 38 43 35 35 44 54 49 51 50 51 53 52 51 53 54 54 54 53 52 53 52 52 52 51 51 50 48 47 47 46 48 48 45 43 44 45 45 46 46 45
23 28 36 37 39 34 36 41 43 54 59 59 55 54 55 52 50 49 49 54 53 53 53 52 52 52 50 49 49 48 48 48 48 47 45 46 45 45 46 46 47 45 43
24 25 28 32 35 38 35 38 46 42 43 48 47 57 59 57 52 53 54 57 56 54 53 52 52 50 48 48 48 48 47 47 47 47 45 44 44 44 46 48 48 43 42
28 26 24 26 32 32 33 36 40 44 48 46 45 44 47 52 56 59 58 60 57 54 52 50 49 48 48 48 47 46 46 47 46 46 45 45 46 46 45 45 44 42 39
30 29 28 27 26 27 26 28 34 37 38 43 44 47 48 45 41 46 47 48 47 49 52 52 53 51 52 52 51 50 49 48 47 45 46 48 48 48 46 43 42 41 39
34 33 32 31 30 31 32 31 32 34 35 37 41 44 41 41 41 42 43 47 48 48 47 47 48 48 49 50 51 50 49 49 45 45 45 46 46 45 46 42 40 37 37
33 33 33 37 37 35 36 37 37 36 37 38 41 43 45 45 46 47 49 50 50 50 50 49 47 46 45 45 44 43 41 41 42 42 43 45 47 47 44 41 37 34 34
30 33 33 34 37 34 35 37 38 39 40 41 42 42 43 45 47 50 50 51 51 50 46 46 45 43 43 44 45 43 43 43 44 44 44 44 42 41 38 34 32 33 31
32 31 33 32 32 29 31 34 35 37 40 42 43 44 44 44 46 47 46 47 47 46 45 44 46 46 44 44 43 43 42 44 43 43 42 39 36 32 31 30 32 31 28
32 32 33 34 36 35 31 29 29 34 40 41 40 40 41 40 39 39 40 41 42 43 45 46 45 47 46 47 45 40 33 32 33 34 33 31 29 27 30 33 29 28 28
37 34 36 35 35 36 35 32 30 28 31 33 32 34 34 35 36 37 38 39 41 45 48 47 44 44 45 43 46 45 47 41 37 36 31 30 30 31 30 28 28 28 27
37 37 36 39 38 38 38 36 35 32 31 32 32 33 33 34 38 41 42 44 44 41 40 40 41 41 36 32 33 38 37 40 45 34 31 29 29 30 28 28 28 29 27
36 37 39 39 40 41 40 37 36 35 33 33 34 31 33 38 41 42 42 40 39 40 40 41 43 39 34 31 32 32 34 28 27 27 27 30 29 29 30 29 28 28 27
33 34 34 35 36 36 35 35 35 36 36 35 33 32 33 34 33 35 36 35 34 32 31 31 35 35 34 32 23 24 25 27 27 26 26 27 28 31 30 29 29 28 27
30 30 31 31 31 31 30 30 31 33 34 34 33 36 36 34 32 32 30 30 30 25 26 29 29 28 32 31 23 21 20 20 22 24 26 29 31 31 31 31 31 29 28
30 31 31 30 29 29 28 26 28 29 30 32 33 33 32 30 29 29 28 30 28 29 28 28 27 28 27 23 24 25 23 26 24 24 27 30 30 30 31 32 32 30 30
31 30 30 30 30 28 27 26 28 29 29 29 32 31 30 30 27 24 24 27 24 25 27 26 27 25 25 26 25 26 26 25 25 26 28 30 30 30 31 33 34 34 34
34 34 32 31 31 31 30 28 28 30 31 31 30 30 31 33 31 28 22 22 23 23 23 25 26 25 25 24 26 26 24 25 26 28 28 29 30 32 34 36 37 36 37
35 35 35 33 33 32 31 30 29 26 28 27 22 31 32 33 29 27 24 23 22 24 23 23 26 26 26 24 24 24 26 27 29 30 31 32 33 35 36 37 37 38 39

GFSMW_500_spd_069.txt.gz
Wind_Speed
49 46 47 46 52 43 46 43 44 42 43 41 40 39 39 37 38 36 33 36 34 35 33 33 35 35 34 33 33 33 33 32 34 34 34 34 34 34 37 37 36 37 38
48 50 43 44 39 40 42 48 43 42 43 42 40 41 40 39 39 38 38 38 30 36 38 39 37 38 37 36 37 37 38 38 39 39 39 37 36 36 37 39 39 40 38
40 43 47 50 50 43 41 40 50 43 42 41 43 42 43 40 40 41 42 39 36 37 35 33 37 49 47 41 45 43 42 43 44 46 46 46 42 40 38 38 39 38 36
39 31 32 39 52 50 50 39 37 49 41 40 41 40 39 43 43 42 39 38 41 40 38 38 38 38 39 45 47 48 47 48 50 48 48 45 44 44 40 41 40 39 37
41 40 37 35 31 35 43 45 39 37 38 37 43 49 40 41 41 41 42 43 43 44 42 43 43 42 43 46 51 51 52 52 51 50 45 45 47 45 44 42 41 41 39
28 33 34 40 43 41 42 39 39 42 40 43 45 44 41 45 47 47 48 44 45 46 45 46 48 49 48 49 48 49 50 52 52 52 52 52 48 43 45 42 43 41 40
24 27 30 31 38 43 44 44 49 50 50 52 52 54 51 49 49 53 48 47 50 49 49 52 52 53 50 53 52 53 53 51 49 49 47 47 44 43 43 42 40 40 43
23 22 25 32 40 39 37 38 42 45 53 57 56 56 54 54 53 49 49 51 53 55 57 57 54 53 54 52 52 54 54 51 50 47 45 45 44 43 42 42 42 41 42
22 23 25 24 31 36 38 39 38 40 40 41 48 51 51 53 52 49 48 50 49 53 53 54 52 54 53 53 53 53 52 52 51 49 46 44 44 43 42 42 40 42 41
24 25 23 23 21 24 30 32 36 37 40 38 36 48 56 59 60 61 62 60 59 56 55 54 52 56 52 54 53 52 51 49 47 46 45 45 44 43 42 42 43 42 41
25 26 26 26 24 22 24 28 30 35 41 41 40 44 48 51 52 52 47 49 54 60 58 56 55 55 58 60 53 51 50 48 48 48 46 44 44 42 41 42 43 42 43
36 34 33 28 24 23 23 23 22 26 32 39 40 39 44 45 48 43 41 45 41 42 48 50 58 58 57 55 52 52 51 50 49 49 49 46 45 44 44 45 45 44 43
30 31 29 27 27 27 28 28 29 30 31 31 31 32 37 39 41 41 42 41 43 44 45 44 47 48 47 48 46 44 45 42 42 43 44 43 42 42 43 42 45 46 44
23 27 29 28 31 33 33 34 35 36 36 37 37 37 38 38 38 41 44 43 42 45 46 47 47 47 49 50 47 43 43 43 43 43 44 43 43 44 45 45 46 47 43
25 27 29 31 31 32 33 33 34 35 36 38 39 40 41 41 43 44 44 45 46 46 48 49 48 48 46 48 47 46 45 43 43 44 46 45 46 46 46 46 44 41 35
25 26 30 31 31 31 32 33 31 29 30 31 33 35 39 42 45 47 47 46 45 46 45 46 46 46 47 45 45 46 47 48 44 42 40 42 40 40 37 36 34 36 31
28 27 28 30 30 30 32 33 33 33 31 30 31 32 37 42 44 46 46 45 44 43 41 42 43 44 46 48 48 47 47 44 45 44 39 36 33 31 33 30 30 28 29
32 32 33 34 33 34 36 36 35 35 33 34 35 35 33 34 38 39 40 41 41 41 41 41 43 43 45 46 48 45 43 42 42 45 46 46 39 37 32 30 29 28 27
33 33 35 38 39 40 38 39 39 39 38 37 37 37 36 36 36 38 38 39 41 42 43 44 46 47 46 44 40 41 39 39 35 38 44 47 40 40 30 29 28 28 29
35 35 37 38 38 38 39 40 40 41 42 40 39 39 39 37 36 36 37 38 40 41 41 40 40 42 41 41 40 42 40 37 37 35 37 34 32 31 29 27 26 28 29
34 36 35 35 37 38 39 38 38 37 38 37 37 38 38 35 36 37 36 36 35 36 36 35 35 34 33 29 33 36 39 35 29 29 29 29 29 28 24 24 27 28 30
36 35 34 34 34 33 33 33 32 32 33 33 34 35 37 37 37 39 37 35 33 33 34 31 31 30 31 29 29 29 29 29 26 22 20 20 20 22 25 26 28 30 31
35 34 33 33 33 33 31 30 30 33 33 31 31 32 33 34 35 34 34 34 32 31 30 26 27 31 28 26 26 30 34 29 22 21 22 22 25 26 26 28 30 32 32
38 37 35 34 34 34 33 32 32 31 31 31 31 30 30 32 33 32 32 31 29 28 27 26 25 25 25 24 24 24 24 25 24 27 30 28 25 27 28 30 30 31 31
38 39 38 38 38 36 35 33 33 32 32 30 30 31 31 33 33 33 33 33 30 29 25 26 25 23 23 22 23 24 24 24 25 28 27 26 27 29 30 30 31 32 34
37 37 37 35 37 38 38 36 35 34 33 32 29 29 28 25 25 32 35 36 32 28 22 23 24 23 22 21 22 22 22 23 23 23 24 26 27 28 29 29 30 32 34

GFSMW_500_spd_072.txt.gz
Wind_Speed
45 41 41 40 40 43 37 36 39 38 34 36 36 36 36 33 34 35 33 33 33 31 33 35 35 34 33 33 33 33 34 33 34 32 32 34 35 36 38 38 41 40 40
44 39 34 37 41 40 41 43 45 42 36 41 35 36 38 39 39 38 37 36 35 36 35 33 34 36 35 36 37 37 37 37 37 39 37 35 37 40 42 42 40 43 43
43 40 33 28 39 42 40 42 38 40 42 42 40 44 45 45 38 39 42 41 39 38 38 40 38 36 35 35 34 34 43 46 44 46 47 45 44 47 45 44 43 40 42
40 41 36 31 37 44 44 41 39 36 42 44 47 44 45 45 44 48 46 40 38 40 41 41 40 41 39 37 37 39 40 43 45 50 50 53 53 51 48 45 45 46 44
41 35 37 39 31 36 44 48 47 47 44 42 38 46 49 49 44 45 47 49 44 39 43 43 41 41 41 40 43 46 44 46 47 48 46 47 50 52 54 52 47 46 45
32 31 30 37 35 35 34 41 48 49 50 46 42 40 46 43 43 47 44 39 40 43 43 46 44 46 45 42 44 47 49 52 52 52 50 48 49 48 49 49 45 42 42
32 29 25 32 42 36 37 37 37 40 45 48 45 42 44 43 40 39 42 46 44 45 47 46 46 47 49 47 51 54 56 55 53 50 49 51 50 48 45 45 43 43 42
21 21 22 25 29 29 29 33 39 36 42 46 46 45 48 52 52 51 51 50 49 50 53 49 50 51 53 55 58 57 56 55 54 52 50 51 52 51 48 47 46 43 43
21 22 22 21 22 28 30 32 36 39 41 41 43 47 50 51 54 56 56 55 57 54 54 53 54 57 53 54 55 56 54 52 52 54 53 53 52 51 48 46 46 44 42
25 23 23 24 28 31 32 34 36 40 45 47 49 47 46 44 43 47 51 52 52 53 51 60 61 61 59 57 56 55 53 56 59 56 54 55 52 50 48 46 45 44 43
25 27 27 29 30 29 29 30 31 33 37 40 43 43 45 43 45 42 47 56 62 64 59 58 59 60 62 64 61 61 60 59 58 57 59 56 53 52 51 50 49 46 46
32 31 32 32 30 30 30 30 29 28 28 28 29 33 38 43 44 46 48 52 53 51 50 51 46 44 46 47 49 50 44 51 58 59 56 53 53 52 50 49 48 45 45
38 39 40 39 35 33 31 31 30 29 29 29 29 30 31 32 34 38 40 43 44 43 45 46 43 43 45 48 49 48 48 49 48 45 44 44 43 45 45 45 44 45 46
32 33 33 33 35 34 34 34 35 34 33 33 34 34 36 36 37 39 40 41 42 42 41 43 44 46 46 48 49 48 47 47 47 46 45 45 43 44 43 44 47 48 51
29 29 32 35 36 36 36 34 33 33 34 34 35 37 38 40 41 42 44 45 47 47 47 48 47 48 48 48 49 47 47 46 47 46 45 45 45 46 47 47 48 49 48
30 31 34 36 35 35 35 34 33 34 34 34 34 35 35 36 37 37 39 42 45 46 48 49 49 49 48 48 48 47 48 48 48 49 50 51 51 50 43 37 43 43 40
30 28 29 29 30 31 33 35 34 33 33 33 35 36 35 33 35 37 37 39 43 45 47 47 49 49 49 48 48 48 47 47 49 51 50 48 49 44 44 42 41 35 35
33 34 34 34 34 35 35 34 35 36 35 36 37 37 38 38 38 40 40 38 36 36 38 42 44 46 46 46 47 47 46 47 48 46 46 46 44 43 44 49 43 42 35
36 36 35 35 35 37 38 38 39 41 41 42 42 42 41 41 40 42 42 41 39 38 39 40 41 42 43 45 46 47 48 48 45 43 41 43 41 39 42 42 43 42 41
38 38 39 39 40 40 40 40 41 42 42 43 44 44 43 44 43 44 44 41 40 40 41 40 38 39 40 41 42 41 40 39 40 42 40 41 39 38 38 38 36 38 35
39 40 40 41 42 41 40 41 40 41 42 41 41 41 41 42 42 41 41 40 39 41 42 39 37 39 37 36 37 35 34 35 36 38 36 36 33 37 34 33 35 31 25
40 40 39 38 39 38 38 39 37 38 38 37 37 37 38 39 39 39 39 39 40 41 41 39 38 38 36 34 33 32 34 33 33 31 30 29 31 24 29 28 26 24 24
37 38 39 38 38 38 37 38 37 37 36 35 35 35 36 38 37 36 36 36 38 38 36 38 38 38 34 32 29 32 30 27 27 30 32 30 25 22 19 21 23 25 27
39 39 41 41 40 39 38 36 36 36 36 36 35 35 35 35 35 34 33 34 35 34 34 33 35 35 30 28 28 26 25 24 26 24 25 23 21 23 26 27 26 27 29
46 44 42 42 42 42 41 40 39 37 37 36 36 35 35 34 34 35 35 36 36 34 35 36 35 35 29 29 28 27 23 21 21 21 22 24 25 25 26 25 26 27 27
44 48 47 44 42 41 40 40 40 39 39 38 38 36 36 36 34 33 29 29 28 34 37 37 38 35 28 25 26 24 23 21 20 20 20 20 21 22 22 23 23 24 25

GFSMW_500_spd_075.txt.gz
Wind_Speed
46 40 38 35 29 31 29 30 27 23 34 31 22 27 25 29 24 27 29 30 30 32 30 30 30 32 33 33 34 34 34 34 35 34 34 33 33 35 36 36 37 40 45
47 42 40 36 31 31 33 33 31 29 27 27 30 33 30 28 32 31 32 32 32 35 35 33 34 35 32 32 37 36 37 36 37 40 39 37 36 39 41 43 45 48 47
48 45 43 37 33 30 33 34 33 31 31 28 25 31 36 37 35 34 35 37 38 39 39 39 39 38 36 38 39 38 36 36 35 34 36 39 39 44 45 45 44 47 48
49 48 44 42 38 32 32 31 33 33 34 33 29 29 35 37 37 44 45 46 45 44 43 40 42 44 43 43 43 40 39 39 38 38 41 44 46 44 44 44 44 45 45
45 44 42 40 38 33 33 35 35 39 39 35 32 32 32 38 39 39 35 37 38 44 48 47 47 43 43 43 43 43 43 40 42 43 45 46 49 50 53 52 47 46 46
40 43 43 38 38 39 37 34 34 35 39 41 39 40 40 41 39 44 38 37 36 38 39 43 43 39 39 42 43 43 43 44 46 46 47 50 51 54 56 53 48 48 47
35 37 40 38 37 33 36 37 36 33 34 35 45 48 47 44 40 45 47 46 44 43 48 42 40 42 43 45 43 44 48 49 53 57 57 56 57 54 52 50 48 48 50
35 39 37 32 32 34 35 41 40 36 36 33 34 40 44 46 44 44 46 41 42 47 45 38 51 43 45 46 52 48 48 48 51 54 57 55 54 53 53 51 51 49 50
23 29 35 34 33 32 35 37 35 35 35 34 38 41 39 41 44 48 52 48 51 52 55 56 57 55 56 56 58 55 56 54 52 54 55 55 54 54 53 53 55 53 51
26 27 28 29 30 28 28 27 31 33 34 35 37 37 39 40 42 44 45 47 50 51 46 53 58 55 57 58 60 60 59 58 61 60 60 59 58 59 58 58 55 55 55
26 27 27 27 31 30 31 33 35 37 37 37 38 39 42 44 46 49 51 49 48 47 45 51 52 54 56 60 61 64 65 63 61 59 55 56 59 57 54 58 57 55 55
26 29 31 31 34 34 34 34 33 34 34 35 36 37 39 41 43 44 46 47 48 50 49 50 52 53 54 53 49 52 54 48 47 46 47 47 47 46 45 45 47 48 47
36 37 37 37 40 40 37 36 37 36 37 37 37 38 38 36 35 35 35 35 34 35 39 42 46 48 47 46 44 43 43 46 47 46 46 46 45 47 47 44 45 45 46
35 38 41 42 42 41 39 40 41 40 40 40 39 38 38 37 37 37 39 40 41 41 41 42 43 45 45 45 45 46 47 47 47 48 49 47 46 45 45 45 45 47 48
35 34 36 40 43 45 45 45 47 46 44 42 41 41 41 41 41 41 42 43 44 44 45 47 47 48 48 48 49 49 49 48 47 48 47 47 46 46 47 47 48 48 49
34 37 38 39 40 44 44 43 44 44 43 43 42 42 41 41 41 42 43 44 44 44 43 41 44 48 50 51 50 50 48 47 47 46 46 45 45 46 47 49 49 48 45
37 40 43 43 43 44 43 43 43 42 41 40 41 41 41 42 40 40 41 39 38 39 40 40 40 40 41 43 44 44 44 44 44 45 46 46 46 45 47 46 45 45 44
36 39 39 39 38 39 40 39 39 40 41 43 43 42 41 41 40 41 44 44 42 41 42 43 43 41 39 37 38 39 40 42 44 45 46 48 49 48 46 43 42 42 43
37 38 39 41 43 42 41 41 42 43 44 44 43 43 43 44 44 44 44 44 43 44 46 45 44 43 42 40 39 40 41 42 44 45 44 44 43 43 43 40 43 43 38
43 44 44 45 45 45 44 44 44 43 43 44 46 46 47 48 48 48 48 47 47 47 48 48 46 44 44 42 40 40 41 41 41 40 40 41 40 38 38 37 36 37 36
47 48 48 48 48 48 47 48 48 47 46 47 48 48 47 47 47 47 48 48 47 47 46 47 46 45 45 43 41 41 41 41 38 37 35 36 37 37 35 35 33 33 33
48 49 49 48 47 47 47 46 47 47 46 46 47 47 46 45 45 44 45 46 45 44 44 45 45 44 43 42 41 41 41 40 38 34 35 35 31 29 29 30 32 27 25
44 46 46 46 46 46 46 45 46 45 44 44 45 44 43 42 42 41 41 40 41 42 42 42 41 40 40 39 39 39 40 38 33 32 32 29 28 29 31 31 26 22 23
48 48 48 47 47 46 46 46 45 44 43 42 43 41 41 41 41 39 38 38 39 39 39 38 38 38 36 36 37 37 36 33 32 29 27 24 23 21 21 18 20 21 21
49 51 51 51 53 53 50 48 46 46 46 44 43 42 40 39 40 39 39 36 36 38 38 38 39 38 36 38 37 36 35 32 29 29 26 22 20 22 20 20 18 19 22
45 44 45 45 45 47 51 53 50 46 46 47 46 45 43 40 38 37 38 38 37 36 36 35 37 38 39 38 35 35 31 30 28 27 26 22 20 20 19 19 19 22 24

GFSMW_500_spd_078.txt.gz
Wind_Speed
40 33 31 33 32 20 22 20 21 17 20 30 34 45 38 31 30 28 27 30 27 28 27 28 28 29 30 32 32 33 33 35 35 36 36 36 37 37 37 37 37 37 40
48 38 37 33 31 32 25 24 22 25 19 22 29 33 42 36 37 33 35 33 33 33 33 31 32 33 34 35 36 36 37 38 39 40 39 36 37 40 41 44 43 46 45
42 44 39 38 31 30 28 22 26 25 21 17 21 26 29 32 28 31 36 36 36 37 37 36 37 39 38 38 40 39 40 40 40 40 40 40 38 35 34 36 38 41 42
43 38 38 39 36 32 28 25 26 24 25 24 20 31 33 31 33 36 36 38 35 36 37 39 41 41 43 41 40 39 40 41 42 43 45 46 45 44 40 41 43 42 45
44 47 42 37 36 36 35 34 31 30 28 28 29 28 31 31 30 30 33 32 34 34 39 38 38 39 38 35 35 42 42 41 43 44 46 49 50 48 49 47 45 47 49
46 43 44 43 41 40 40 40 36 34 33 32 31 32 36 34 32 32 33 32 30 35 32 26 30 37 42 35 36 34 34 37 36 40 42 45 50 51 54 54 56 55 51
44 44 44 42 42 41 40 40 39 38 38 33 29 28 31 36 39 39 37 36 37 37 37 34 33 39 39 38 41 35 38 44 45 43 45 46 48 48 50 52 52 51 49
36 37 41 44 42 42 38 37 37 38 37 35 34 32 32 35 34 40 43 46 40 38 39 44 52 48 51 42 42 46 46 43 43 48 50 51 51 53 55 53 53 52 51
30 29 31 34 37 38 38 36 37 36 36 36 40 40 37 38 34 33 34 40 43 45 44 44 46 49 49 53 50 52 54 54 56 58 57 56 55 54 56 58 58 58 55
30 31 35 35 35 37 35 33 32 34 37 35 39 40 40 36 36 37 38 40 44 41 44 45 47 48 48 50 52 53 52 53 55 54 54 55 57 58 58 59 55 52 52
22 24 25 27 31 35 36 34 33 32 30 30 33 35 36 36 35 36 36 39 41 43 45 48 49 49 49 50 50 52 52 55 53 56 58 53 52 52 52 50 47 46 45
28 28 28 30 31 33 33 32 35 35 34 36 38 39 38 38 38 38 40 42 42 42 44 45 45 46 47 49 51 53 52 51 50 48 48 48 49 49 46 45 44 45 45
27 27 29 30 31 31 34 38 40 40 38 39 39 39 39 39 39 39 38 38 38 37 36 35 36 37 38 39 40 41 41 42 43 44 45 46 46 47 47 48 47 45 45
31 32 34 36 38 39 41 44 45 46 45 45 45 45 44 42 41 40 40 39 38 38 39 39 41 41 42 44 44 45 46 47 48 49 49 49 48 47 46 47 47 46 45
43 45 46 47 47 48 49 50 51 51 49 47 46 46 46 45 44 43 44 43 42 42 43 44 45 45 46 47 47 45 46 48 50 50 49 48 47 45 44 44 44 43 43
38 44 46 48 50 51 53 56 57 58 57 55 54 52 49 49 48 47 46 45 45 44 44 44 45 47 46 44 41 41 42 43 44 44 44 43 43 42 41 41 42 43 42
36 39 42 46 49 51 51 49 50 51 52 52 51 49 50 49 48 47 47 46 45 45 43 42 42 43 42 42 42 42 43 41 40 40 40 41 41 41 42 42 44 45 46
40 41 42 45 49 51 52 52 51 50 51 51 50 49 48 48 48 47 47 47 46 44 43 43 44 47 46 45 45 44 44 44 43 41 40 40 40 42 43 43 44 41 39
38 40 43 44 45 46 50 50 50 50 49 49 50 49 47 47 47 48 48 47 44 43 43 43 45 46 47 48 47 47 46 45 45 44 42 41 42 41 40 40 39 37 36
45 46 47 47 47 48 49 50 52 53 52 51 50 50 50 51 48 48 47 47 46 46 47 47 49 49 49 50 49 48 47 46 44 45 44 42 41 39 36 35 36 37 35
50 52 52 53 53 53 52 51 52 53 52 53 53 54 55 52 50 48 48 49 50 50 48 48 49 49 49 49 50 48 46 45 44 45 44 41 40 37 33 33 35 31 27
51 54 55 56 55 55 55 55 54 54 54 53 52 52 52 53 52 52 51 50 50 49 49 49 49 48 48 48 47 46 45 44 43 42 41 39 38 32 31 33 30 26 24
51 52 52 51 54 55 53 52 51 51 51 52 52 50 50 51 51 51 50 49 48 47 46 47 46 46 44 44 44 43 42 40 39 39 38 37 33 31 30 29 26 21 20
54 56 56 53 55 56 57 57 54 51 50 50 50 49 48 49 49 49 49 47 46 45 45 44 43 43 43 41 41 40 39 37 37 35 34 33 31 29 28 24 19 17 17
57 56 53 48 49 51 53 56 58 57 58 54 51 50 50 48 48 47 47 47 46 44 44 43 42 41 39 40 40 42 39 37 38 36 35 32 29 27 28 24 20 19 20
61 57 53 51 50 51 51 53 53 51 51 53 57 54 51 50 49 48 46 45 45 44 44 42 40 38 37 38 39 38 39 40 37 32 32 30 28 27 25 24 22 22 22

GFSMW_500_spd_081.txt.gz
Wind_Speed
47 40 39 31 31 29 43 30 34 33 27 36 39 42 37 39 38 37 36 32 32 43 39 36 36 35 34 34 32 32 32 34 36 36 36 36 37 39 39 40 40 42 40
46 41 42 41 35 31 22 21 32 30 30 40 29 35 49 45 40 40 42 39 35 35 34 35 34 34 36 35 32 34 34 35 35 36 35 36 38 41 42 42 43 43 44
51 49 38 34 28 36 33 27 26 29 35 34 31 23 37 42 51 48 41 39 36 31 39 36 37 35 36 34 37 38 38 39 38 38 36 36 37 39 42 44 43 42 40
61 56 46 32 27 26 24 20 28 21 22 20 25 25 23 31 29 41 42 40 41 37 40 40 41 39 38 37 30 36 35 30 33 39 38 40 42 43 41 44 45 45 44
33 38 36 34 36 32 24 22 19 19 20 18 27 21 26 32 29 37 39 35 41 39 44 39 33 32 38 35 35 43 42 39 37 38 37 35 38 40 42 43 46 47 49
45 37 33 31 30 26 26 27 25 28 28 26 25 26 25 23 23 29 31 34 31 34 33 31 32 29 39 42 39 46 42 36 34 32 31 33 39 42 43 45 44 43 44
39 38 34 35 32 32 31 32 36 36 34 30 29 28 28 27 27 24 30 29 31 30 30 31 32 35 39 34 38 34 34 34 36 41 33 37 41 41 43 45 45 46 49
35 33 38 40 39 37 36 36 37 38 35 32 34 33 33 31 29 30 29 35 36 39 33 37 36 34 42 47 42 47 48 43 40 40 40 43 46 48 50 53 55 55 54
36 26 36 42 42 35 37 41 39 38 36 37 39 36 35 34 35 32 30 31 35 37 36 34 38 40 39 45 42 44 44 43 44 48 47 46 47 49 50 51 52 55 54
30 36 35 38 35 34 37 41 42 41 39 36 34 34 36 36 37 38 35 35 37 38 36 41 42 40 40 36 39 43 45 46 46 45 46 49 50 51 51 51 50 51 51
35 33 32 31 34 34 36 39 42 41 40 39 35 36 36 37 36 36 38 36 34 34 36 38 39 40 40 41 44 46 45 45 47 48 49 50 50 51 51 49 49 49 49
25 29 32 34 34 36 38 40 43 41 39 37 37 37 33 32 33 34 35 35 36 38 39 40 40 41 42 40 36 33 33 35 38 39 41 42 42 43 44 45 45 45 46
21 25 27 27 30 31 34 36 38 41 43 43 40 37 37 37 39 40 42 41 40 40 40 39 39 38 36 35 35 36 37 40 41 42 44 46 47 49 50 50 50 49 49
21 27 28 30 33 33 34 35 36 39 41 43 44 44 44 43 43 44 45 44 43 44 43 43 42 40 39 39 40 42 42 42 43 45 47 48 48 50 51 51 50 49 48
27 30 33 34 33 34 37 40 43 44 45 46 47 48 49 50 50 49 50 49 49 46 44 45 45 45 43 43 43 43 43 43 44 44 41 41 41 42 42 43 43 43 43
33 36 39 42 46 48 49 51 54 54 54 55 56 55 54 54 55 55 54 53 50 48 47 47 46 45 46 45 44 42 41 41 40 40 40 41 40 40 41 41 40 40 40
35 39 42 46 49 53 54 55 56 57 58 59 57 58 61 61 59 59 57 55 54 53 51 51 48 47 45 45 43 40 39 40 41 42 43 43 43 44 43 41 40 40 40
36 39 42 45 47 49 51 52 54 55 56 56 56 55 54 53 54 53 53 52 51 50 50 49 49 47 46 46 44 43 43 45 45 46 47 45 44 45 46 42 40 40 39
39 41 43 45 47 49 51 53 55 56 56 56 56 56 56 55 53 51 50 49 49 49 50 48 48 46 46 45 45 45 45 44 45 45 46 45 45 46 45 42 40 39 38
46 48 51 53 53 53 53 54 55 55 55 56 55 57 58 56 55 54 52 49 49 48 49 49 48 47 47 47 47 47 46 46 47 47 46 47 46 45 44 41 38 38 36
50 53 56 58 60 61 60 59 58 58 57 56 56 56 57 57 58 55 50 49 49 48 49 50 49 48 48 47 48 47 46 46 47 47 46 46 46 44 42 39 37 36 32
49 52 56 60 61 62 63 61 60 57 56 57 57 56 58 55 53 54 54 54 53 53 51 50 49 49 47 47 47 47 47 46 47 46 43 42 42 40 39 37 35 31 31
52 54 56 58 61 61 60 58 56 56 55 53 52 53 52 52 54 54 52 53 53 52 52 51 49 48 48 48 47 46 44 44 42 41 41 39 38 36 35 34 32 29 27
58 64 67 63 62 60 59 58 57 52 53 58 57 55 53 51 51 50 52 53 51 50 49 48 47 47 47 47 45 44 42 41 42 40 38 36 36 35 33 32 29 27 26
64 69 64 62 61 59 55 53 51 49 48 54 54 54 55 55 54 51 51 51 51 49 48 48 48 48 47 46 44 42 42 41 39 39 39 39 36 34 34 31 28 27 26
71 69 69 68 65 61 59 56 53 53 53 53 55 54 52 50 51 54 53 50 51 51 49 47 47 47 47 45 43 42 40 41 39 38 39 38 38 33 30 29 26 28 27

GFSMW_500_spd_084.txt.gz
Wind_Speed
40 31 42 45 47 43 37 33 22 35 36 44 55 54 56 54 53 61 57 64 54 43 43 40 39 40 41 40 40 42 40 39 37 36 37 39 39 37 37 38 39 40 40
42 45 42 41 43 39 31 29 26 26 28 35 40 53 50 51 45 45 48 55 52 47 38 34 42 47 44 43 41 41 41 41 38 38 38 41 39 38 37 38 40 42 41
50 40 35 47 52 39 23 23 18 29 32 41 33 42 44 52 49 39 40 45 43 40 34 32 32 39 42 46 46 43 41 41 42 43 42 41 41 37 38 40 42 43 43
41 53 34 40 41 46 42 42 36 31 31 36 28 41 48 48 46 50 44 44 41 43 40 41 38 35 47 42 41 38 35 32 30 29 33 37 42 43 42 41 44 46 45
44 40 43 47 34 30 34 34 39 35 28 31 33 34 38 43 28 48 55 54 49 47 45 46 42 45 39 40 38 40 41 36 38 37 34 35 37 38 39 38 37 44 44
40 42 46 44 43 36 26 23 26 26 22 29 25 20 20 25 25 26 23 45 57 54 48 51 48 45 38 41 40 34 36 37 42 46 47 40 38 36 36 36 38 38 38
33 39 19 27 23 22 23 25 25 28 24 22 19 26 21 23 21 26 24 26 29 37 46 42 49 47 37 39 42 36 36 42 43 43 45 44 38 39 38 34 32 35 41
30 28 30 26 24 24 22 22 23 25 25 22 27 28 25 24 21 23 23 20 24 22 28 27 31 32 30 36 38 35 35 43 41 43 40 38 37 38 41 42 43 40 42
30 28 28 25 28 26 28 27 28 28 27 29 29 30 31 31 28 30 27 23 27 28 26 28 26 28 38 42 44 42 43 43 43 42 35 37 38 38 40 40 43 45 45
21 26 22 28 31 32 33 29 29 32 33 34 35 35 32 34 33 32 31 32 32 34 34 36 38 37 39 43 38 42 37 34 34 36 37 39 38 36 36 37 38 40 41
14 22 26 25 26 28 31 31 34 37 38 38 39 37 36 35 34 36 37 38 39 40 40 38 39 40 41 42 41 37 36 38 39 42 43 36 35 35 35 36 38 40 42
24 26 33 31 27 29 31 33 35 38 40 39 39 40 39 39 39 40 41 41 42 40 40 40 39 39 39 40 39 40 40 39 36 37 35 34 37 38 38 40 42 45 47
21 26 27 28 29 30 34 36 37 39 43 46 45 44 43 41 41 42 40 38 38 38 40 39 40 41 41 40 40 41 40 40 41 38 37 38 39 39 39 41 42 42 42
17 22 25 28 31 34 36 36 39 42 44 45 46 48 48 47 47 47 45 44 43 42 42 43 42 42 41 42 43 42 39 39 39 39 41 42 41 42 40 42 42 38 37
20 21 24 26 30 35 39 41 42 43 44 45 46 46 48 50 51 50 48 47 47 46 45 45 46 46 47 47 45 43 42 41 41 42 42 42 41 38 41 42 40 40 42
28 29 32 34 36 38 39 41 45 48 51 51 52 53 52 51 51 50 50 52 52 52 53 51 51 50 48 47 47 48 48 45 45 46 42 42 40 40 43 44 44 45 46
34 38 41 42 42 44 47 51 52 53 54 55 57 60 64 64 62 60 59 60 59 59 57 55 55 54 53 51 51 53 51 49 47 47 46 43 41 41 44 46 46 47 46
34 38 42 45 47 48 49 50 51 54 56 57 59 60 61 64 66 66 63 59 58 58 59 61 60 59 58 57 57 55 53 50 48 48 45 43 42 43 43 44 46 46 46
38 42 44 47 49 51 53 55 56 57 57 56 57 58 59 59 60 60 60 59 58 56 53 53 54 53 53 53 53 52 51 49 47 47 45 44 43 43 45 45 45 44 45
44 47 50 54 58 60 63 64 64 63 62 61 60 59 57 56 56 56 55 55 55 56 56 53 51 51 51 52 52 51 50 49 48 47 46 45 46 46 43 44 45 44 45
45 48 51 54 57 57 60 63 66 68 68 67 65 63 60 59 58 56 54 54 57 55 55 52 53 51 49 49 50 51 50 49 46 47 46 45 46 43 43 44 45 44 42
49 53 58 62 65 66 66 65 63 62 63 62 61 60 58 56 55 57 55 54 53 54 54 55 50 48 47 47 49 49 49 47 47 47 45 44 44 43 42 42 42 39 37
54 58 62 65 70 74 73 68 67 64 60 60 58 57 57 57 56 54 52 51 51 53 54 51 51 53 53 50 49 48 47 47 45 43 44 43 44 42 40 40 38 36 34
57 60 63 70 75 72 71 72 71 65 60 56 55 58 57 55 57 55 54 53 50 49 49 50 52 50 50 49 49 49 47 46 45 44 44 44 42 41 40 38 36 35 35
65 69 73 75 73 72 72 72 70 67 62 57 52 50 52 53 54 57 56 53 54 51 52 49 51 52 49 48 48 47 47 45 45 44 43 41 40 40 38 39 37 34 33
71 74 74 72 71 71 71 71 71 68 66 62 58 53 50 55 57 57 56 55 52 51 54 53 51 49 48 48 48 48 46 45 44 42 41 39 40 40 40 40 38 34 31

GFSMW_500_spd_087.txt.gz
Wind_Speed
61 57 55 57 49 36 36 22 21 22 40 38 49 42 49 55 57 56 57 58 56 57 55 60 58 53 51 49 43 40 41 40 41 40 40 42 41 41 40 40 39 40 40
59 49 46 50 45 42 28 31 32 21 18 32 30 28 36 50 58 56 57 62 53 55 61 57 54 55 52 39 41 41 44 43 42 43 43 42 42 42 44 41 42 43 42
46 46 44 43 52 35 32 34 36 26 25 18 27 39 41 33 45 60 59 53 53 46 56 59 56 54 45 38 37 40 45 43 44 42 42 42 42 46 45 44 44 46 45
47 42 50 50 37 50 41 42 34 28 24 24 30 38 45 44 40 44 45 51 50 47 39 56 56 54 34 27 33 40 38 41 42 43 40 37 36 42 44 44 45 47 48
43 46 44 41 40 37 47 46 37 31 30 36 29 39 39 47 58 45 47 47 55 49 45 44 55 46 42 35 35 43 40 40 49 39 42 43 42 39 38 36 37 39 42
31 37 51 36 36 24 37 48 38 38 36 32 26 30 35 39 59 59 57 55 42 48 53 55 52 45 46 39 49 48 50 50 40 40 43 42 41 42 43 37 38 38 40
32 16 21 27 34 34 33 28 31 35 37 30 32 23 18 29 26 48 63 66 49 51 57 61 59 60 50 46 31 45 43 46 42 36 32 42 40 44 47 49 45 40 33
12 19 20 24 28 28 29 17 34 29 23 23 20 17 18 18 17 27 26 31 26 38 30 36 59 68 54 58 61 62 43 46 45 36 38 34 40 41 46 42 37 33 35
12 13 10 18 24 23 26 16 16 20 22 26 23 19 17 15 16 20 22 18 21 22 28 18 18 30 32 34 30 33 37 42 40 37 39 43 46 34 30 31 33 35 35
18 18 11 15 22 21 20 17 19 23 22 20 23 24 23 26 28 27 25 27 22 25 23 25 26 28 27 29 33 32 35 37 37 33 35 28 30 31 31 31 32 31 31
13 15 10 15 21 24 20 18 24 27 26 26 26 28 31 29 30 30 30 31 30 30 30 31 32 31 34 36 37 40 39 40 38 36 35 33 31 30 29 29 29 32 32
10 8 11 15 17 15 15 19 24 27 30 32 34 35 34 35 35 34 35 35 34 35 37 38 41 44 44 42 42 40 40 40 37 37 37 35 32 30 31 31 32 33 35
16 18 15 19 21 21 25 24 27 31 31 33 35 35 37 38 37 37 37 36 40 41 40 40 40 42 42 41 41 42 41 41 40 38 40 37 36 35 34 33 36 37 37
12 14 15 19 22 24 29 28 31 34 37 40 41 41 43 44 45 44 45 45 44 45 43 42 40 39 38 38 39 40 41 41 41 40 39 41 41 41 39 39 41 43 41
11 16 20 23 27 31 34 35 38 39 40 43 43 45 46 48 47 47 47 47 49 49 48 46 45 44 42 41 40 41 42 41 42 42 42 42 42 43 43 42 42 42 40
16 20 23 26 29 33 35 37 40 42 45 46 49 51 51 51 50 49 48 48 49 52 52 51 49 47 47 47 46 46 45 44 43 43 43 44 44 45 47 47 45 43 41
27 28 29 31 34 38 41 43 46 49 51 54 54 56 57 58 58 57 56 55 54 54 55 55 55 54 53 53 52 51 52 51 48 48 47 46 48 49 50 50 46 44 42
28 32 34 38 42 45 45 46 47 49 52 55 59 62 64 65 67 66 66 65 65 65 63 64 63 60 59 60 60 59 58 57 53 51 52 54 54 52 51 52 47 45 43
29 33 38 43 47 50 53 54 57 60 61 62 62 62 62 64 65 66 67 67 66 64 63 62 59 56 55 55 56 56 57 58 57 55 55 55 53 53 50 49 47 44 43
33 36 40 46 51 56 60 63 64 66 67 66 66 66 66 67 68 65 63 64 63 61 59 58 57 54 51 52 54 54 55 55 55 54 52 53 51 51 48 48 46 44 42
41 45 49 54 58 61 66 68 73 76 80 79 75 66 65 65 61 62 65 65 64 63 61 59 56 55 53 51 52 54 54 54 54 52 52 51 49 48 46 46 46 44 40
43 46 51 55 60 65 68 73 77 80 84 85 73 66 62 61 62 61 59 60 60 61 59 59 56 54 52 52 53 54 53 53 50 50 51 50 47 45 45 47 45 41 40
49 53 57 62 67 72 76 77 83 86 81 81 79 75 65 61 54 50 56 57 57 56 56 56 55 55 53 50 51 53 55 54 51 49 49 47 46 46 47 45 43 41 39
55 60 63 67 74 80 84 87 87 86 84 82 79 76 70 61 54 49 49 54 55 55 56 56 54 53 55 53 51 51 55 57 56 53 49 48 48 46 45 43 42 39 37
62 67 72 78 82 85 85 84 82 80 77 75 73 71 68 64 57 50 47 49 53 55 55 54 55 55 52 52 52 52 53 53 54 54 52 48 47 46 44 43 39 38 37
69 74 79 82 83 81 78 72 68 64 61 60 61 62 64 64 62 57 52 50 52 57 57 55 53 57 55 53 52 50 50 52 53 52 50 48 47 45 44 41 39 38 35

GFSMW_500_spd_090.txt.gz
Wind_Speed
50 47 49 49 54 56 59 48 29 28 30 38 55 48 53 41 39 60 52 41 35 53 58 57 56 54 54 53 47 50 47 46 47 41 38 40 40 43 41 40 42 41 42
42 45 50 53 51 42 50 38 30 31 20 18 34 49 35 40 35 38 58 51 39 51 57 59 56 57 56 51 53 53 47 47 51 37 41 40 42 44 41 43 42 42 44
36 43 48 54 47 46 50 42 33 28 18 18 23 30 29 35 33 36 43 36 62 59 59 54 55 53 57 57 47 53 47 51 53 41 41 44 44 45 44 43 41 46 46
33 41 44 48 48 47 54 39 28 24 24 25 21 29 28 44 43 32 38 33 45 56 57 48 48 55 54 55 53 43 46 49 43 37 37 39 34 36 37 34 37 38 39
24 33 34 45 46 44 45 53 34 24 26 30 24 24 35 38 42 43 49 35 30 52 37 39 42 40 33 46 47 47 39 38 40 40 36 40 46 47 40 39 40 40 40
24 30 30 43 38 38 43 49 37 36 38 41 25 27 32 39 39 49 48 48 43 38 49 59 58 50 44 47 49 49 44 49 41 40 38 39 45 43 42 40 38 43 42
22 24 32 31 40 37 40 42 47 41 41 39 32 30 29 37 38 44 58 59 54 53 51 51 42 38 44 51 51 50 48 38 38 37 45 47 39 37 39 41 41 41 41
19 17 18 21 19 30 27 25 21 35 40 42 32 26 23 28 25 38 59 54 57 56 55 61 64 64 59 58 55 51 49 40 40 43 47 43 36 41 44 40 40 38 37
15 12 18 16 9 10 10 29 24 19 28 33 32 22 22 20 15 12 17 28 34 41 63 72 64 52 39 46 55 52 55 44 49 59 50 47 41 33 46 47 33 24 20
6 9 6 18 7 9 17 11 9 11 13 21 26 24 19 17 19 20 19 17 21 19 16 22 25 30 31 26 30 40 33 34 33 26 31 30 32 29 26 20 20 22 22
2 5 7 7 5 19 12 16 15 12 13 16 18 18 21 19 19 22 24 24 21 21 21 22 23 29 29 31 32 27 27 34 34 30 26 28 30 29 25 26 25 24 26
7 4 5 3 8 5 6 14 14 16 19 20 21 23 23 24 26 27 27 28 27 29 33 32 32 28 31 32 28 31 33 32 34 34 36 34 32 31 32 32 29 30 29
9 5 6 2 10 5 8 11 17 19 21 22 25 27 27 27 30 30 31 31 31 32 37 37 40 41 41 42 43 42 43 45 43 43 42 41 40 40 36 31 31 32 32
13 11 12 13 14 14 13 16 20 23 25 27 30 31 34 36 38 38 38 37 39 39 40 39 40 42 42 43 41 43 43 43 44 45 46 45 45 40 39 37 35 35 37
7 8 9 11 15 17 20 23 26 28 32 33 35 38 41 43 43 44 44 44 43 44 45 44 44 46 46 45 43 43 41 40 40 40 42 42 42 41 40 38 38 39 39
9 10 13 17 20 23 25 28 29 34 36 38 42 44 45 48 50 50 50 50 50 50 48 46 45 46 45 45 45 44 43 43 42 41 41 41 41 41 40 40 40 41 42
13 15 17 19 22 24 28 30 34 35 38 39 42 45 49 53 57 59 60 60 57 55 54 53 52 50 49 49 47 48 48 48 47 46 44 43 43 42 41 43 44 43 44
16 19 22 24 28 30 34 37 42 45 49 49 51 51 54 55 57 57 59 62 66 65 62 62 60 59 59 58 56 55 53 52 53 52 51 49 49 48 47 46 47 47 50
32 34 36 37 40 42 45 48 50 52 57 60 61 63 65 66 66 66 65 65 66 68 68 65 65 63 62 60 59 58 55 55 55 54 53 52 52 52 52 52 52 54 52
30 34 38 43 48 51 53 56 59 63 67 70 73 77 79 79 78 74 71 67 67 68 70 68 66 64 61 56 54 56 55 54 55 54 54 53 53 53 52 53 53 53 50
33 36 39 42 46 50 56 60 63 66 70 74 80 83 86 88 88 88 85 77 64 61 63 65 65 67 66 61 57 54 52 52 54 54 54 54 54 55 55 53 51 51 49
38 41 45 50 54 58 62 65 71 76 80 84 86 91 92 90 86 83 81 77 70 65 58 58 63 63 64 61 60 58 56 54 53 54 55 55 54 52 51 51 50 48 47
43 47 50 54 59 65 70 75 78 83 88 89 93 95 93 91 89 86 80 70 62 58 53 51 54 63 59 58 59 59 59 57 55 54 54 53 53 50 51 48 47 46 45
48 52 56 60 66 74 79 82 87 91 93 94 91 87 82 77 74 72 70 65 60 54 51 52 54 56 59 57 56 57 58 57 57 56 57 53 51 50 51 49 46 45 45
54 58 63 69 75 80 82 88 91 92 89 81 69 60 58 57 56 57 58 57 55 52 50 54 58 59 60 60 60 59 57 57 56 58 58 54 52 49 52 54 52 47 47
61 67 73 77 82 84 87 86 82 75 66 57 52 49 47 44 42 41 43 48 51 53 53 55 57 61 61 61 62 62 58 55 54 58 50 53 53 53 51 54 55 52 48

GFSMW_500_spd_093.txt.gz
Wind_Speed
61 58 57 55 53 48 47 49 54 45 44 33 25 41 83 55 39 28 27 29 40 60 63 57 56 56 55 53 52 52 51 51 51 49 44 44 42 46 42 41 38 36 36
59 58 54 53 51 43 47 49 51 45 41 27 27 26 37 79 70 46 34 29 37 42 53 58 60 59 57 56 56 56 55 55 51 46 54 50 43 43 45 43 39 41 41
50 49 42 49 42 43 44 47 44 52 35 31 21 22 21 44 63 49 43 30 30 46 38 41 51 62 62 62 61 59 54 52 53 63 56 46 44 45 51 48 44 44 45
36 41 40 39 40 42 43 44 41 58 42 32 22 24 27 24 44 50 40 34 33 42 48 41 37 50 59 62 64 66 51 52 42 46 43 44 47 55 35 38 38 37 36
27 29 29 31 40 42 39 39 39 56 32 40 28 20 24 29 32 39 38 40 33 31 42 44 41 34 41 40 38 54 50 35 36 36 37 41 36 34 33 36 41 42 44
17 14 20 25 28 30 34 44 40 47 38 27 19 28 23 24 39 46 39 34 40 37 37 41 52 58 49 45 35 33 35 40 43 38 43 46 42 45 41 40 43 37 47
12 15 16 20 21 25 37 41 38 47 36 33 30 28 28 29 28 45 42 36 41 48 49 52 48 39 50 46 48 34 43 38 38 43 52 48 48 48 42 46 48 48 42
14 15 19 17 18 24 33 33 34 40 40 33 35 29 29 26 26 41 32 40 50 48 47 47 46 46 47 47 47 45 46 48 50 46 44 43 38 38 34 35 47 46 45
15 13 8 18 25 32 26 24 17 28 28 22 30 28 30 22 33 30 34 39 48 44 45 53 48 53 55 50 51 55 56 43 45 46 47 47 41 46 56 47 43 45 48
12 6 9 18 21 25 13 17 17 29 18 14 24 34 37 27 22 20 18 14 14 23 26 33 35 40 44 63 54 44 46 37 36 32 35 36 44 43 41 46 37 48 41
11 12 10 19 12 11 22 15 13 14 8 14 17 20 25 23 23 20 22 19 18 18 16 20 21 23 24 24 29 29 37 34 32 30 27 29 31 34 30 23 22 22 20
13 8 13 9 7 15 9 18 12 7 4 7 8 13 14 16 15 14 15 14 13 17 23 28 28 29 29 28 26 32 34 29 31 32 33 31 32 33 26 28 25 27 27
12 10 12 15 7 6 9 5 2 6 8 10 10 11 11 15 17 19 21 22 23 24 27 28 30 31 34 35 31 32 32 36 35 37 33 33 31 34 36 33 33 33 35
4 3 2 5 6 7 7 8 10 13 16 19 19 21 23 25 27 28 28 29 31 33 34 36 39 39 39 42 45 47 45 45 45 44 44 42 43 45 44 40 38 39 36
3 4 6 7 11 13 13 15 15 19 21 23 25 26 30 33 34 34 36 36 37 38 39 40 42 44 46 47 48 50 53 52 53 52 53 52 51 53 52 47 44 43 42
5 7 9 11 13 15 18 20 22 24 24 26 27 28 31 32 35 37 39 43 46 47 49 48 48 48 49 48 49 51 53 54 54 51 48 49 47 49 48 47 45 44 42
6 5 7 9 11 14 17 20 23 27 30 33 35 38 40 42 44 46 49 49 49 49 49 52 55 56 58 57 56 55 53 54 54 52 51 50 50 48 48 47 45 45 43
13 15 17 20 22 24 28 31 33 36 38 42 44 47 50 53 55 56 57 60 61 60 60 60 58 59 60 61 62 62 60 58 56 56 55 53 53 53 52 51 48 47 45
21 23 25 27 29 31 33 37 40 42 44 49 52 53 56 60 66 65 67 70 71 70 70 69 67 65 63 66 66 64 63 64 62 63 61 58 57 56 55 54 53 51 49
28 29 31 33 36 39 43 47 51 53 54 60 60 64 69 72 73 76 80 81 82 81 80 77 74 69 65 66 68 69 69 65 62 63 62 60 62 61 59 58 57 55 55
29 32 35 37 40 44 50 55 58 60 66 71 74 80 85 86 88 91 96 96 93 91 85 84 81 79 75 64 64 67 69 67 64 60 61 62 62 62 61 61 59 58 56
34 37 40 42 46 50 54 59 63 67 71 76 83 89 92 96 98 97 95 94 92 90 86 84 80 79 76 68 58 62 66 68 68 63 62 62 62 62 61 59 57 55 54
38 41 45 47 52 56 61 64 69 76 81 86 91 96 100 98 97 95 90 86 81 76 73 70 68 62 61 60 59 61 63 66 66 65 64 64 61 60 59 57 55 52 50
42 46 49 54 58 63 68 74 78 84 91 96 100 100 96 89 79 70 64 60 59 58 59 59 59 63 65 67 67 65 65 67 65 63 63 63 63 60 59 56 53 52 51
47 50 55 59 64 70 76 82 88 94 98 99 91 81 74 67 60 55 51 50 50 49 48 50 53 56 63 68 70 67 67 66 63 61 61 60 60 58 59 56 53 52 51
52 57 60 66 71 77 83 89 93 96 92 83 74 69 66 62 57 53 50 48 46 44 42 41 44 50 56 64 68 67 65 62 62 62 59 56 57 57 55 57 55 55 53

GFSMW_500_spd_096.txt.gz
Wind_Speed
66 68 64 62 61 58 55 53 56 52 52 48 48 45 44 45 36 38 52 35 35 37 39 40 69 67 62 59 55 52 51 50 49 49 49 48 48 46 43 48 46 47 33
64 68 65 63 61 59 55 53 57 53 51 52 53 45 41 38 37 32 64 64 51 27 25 36 45 67 60 59 60 56 53 54 55 55 55 52 48 46 47 52 60 56 42
63 65 63 61 57 50 51 49 58 55 53 47 49 38 39 27 20 29 37 61 56 34 26 27 32 58 60 63 61 60 59 58 59 58 59 58 54 43 52 58 58 51 43
47 56 49 55 52 53 52 46 45 54 44 45 49 42 29 20 26 30 31 44 58 54 37 35 38 36 54 64 64 64 63 61 63 68 59 49 55 55 56 53 48 43 43
24 31 38 41 41 45 49 41 47 47 48 42 46 43 36 29 33 34 42 36 38 55 55 41 37 39 36 39 44 48 51 62 67 45 37 35 31 30 33 29 35 37 37
17 23 32 36 33 36 37 40 44 44 44 40 42 45 43 32 30 34 42 39 39 41 47 42 41 48 46 42 38 32 33 32 32 42 35 43 40 39 39 39 40 36 37
16 15 16 21 20 28 37 38 37 40 38 38 45 44 41 32 35 30 31 43 44 45 48 48 42 50 52 48 49 43 38 38 42 46 41 34 35 42 44 48 50 50 48
17 14 16 18 20 18 24 30 33 34 36 39 45 40 36 39 26 24 25 42 45 42 46 44 46 45 45 49 45 47 52 61 42 42 43 42 42 46 44 48 49 50 42
12 13 12 14 15 15 15 23 24 23 26 35 45 33 29 30 26 26 25 27 49 44 34 45 46 48 47 48 52 48 43 43 46 52 52 54 50 45 46 46 43 43 42
15 15 8 8 10 14 12 15 17 18 14 24 36 33 19 20 23 21 22 27 37 41 44 42 44 47 44 49 52 49 46 46 47 50 49 51 47 40 40 41 41 48 48
5 4 3 15 14 13 17 13 19 22 15 24 24 14 23 29 20 21 23 20 20 20 25 33 36 38 33 33 37 40 45 48 49 42 50 40 35 45 44 39 42 44 42
14 15 18 9 11 15 18 20 16 15 14 13 4 6 8 15 22 23 25 25 22 24 25 25 27 30 32 32 31 28 31 34 32 34 32 36 34 30 34 34 30 30 33
11 10 12 14 16 12 11 8 9 6 5 3 9 8 5 10 12 13 14 14 17 19 21 23 26 29 33 35 35 35 36 37 35 41 40 39 34 33 37 38 34 28 36
10 9 8 8 6 1 3 2 4 7 9 14 13 15 16 16 19 20 22 25 27 29 31 32 34 36 38 38 35 37 36 35 34 33 33 35 35 36 33 40 39 32 41
6 4 2 2 4 4 5 7 9 12 15 17 19 19 21 24 26 28 30 34 36 37 39 39 40 42 43 44 46 47 47 47 47 47 47 44 44 44 46 41 41 48 49
6 6 6 5 5 7 7 8 9 11 12 16 19 21 25 27 29 30 32 34 36 35 37 38 41 48 50 51 51 50 50 51 53 55 56 56 58 58 58 59 60 61 57
2 0 1 4 7 9 11 14 16 19 22 25 27 31 33 36 38 41 45 48 48 47 48 49 50 53 51 53 53 55 57 58 58 55 56 58 59 60 58 59 58 54 55
4 7 9 11 13 16 19 21 24 26 30 33 36 38 42 46 51 54 54 56 60 62 63 63 62 61 60 62 63 63 60 60 62 62 61 60 59 59 60 59 58 56 57
12 13 15 17 19 22 24 27 28 31 35 39 42 45 49 54 59 62 64 67 69 71 71 72 73 70 69 72 74 73 70 67 67 67 68 64 63 62 62 62 61 60 60
15 17 18 20 23 26 29 32 36 41 44 47 50 56 61 65 69 73 75 79 81 83 85 84 82 82 82 82 80 80 76 74 73 73 73 72 68 68 68 66 64 63 62
22 24 26 28 32 36 37 39 42 48 52 57 62 66 69 74 80 84 89 93 95 98 100 100 102 100 97 96 93 87 81 80 78 77 74 76 75 73 71 71 70 69 69
24 27 29 32 36 39 41 45 49 54 58 63 69 75 81 84 89 95 100 105 109 110 106 102 98 94 92 91 86 80 75 73 77 80 74 69 75 76 73 71 71 71 70
30 32 35 38 42 43 46 49 55 60 64 70 77 82 87 96 105 110 110 103 93 89 86 80 76 69 67 67 68 69 70 71 70 66 70 68 72 75 74 70 70 69 66
34 37 40 43 47 50 54 58 63 68 73 78 83 91 100 104 104 101 96 90 78 70 62 56 54 54 55 58 63 68 72 77 80 79 77 76 77 77 74 72 72 70 66
39 42 46 49 52 56 61 66 71 75 80 86 94 98 98 95 87 81 78 77 74 70 61 52 49 48 49 50 54 58 64 71 80 79 77 73 72 73 71 70 69 68 63
44 47 51 55 59 63 67 72 78 82 88 94 94 90 78 69 70 69 66 64 62 62 59 51 48 48 45 46 46 49 54 63 72 73 72 67 64 63 54 53 63 61 59

GFSMW_500_spd_099.txt.gz
Wind_Speed
69 73 70 70 69 67 62 62 61 59 56 58 52 51 47 52 50 49 47 41 35 49 57 57 60 46 51 67 72 62 60 52 58 54 51 50 48 48 47 45 43 40 41
59 69 70 68 66 64 61 60 58 56 53 56 55 52 50 51 44 42 39 39 37 36 59 60 49 41 45 71 68 68 69 63 61 55 54 52 52 51 51 48 45 45 46
47 60 65 65 63 63 62 57 55 54 51 56 56 53 52 52 47 41 40 40 36 34 42 53 46 39 37 35 57 71 69 68 69 64 63 59 58 57 58 57 50 52 50
36 46 57 61 59 58 57 53 54 52 50 51 57 57 51 43 40 41 32 30 27 26 39 53 42 45 32 33 38 51 69 69 70 67 60 61 62 63 61 58 58 60 60
13 18 34 51 43 45 48 49 47 42 47 52 54 56 45 42 47 35 29 29 34 39 35 35 38 45 37 48 42 38 46 66 68 63 60 63 64 66 60 49 38 30 27
15 13 19 30 34 36 43 44 42 42 41 48 53 52 47 47 44 41 36 34 36 43 41 42 49 42 41 38 41 45 36 42 45 47 46 44 42 38 34 35 33 35 40
13 13 14 22 29 28 27 32 41 39 40 47 46 50 51 48 43 42 40 35 36 40 38 42 42 49 44 42 43 40 37 37 40 41 45 42 46 47 35 38 41 48 47
14 12 11 18 21 21 25 27 30 33 36 43 44 45 46 42 44 47 48 34 35 38 48 50 49 48 47 42 44 48 50 48 43 41 43 42 39 46 43 40 39 38 46
12 12 13 17 17 15 16 22 26 29 32 39 43 40 39 43 40 46 43 40 36 32 44 46 39 46 47 43 46 53 51 52 50 52 49 50 53 43 44 40 42 52 53
14 15 13 11 16 19 20 20 17 20 19 24 28 33 32 42 34 31 34 39 35 29 30 42 45 41 40 44 45 46 50 53 48 46 45 50 51 47 48 49 51 51 49
10 6 3 11 14 15 13 17 19 20 15 14 15 18 30 40 32 29 25 28 26 32 36 36 39 41 40 44 41 45 48 49 49 49 52 49 51 48 51 56 59 49 47
11 6 3 9 13 14 5 8 17 13 14 14 16 14 17 14 22 37 30 24 25 26 27 29 35 39 46 43 45 45 53 49 50 56 48 44 51 54 52 47 42 46 42
21 21 17 8 7 15 14 11 17 20 11 10 11 5 2 7 10 9 14 18 25 28 26 28 30 31 32 35 38 40 42 40 41 43 44 39 37 41 37 38 38 44 43
12 11 10 12 11 12 10 7 5 8 5 6 6 8 9 13 15 18 18 18 21 24 24 27 31 32 35 36 37 40 43 45 46 41 41 44 44 45 46 43 40 40 43
10 9 7 6 4 2 2 3 5 7 7 10 11 12 14 17 19 20 23 26 29 30 33 36 39 40 43 44 45 46 47 49 49 50 50 45 43 43 43 42 41 41 37
5 4 3 3 2 3 3 3 3 5 7 10 12 14 17 21 21 24 27 31 31 33 37 39 42 44 46 46 49 51 52 54 53 53 54 54 55 53 53 52 50 45 45
3 3 3 3 4 4 5 7 9 11 14 17 19 23 26 29 31 33 35 38 39 42 47 50 52 54 56 58 59 59 59 59 59 59 57 56 58 58 59 60 61 59 59
2 3 4 5 6 8 10 13 16 19 21 23 26 29 34 37 40 43 46 50 54 58 60 62 64 66 67 69 71 71 71 70 69 67 65 63 61 61 62 63 62 60 62
6 8 9 9 11 12 15 17 21 24 27 30 34 37 42 46 49 52 55 60 63 68 72 75 77 78 81 82 83 83 82 80 79 75 75 73 69 67 67 67 65 65 64
10 12 13 14 16 18 21 25 28 30 32 35 39 44 48 52 55 58 62 68 73 77 83 87 91 92 93 93 92 93 92 91 89 86 83 80 78 76 73 71 69 69 67
13 16 18 20 22 24 28 31 35 37 39 42 46 50 54 58 62 66 72 78 82 88 94 98 103 107 109 110 111 111 105 98 95 94 90 88 86 82 80 78 76 72 73
20 22 25 28 29 31 34 37 41 43 46 48 53 56 61 65 70 75 82 88 92 97 105 112 116 116 111 104 98 92 87 85 86 84 82 85 88 90 87 83 80 79 77
28 30 32 35 37 38 40 43 46 49 52 55 58 63 67 73 80 84 90 98 106 111 112 109 99 91 80 77 74 70 70 70 72 73 74 74 78 81 83 85 85 83 80
35 37 39 41 43 45 47 50 52 55 57 60 65 70 76 81 86 95 102 106 101 91 84 81 78 75 70 67 63 62 62 62 63 66 70 73 83 84 84 85 85 81 77
41 42 44 46 47 49 52 55 58 59 62 68 73 78 82 88 96 100 95 85 77 76 75 74 73 68 67 59 57 57 57 56 55 57 60 66 77 83 81 81 79 70 59
45 46 48 49 51 53 56 59 62 62 67 74 79 84 89 96 95 83 74 75 76 74 69 64 58 57 56 49 50 54 53 51 50 49 50 53 58 69 77 74 73 75 58

GFSMW_500_spd_102.txt.gz
Wind_Speed
73 66 66 73 75 78 73 69 66 70 65 63 66 60 61 57 55 54 55 53 51 49 45 44 42 45 46 53 51 48 54 62 64 65 65 58 55 53 50 47 46 46 46
52 55 57 67 67 74 73 68 63 64 63 60 64 61 59 60 58 56 57 58 56 53 48 44 43 41 49 55 51 48 48 50 62 60 50 47 51 46 50 49 50 50 47
27 35 45 53 57 67 70 64 59 58 58 59 56 61 60 59 55 56 57 56 53 44 41 42 43 42 45 55 57 58 63 58 52 53 61 67 65 71 52 51 51 53 56
13 19 30 36 45 55 64 59 54 52 50 50 53 52 52 53 53 50 50 55 52 46 44 42 41 43 37 42 53 47 40 41 45 60 65 67 66 66 64 64 62 63 62
9 5 9 23 34 42 50 49 48 48 46 48 45 48 48 50 53 51 51 50 46 45 45 39 37 35 43 45 45 43 45 45 48 49 57 68 70 69 67 69 61 63 61
4 6 7 4 22 26 31 32 31 40 40 45 43 42 43 48 53 56 54 52 46 39 37 36 40 37 37 46 49 52 51 54 39 44 44 50 67 65 64 61 49 33 29
6 2 6 9 19 26 25 25 32 33 36 29 31 37 40 44 48 49 52 51 45 53 49 44 46 50 47 49 44 50 48 41 44 42 46 47 44 42 43 39 33 32 34
6 4 8 10 17 26 25 29 28 29 31 29 32 34 38 45 46 50 49 50 47 45 44 46 48 47 49 51 45 50 55 51 48 47 42 42 37 39 41 42 41 41 37
10 9 5 11 16 21 23 25 25 26 29 33 34 35 38 42 44 41 44 52 53 45 49 43 43 44 47 51 51 53 54 54 50 51 49 46 42 41 42 43 49 49 39
9 5 8 8 14 18 19 21 21 22 23 24 29 32 32 33 36 38 39 40 39 33 46 47 44 46 43 49 47 46 48 46 46 48 50 50 49 51 50 50 55 52 54
9 6 11 6 9 10 12 16 16 13 12 13 12 16 20 24 27 25 33 39 33 30 33 41 42 41 35 41 47 43 42 49 46 47 50 54 57 53 56 51 48 49 54
16 14 10 8 13 13 13 11 12 17 19 17 15 16 16 18 23 25 22 36 29 25 30 36 36 40 44 42 43 41 41 44 44 44 46 45 48 50 49 51 57 57 56
23 21 16 9 4 5 2 6 11 11 13 13 18 14 13 12 12 14 21 25 30 33 32 31 30 28 31 34 36 38 40 50 52 54 48 50 54 52 55 50 54 53 54
11 11 9 9 9 5 3 1 5 13 13 14 11 8 6 6 7 10 12 13 17 17 21 24 26 27 28 31 32 34 37 38 38 37 39 40 36 36 45 49 45 46 44
9 8 6 6 6 5 4 5 2 5 8 8 9 13 14 15 16 17 17 21 23 26 27 30 32 34 34 38 43 43 43 45 47 50 52 52 50 49 45 48 50 50 48
5 4 4 4 3 4 5 5 6 8 9 9 11 13 14 14 16 18 21 24 26 28 32 34 36 39 40 43 46 47 48 50 52 53 55 55 58 58 56 57 54 53 60
6 5 3 1 2 3 4 5 6 7 9 12 15 18 19 22 25 26 28 31 34 37 41 44 46 47 50 53 54 57 59 60 62 64 63 62 63 62 63 61 60 60 61
7 7 6 6 6 7 8 9 10 13 15 19 22 25 27 30 32 35 38 41 43 47 50 53 56 58 61 64 66 68 70 71 72 74 76 75 73 72 71 68 67 66 63
10 10 10 11 12 13 15 17 18 20 23 26 29 31 33 36 39 42 45 47 50 54 58 61 64 65 69 73 76 79 82 85 85 86 87 87 87 84 82 79 75 72 69
14 15 15 15 17 18 20 22 23 25 28 31 34 37 40 43 46 49 52 56 58 61 64 67 71 75 79 84 87 90 93 95 98 100 101 98 96 93 91 87 84 81 78
20 21 21 22 23 25 27 29 31 33 36 38 42 45 49 52 54 57 61 63 66 67 70 74 79 85 90 94 99 104 108 112 114 116 115 116 114 106 98 93 91 87 85
25 27 29 31 32 34 36 39 41 42 45 47 49 52 55 59 61 63 67 69 73 75 79 84 89 95 101 108 114 119 121 119 116 110 106 100 91 90 88 85 91 92 90
31 33 35 38 40 42 43 45 47 49 51 54 57 61 65 65 66 68 70 74 77 82 88 93 99 107 112 109 104 101 97 94 90 85 77 73 70 73 78 86 90 91 92
36 38 40 41 43 45 47 49 51 54 57 59 62 65 67 67 69 71 75 79 85 90 96 103 108 103 99 94 90 87 84 81 78 73 69 66 63 66 73 84 90 87 86
40 40 41 43 45 48 51 53 55 58 60 62 63 65 66 68 71 76 82 87 93 98 102 97 95 91 84 78 76 71 67 64 63 62 59 58 58 60 65 70 78 84 81
43 45 46 47 48 50 54 57 59 60 61 62 63 64 67 70 75 80 86 93 96 93 90 89 84 76 73 66 58 55 56 54 53 50 48 50 52 52 53 56 58 65 71

GFSMW_500_spd_105.txt.gz
Wind_Speed
65 67 74 82 79 73 73 76 77 77 70 68 69 68 68 70 70 55 61 58 57 50 55 49 49 48 47 50 50 48 49 50 55 55 54 44 56 51 46 41 44 50 51
60 66 66 75 76 77 76 70 70 67 69 65 63 66 67 69 71 69 62 64 59 52 49 50 51 53 51 46 46 44 46 51 55 57 55 54 58 55 53 59 59 57 54
32 26 27 24 29 39 52 60 61 60 56 61 61 58 58 61 64 68 62 61 66 60 53 52 56 57 52 44 49 48 47 56 55 47 55 54 51 44 47 54 55 55 56
29 26 19 17 21 29 40 51 54 56 52 53 49 51 52 57 55 59 65 54 57 56 52 54 56 59 49 44 47 48 50 50 55 53 50 53 55 55 48 46 53 55 56
16 20 22 16 7 16 29 40 43 48 53 58 50 47 45 47 52 48 55 57 51 52 51 52 51 53 52 48 48 50 50 44 54 56 52 44 48 47 51 52 60 66 69
20 21 21 13 4 7 15 23 28 36 43 48 45 41 40 43 44 45 45 48 54 54 50 49 50 48 49 46 47 44 42 42 42 45 49 51 50 48 48 50 55 64 63
13 13 15 10 6 15 14 15 20 20 26 32 34 36 38 38 36 43 44 46 46 48 50 50 53 52 46 44 45 47 44 48 49 49 48 48 49 46 47 50 48 51 58
10 12 7 4 5 17 22 18 19 18 20 25 26 29 31 36 38 40 45 51 50 48 51 52 54 51 51 52 53 52 55 51 56 51 59 56 46 43 48 50 49 56 42
11 10 4 2 10 13 20 26 23 22 22 26 25 22 24 25 28 33 37 38 41 47 48 49 50 54 50 50 51 52 52 52 55 57 45 49 53 48 46 50 51 49 42
11 8 8 3 7 12 17 21 25 26 25 25 28 28 28 30 32 33 34 36 36 38 40 39 44 55 56 53 50 42 47 47 51 55 51 55 54 53 52 49 50 51 45
1 5 12 6 4 4 8 11 14 15 16 15 14 16 23 27 29 29 28 25 28 28 33 32 32 36 36 43 46 49 49 45 46 46 48 51 50 50 47 49 47 48 48
22 17 9 4 4 5 5 6 8 11 13 16 12 13 16 20 22 23 26 28 32 31 33 41 35 30 33 39 40 46 46 45 39 42 49 51 48 48 45 46 45 51 56
23 22 15 6 5 8 8 5 6 12 10 12 15 13 12 15 17 21 27 29 30 31 33 31 33 32 33 35 33 35 42 39 41 45 47 45 50 49 47 48 49 46 48
17 16 15 14 12 9 9 6 4 8 11 10 11 12 15 15 13 14 16 19 23 25 26 29 33 33 38 37 35 32 29 31 34 34 35 36 37 35 36 41 42 47 46
12 12 10 9 7 6 3 1 3 6 10 13 9 5 9 11 10 11 16 16 21 24 24 23 28 29 29 30 30 33 37 39 40 39 41 41 45 47 45 43 46 41 37
9 9 8 6 5 4 5 6 6 7 9 11 12 13 15 16 18 20 21 23 23 24 26 28 31 33 34 38 38 40 42 44 45 46 49 49 49 50 52 54 53 54 55
8 7 7 8 9 9 9 9 9 10 11 13 14 15 17 18 20 23 25 27 29 31 34 36 37 39 42 44 46 48 50 52 53 55 58 60 60 61 62 63 62 62 62
12 11 10 10 11 11 11 12 13 14 16 17 18 20 22 24 26 29 31 34 36 39 42 44 46 48 50 52 54 56 58 60 62 63 65 68 69 72 73 74 73 73 71
17 16 16 16 17 17 17 18 18 20 22 24 25 27 29 32 34 37 39 42 45 48 51 54 56 58 61 63 64 67 68 69 71 74 76 77 79 82 84 84 84 82 81
22 22 22 23 23 24 25 25 26 28 30 32 34 36 38 40 43 45 48 50 53 56 59 61 65 67 69 72 73 75 76 78 80 81 84 86 89 91 93 93 94 93 91
26 26 27 27 28 29 30 31 32 34 36 39 41 44 46 49 51 54 56 59 62 64 67 69 73 74 76 77 79 82 85 87 89 92 95 98 101 103 107 109 109 109 109
33 34 34 34 34 35 36 37 39 41 43 45 48 51 54 56 58 60 63 66 68 69 71 74 75 78 79 81 84 88 91 95 98 101 105 110 115 119 122 123 120 117 111
37 37 38 39 40 40 41 42 43 45 46 47 49 52 56 59 61 63 65 67 70 72 74 75 76 79 83 88 91 95 99 105 110 115 117 119 119 112 103 95 89 88 86
41 41 40 41 43 44 44 45 45 47 49 52 55 58 62 65 66 68 69 69 70 71 72 75 78 83 87 94 100 105 109 110 110 110 105 97 91 87 81 74 69 69 70
46 45 45 45 46 46 46 46 46 48 51 54 58 64 68 69 66 66 66 67 70 72 75 79 83 89 95 99 101 99 96 90 85 83 79 75 71 66 60 57 58 61 65
49 48 47 47 47 48 47 47 49 50 53 58 63 68 69 66 64 64 66 70 72 76 81 86 89 93 94 93 90 83 75 70 65 61 57 54 50 48 47 48 50 52 56

GFSMW_500_spd_108.txt.gz
Wind_Speed
62 62 60 62 67 75 80 82 83 80 83 80 75 72 71 68 62 63 64 68 74 56 48 48 49 52 47 45 48 47 45 46 47 50 53 53 54 60 56 45 44 44 45
53 53 57 48 53 64 78 79 80 80 80 78 67 65 66 68 66 66 67 66 75 63 58 51 42 45 44 49 49 47 48 49 48 50 52 53 53 55 55 56 52 51 52
50 48 41 36 40 40 43 58 75 80 75 74 67 61 59 66 67 67 69 70 75 75 66 55 56 45 46 50 49 51 53 53 49 51 52 50 51 55 58 54 60 53 53
43 36 37 36 38 30 26 29 37 54 62 63 58 49 53 61 61 67 65 66 70 79 80 72 54 54 51 49 53 52 54 51 47 47 52 53 50 54 55 55 59 52 52
39 38 35 29 33 23 19 23 27 37 38 39 44 42 41 53 57 55 54 55 61 69 74 71 60 54 60 65 54 52 51 53 51 49 52 54 53 53 54 50 49 55 60
32 29 27 27 22 18 8 11 18 28 43 39 31 46 40 41 44 47 44 47 46 56 64 63 63 57 58 57 54 53 53 50 50 49 49 49 49 47 53 56 52 48 46
19 22 22 22 17 16 13 9 12 24 35 38 22 27 33 35 35 38 42 44 40 43 54 53 57 57 53 53 53 52 52 52 53 49 48 46 44 45 49 53 51 50 49
25 22 16 13 12 10 14 14 16 20 21 24 25 29 32 36 39 39 38 39 38 42 52 46 46 51 57 55 50 51 52 50 51 52 55 52 48 51 52 52 51 48 50
13 16 15 10 7 2 1 2 8 12 16 18 20 25 31 33 37 37 39 38 39 40 43 44 45 47 47 47 46 49 53 54 54 51 53 54 53 55 57 55 54 58 59
15 14 14 10 5 4 3 5 8 10 13 16 18 21 26 29 33 34 35 37 36 36 38 41 42 45 47 47 47 47 51 54 57 55 50 49 53 49 52 61 52 51 52
23 16 10 10 6 3 1 5 11 14 18 19 19 25 29 29 24 24 27 25 29 29 33 37 37 33 32 35 39 41 46 48 49 51 50 51 47 41 43 51 56 56 56
20 20 14 13 6 6 6 3 8 9 13 13 12 11 9 10 17 21 23 26 30 29 28 28 29 36 38 40 41 42 40 37 42 45 45 47 51 45 44 46 47 50 54
20 18 17 13 12 9 4 5 1 5 8 10 9 10 12 15 19 17 18 23 29 32 33 34 36 45 42 40 37 41 35 33 35 40 45 47 47 48 50 52 50 50 49
19 19 19 17 16 13 9 6 5 7 10 6 8 11 16 16 18 24 24 25 28 30 34 31 34 35 38 39 41 44 44 40 39 38 37 37 33 35 38 36 39 38 39
19 19 18 17 15 15 13 11 10 6 5 10 14 14 15 13 12 11 12 13 15 18 20 22 25 28 29 25 31 32 30 34 36 36 39 39 39 41 40 39 40 42 41
17 16 17 16 16 16 15 15 14 13 12 12 12 13 16 15 18 18 20 22 22 27 30 30 32 33 35 35 36 38 38 40 41 42 45 46 46 47 48 48 47 49 49
18 17 16 15 16 16 17 16 17 17 17 18 18 19 20 21 22 24 26 27 29 31 33 35 37 38 40 42 43 45 46 47 48 49 51 53 54 55 57 58 58 58 58
19 19 19 18 18 18 19 20 21 21 22 23 23 24 25 26 28 29 30 32 33 35 37 40 42 44 47 49 50 52 55 57 59 60 61 62 63 65 66 67 68 68 68
23 23 23 23 23 23 23 23 24 25 26 27 28 29 30 32 34 36 38 40 42 44 47 49 51 53 55 57 59 61 62 64 66 67 69 71 72 74 75 77 77 77 78
32 31 29 29 29 29 29 30 31 32 33 35 36 37 38 39 41 43 45 47 49 52 55 57 60 63 65 67 68 69 71 72 73 74 77 79 80 81 82 83 84 84 85
36 38 38 38 38 38 38 38 38 39 39 39 39 40 41 43 45 47 48 49 51 53 57 61 65 69 71 72 74 75 76 78 79 80 81 82 83 85 87 89 90 91 92
38 41 43 44 44 44 43 42 41 42 42 43 46 46 47 48 49 52 54 57 59 63 66 68 71 72 75 77 79 81 82 84 86 87 88 89 90 92 94 96 97 98 100
38 40 42 45 47 49 49 49 48 50 49 49 49 50 52 53 55 57 59 61 65 68 71 73 74 73 73 75 78 80 82 84 85 87 89 92 95 98 101 105 109 110 111
43 44 44 45 47 48 49 50 53 53 53 55 56 55 55 56 58 60 63 67 70 74 76 76 74 73 74 76 77 79 82 86 89 93 95 99 103 106 110 113 114 112 111
37 40 43 45 47 49 50 50 50 49 50 52 53 53 54 56 61 66 70 72 72 71 71 71 72 73 73 76 78 82 85 88 91 94 97 99 99 97 94 92 91 88 81
36 39 42 43 44 46 48 49 49 50 51 51 51 54 58 64 67 66 63 65 64 65 67 70 72 73 75 78 81 84 85 87 87 87 84 81 79 78 74 68 62 58 53

GFSMW_500_spd_111.txt.gz
Wind_Speed
50 52 55 62 62 63 68 75 80 81 82 83 87 87 80 76 74 71 70 68 64 64 62 58 67 54 47 53 53 53 50 51 51 51 49 47 48 51 49 50 49 51 57
51 54 57 56 56 59 60 64 61 66 63 74 78 80 75 75 71 70 69 71 69 67 64 62 65 58 48 55 51 56 53 50 52 50 50 49 46 48 47 50 51 53 53
51 52 48 50 55 55 52 60 65 66 68 66 73 77 72 67 67 63 62 67 69 66 66 66 62 74 54 51 48 44 46 43 43 46 48 48 48 49 51 51 53 52 51
50 50 45 50 52 49 52 58 54 50 49 50 57 66 64 59 57 58 57 57 63 67 67 65 64 66 77 71 52 43 41 38 41 43 45 47 48 50 51 51 53 54 51
45 38 39 47 41 41 41 44 33 34 34 35 34 45 54 44 48 50 56 51 56 65 67 68 64 64 67 74 76 68 62 45 44 47 49 48 51 54 52 52 54 55 54
41 30 35 40 30 30 31 29 22 17 17 19 25 35 45 47 44 43 54 54 54 58 61 65 63 60 65 69 68 76 70 53 48 47 53 51 52 53 55 55 51 51 48
38 26 28 28 19 22 22 25 15 5 7 15 30 31 39 41 35 35 30 35 40 47 45 51 57 57 60 61 62 57 54 53 57 54 48 54 58 58 54 51 48 48 40
33 27 26 22 17 16 17 19 17 7 8 7 28 17 24 39 24 31 37 38 39 36 44 43 43 49 51 50 52 56 54 55 52 53 52 55 55 53 50 52 52 51 47
31 28 24 22 15 12 15 16 14 8 0 7 9 14 14 22 25 24 27 31 32 35 38 39 44 48 47 48 48 52 54 56 55 56 55 53 52 53 56 51 51 49 51
30 28 23 20 14 11 12 11 13 8 3 7 9 11 11 19 22 22 25 30 35 38 39 41 42 43 46 46 43 42 42 44 45 48 53 57 59 57 56 54 47 45 48
25 26 25 21 19 11 9 9 8 7 10 9 8 11 14 16 19 23 30 35 35 38 42 43 41 40 41 40 44 46 45 47 49 50 51 49 51 52 52 49 50 48 44
20 19 23 24 21 15 13 9 9 9 11 16 17 19 20 22 24 27 26 22 27 29 27 29 32 32 33 36 32 33 36 40 41 42 43 44 46 43 44 46 50 50 53
24 23 20 18 18 18 16 10 7 7 10 10 10 11 9 9 12 17 21 20 22 23 25 29 34 35 33 37 38 39 45 42 41 43 44 44 39 43 49 51 47 52 47
24 23 24 25 23 19 16 15 13 11 10 10 8 8 12 16 20 23 22 22 26 31 32 28 30 36 31 35 36 38 39 39 42 42 43 46 46 45 46 45 43 43 45
24 24 24 23 23 24 21 18 16 15 12 10 11 12 14 13 16 15 13 17 20 17 18 19 24 27 30 31 32 33 37 41 37 38 42 48 42 45 40 41 39 38 38
25 25 25 24 25 24 23 23 23 21 19 18 17 17 17 18 19 20 22 24 27 28 28 29 28 31 33 35 35 37 39 40 42 43 43 44 44 48 48 47 47 45 45
25 25 25 25 25 26 26 26 26 25 25 25 24 24 24 24 25 26 27 29 30 31 32 33 35 36 39 40 42 44 45 47 48 49 49 50 51 53 53 54 54 54 54
27 27 26 26 26 26 26 27 27 28 29 30 29 30 30 30 31 32 34 35 36 37 39 40 41 43 45 47 48 50 51 53 55 56 57 58 59 60 61 62 62 63 63
28 28 29 29 30 31 31 31 32 33 34 35 36 36 37 38 39 40 41 42 43 44 45 46 48 49 50 52 54 56 58 61 63 65 66 67 69 70 71 72 72 72 72
32 32 31 31 32 33 34 35 37 37 38 40 40 41 41 42 43 44 44 46 47 48 50 50 50 51 53 55 57 59 60 62 64 69 73 75 76 77 78 80 79 79 79
41 42 41 40 38 38 39 39 40 40 41 42 43 45 47 49 48 49 51 51 52 53 56 58 60 61 62 63 65 66 68 70 71 72 74 76 79 81 82 83 84 86 86
40 41 41 41 43 44 45 45 45 46 47 47 46 47 51 49 49 50 52 55 56 57 59 61 62 65 66 68 70 72 74 76 77 76 76 77 79 80 81 83 84 85 86
36 38 40 41 41 42 44 47 48 49 50 51 51 51 51 52 52 53 54 56 57 60 62 64 66 69 71 72 73 73 73 73 74 75 76 77 79 81 83 86 88 90 91
30 32 34 37 41 43 45 47 49 51 52 53 53 54 55 55 55 56 57 59 62 65 68 69 68 67 65 65 65 67 68 71 74 76 77 80 82 85 87 89 91 93 94
31 30 30 34 37 42 46 49 51 51 51 52 52 53 54 54 57 59 60 62 63 63 63 61 59 59 60 63 65 68 69 72 75 77 79 82 84 86 88 88 91 93 94
33 35 35 35 37 40 44 48 53 55 54 54 54 55 57 57 60 61 61 62 57 55 53 55 57 58 61 64 67 69 71 73 76 78 79 80 79 78 78 78 78 77 77

GFSMW_500_spd_114.txt.gz
Wind_Speed
45 43 45 52 56 59 61 61 62 69 74 76 77 79 81 84 82 78 79 75 68 66 66 64 61 55 57 54 61 56 51 48 48 47 49 48 49 51 53 52 50 48 48
42 47 54 57 58 60 60 60 62 63 69 75 75 71 68 68 71 74 80 78 73 70 71 71 69 66 61 62 58 66 46 40 51 51 51 50 53 54 52 51 46 48 47
44 46 50 50 58 55 51 50 55 62 64 63 65 69 72 70 69 60 59 67 66 69 64 68 71 69 65 64 63 61 64 66 55 63 58 52 56 55 51 50 47 45 46
40 47 47 50 49 43 47 50 44 45 54 57 57 57 56 57 63 63 52 55 57 61 56 40 54 68 66 63 64 66 57 59 52 56 50 51 53 55 49 45 43 43 42
40 46 43 45 39 40 36 32 37 48 44 40 36 34 34 39 42 49 47 48 47 42 58 72 54 61 64 64 61 57 58 59 62 45 51 40 41 40 43 43 39 42 41
36 39 41 39 40 34 30 27 33 35 27 17 11 12 10 12 22 35 40 41 38 43 52 47 45 51 56 60 64 64 62 61 62 57 60 56 65 57 46 45 44 43 45
33 38 39 36 39 30 22 22 26 27 30 19 14 5 5 7 21 32 37 29 32 30 32 40 44 45 48 57 58 61 64 64 66 65 65 64 67 63 51 51 47 51 49
32 33 34 35 34 29 20 21 21 22 21 19 10 17 13 12 15 25 36 26 28 39 46 36 38 46 50 51 54 60 63 64 63 63 57 59 60 55 49 50 49 53 55
31 28 30 31 31 31 22 18 19 15 11 7 17 11 5 4 9 27 22 20 25 28 23 26 29 35 39 44 48 49 48 49 52 51 50 52 50 51 51 49 51 47 51
25 25 25 27 28 26 25 17 16 15 12 14 14 14 10 4 3 12 13 13 14 19 25 29 36 37 38 43 47 50 49 49 49 49 49 50 54 53 52 49 47 53 56
25 27 27 25 25 27 26 23 19 17 15 13 14 14 12 12 11 13 17 18 21 24 28 33 36 38 41 42 43 45 46 42 43 42 41 41 42 43 46 50 53 58 59
25 25 26 27 25 23 25 24 21 18 17 18 16 16 17 17 15 14 17 18 19 21 26 28 32 30 34 38 42 42 42 41 41 46 47 50 52 51 54 53 49 53 55
24 24 23 23 24 23 21 21 19 19 18 16 15 14 12 10 10 14 17 18 20 22 22 22 24 27 29 31 32 33 36 40 43 42 44 46 43 47 52 49 48 52 46
23 23 23 23 23 24 24 22 19 18 17 15 14 15 15 16 18 20 22 24 26 26 28 31 36 37 38 37 38 41 39 34 41 41 43 42 41 42 45 46 47 50 49
26 25 24 24 23 23 23 24 24 23 21 19 18 17 16 17 19 21 22 23 22 20 24 25 23 24 27 27 34 43 43 38 39 39 38 40 47 46 42 42 42 52 50
28 28 27 26 26 26 26 26 25 25 25 25 25 24 24 23 23 23 25 26 28 29 29 30 31 33 33 33 34 35 36 37 38 40 38 43 45 44 45 46 46 44 46
30 30 30 31 31 32 32 31 31 30 30 30 30 30 30 30 31 32 33 34 34 34 36 37 38 39 40 40 41 41 42 43 45 47 48 49 50 50 49 51 51 51 51
34 35 35 35 35 35 34 34 34 35 36 35 35 35 36 37 37 37 38 40 41 42 43 44 45 46 48 48 49 49 49 51 52 54 55 56 57 58 59 59 59 60 60
34 35 35 35 35 36 38 38 39 39 39 39 41 42 42 42 41 42 43 43 43 45 47 48 49 50 52 52 53 55 56 56 56 56 57 58 59 60 63 64 64 66 68
33 33 34 33 32 33 34 35 37 38 40 42 44 45 45 46 48 50 51 53 54 55 55 55 56 55 55 55 57 58 59 60 62 63 65 67 68 69 68 68 70 70 70
27 28 27 28 30 30 30 31 33 35 37 39 42 45 47 49 50 51 52 53 54 55 55 56 59 60 60 61 62 64 65 66 66 68 69 71 72 73 74 74 75 76 77
27 29 30 31 31 31 33 33 35 37 38 40 43 46 48 50 52 53 53 54 54 54 55 56 58 61 62 64 65 67 68 70 72 73 74 74 75 75 77 78 79 79 79
30 32 33 33 34 36 38 38 38 39 42 44 47 49 51 52 51 52 53 51 53 55 56 59 60 60 62 64 64 64 65 67 68 69 71 71 72 74 75 76 77 78 78
33 34 34 36 38 39 41 43 45 45 45 48 50 52 54 53 51 52 54 55 56 53 54 55 55 55 55 54 55 56 57 59 62 65 68 71 73 75 77 77 79 81 82
36 36 36 37 38 41 42 44 47 47 49 52 55 53 52 50 46 47 48 48 46 46 47 47 45 45 47 49 50 51 53 57 61 65 67 70 72 73 74 76 78 79 79
36 37 38 39 40 42 43 45 48 49 50 53 54 52 47 42 40 43 47 46 43 42 43 43 42 43 42 43 47 52 55 59 63 64 66 67 67 68 68 69 70 71 72

GFSMW_500_spd_117.txt.gz
Wind_Speed
39 43 42 42 43 46 52 55 61 64 68 72 72 73 75 77 76 74 73 73 74 75 72 73 69 65 63 59 57 52 61 55 49 47 53 50 51 51 53 52 52 55 52
37 36 39 41 44 50 54 56 65 63 61 58 61 66 70 72 74 77 78 78 77 75 77 76 68 71 66 61 60 58 57 59 57 55 57 50 57 55 54 54 55 51 51
31 33 36 41 46 50 51 57 52 45 48 51 52 57 62 65 68 69 69 69 68 67 68 69 75 67 70 67 67 63 59 58 61 60 58 60 51 50 47 57 50 46 50
30 33 37 38 43 46 45 50 39 40 36 39 44 45 46 50 54 56 61 65 65 64 60 60 61 65 63 63 69 71 68 66 59 63 59 59 67 65 53 54 61 55 55
29 33 34 37 40 43 45 42 37 33 28 29 40 37 29 30 33 34 38 43 50 58 59 52 53 51 56 59 46 53 67 76 70 60 55 52 44 44 49 55 56 49 51
31 35 34 34 36 38 38 37 31 29 21 28 30 30 33 20 16 17 19 23 30 37 45 45 51 32 55 51 48 40 47 48 59 64 64 60 54 48 52 45 49 43 40
32 31 29 29 30 33 33 33 27 25 19 23 30 24 23 24 23 16 16 7 17 32 36 42 45 27 52 66 56 54 50 50 53 63 65 65 62 60 62 59 57 59 42
24 21 21 24 27 28 30 31 26 22 23 25 26 29 23 15 14 18 15 8 6 9 24 31 37 30 32 42 44 43 47 48 52 53 60 63 66 67 66 67 71 69 68
20 24 23 24 25 25 26 26 25 22 22 23 21 24 24 21 18 15 3 7 15 15 15 14 24 32 45 34 37 41 43 46 47 50 53 58 64 66 66 64 63 60 62
22 26 26 25 26 25 25 25 23 21 22 21 20 18 16 17 15 10 4 7 7 8 13 17 13 12 22 33 35 35 37 41 47 49 51 51 53 59 61 60 58 57 55
24 25 26 26 26 25 24 24 24 24 22 20 21 20 17 15 14 12 11 11 13 17 19 18 22 26 30 34 37 40 43 45 45 48 48 52 51 54 53 52 54 56 57
24 24 25 26 27 28 28 26 25 24 23 22 22 21 19 17 14 10 12 13 14 17 18 19 23 28 32 36 38 41 42 44 43 46 49 50 47 51 49 47 48 49 48
26 27 28 28 28 28 28 29 29 27 25 24 22 20 20 20 19 19 20 20 23 23 23 26 28 29 29 31 32 38 41 40 39 40 38 46 47 48 50 50 53 56 55
30 30 30 29 29 30 30 29 28 26 27 27 26 25 23 22 20 21 22 23 23 24 23 22 24 26 27 27 33 38 42 43 42 43 44 43 44 45 51 52 50 51 50
34 32 32 32 31 32 33 32 31 30 29 28 28 29 29 29 28 27 27 28 29 29 29 29 31 32 33 32 32 34 35 35 35 40 44 48 52 46 48 52 58 55 53
32 33 33 34 33 32 33 34 34 34 34 34 33 31 31 33 33 34 35 36 36 35 36 37 38 39 39 39 39 39 40 41 41 42 42 43 43 42 42 46 40 44 44
30 31 33 33 33 34 34 34 34 34 35 36 36 37 38 38 40 41 41 41 41 43 44 45 45 45 45 46 46 46 46 47 47 48 48 49 49 49 50 50 51 51 51
18 21 22 23 25 25 25 25 26 27 28 29 31 33 35 37 40 42 44 45 46 46 48 49 50 50 50 50 51 52 52 52 53 54 54 54 55 56 56 56 57 58 59
21 20 21 22 23 25 25 25 26 27 29 30 32 33 35 37 40 43 45 48 49 50 51 51 52 53 54 54 54 54 58 61 60 59 59 60 59 60 62 63 63 63 64
25 24 24 24 25 27 28 29 32 35 36 36 38 39 39 41 44 47 49 52 53 53 53 54 54 54 55 57 57 56 56 57 58 61 63 65 65 67 67 66 67 68 69
27 27 28 28 28 29 30 32 34 37 39 41 44 46 47 47 50 54 57 57 54 52 53 53 54 54 53 54 57 58 60 62 64 65 65 66 67 69 70 72 73 75 76
29 29 30 30 31 33 33 35 37 39 41 43 45 48 48 50 54 56 58 59 54 48 47 49 52 55 56 58 58 59 60 61 61 62 63 63 65 69 72 74 77 78 79
32 31 32 33 34 35 36 38 39 41 42 44 46 47 49 50 47 44 42 41 38 40 46 46 46 46 48 49 49 49 49 49 50 52 53 55 59 61 64 67 70 73 75
34 34 35 35 35 36 38 39 42 43 43 43 45 47 48 46 42 38 36 37 40 42 41 39 39 41 43 44 43 42 43 46 48 52 54 59 62 64 66 68 70 73 75
35 35 35 36 37 38 39 41 43 45 45 45 45 47 46 44 42 40 39 38 39 39 40 40 39 39 39 38 36 37 39 44 49 53 57 60 63 65 67 69 71 71 73
37 37 36 37 37 39 42 42 43 45 47 46 46 47 46 44 43 42 41 40 38 42 44 43 41 36 33 32 34 38 45 52 58 60 63 64 65 64 63 63 62 62 62